[[{"header":{"parameterUnit":"m.s-1","parameterCategory":1,"la1":31.0,"la2":29.5877,"lo1":-88.7671,"lo2":-86.6584,"dy":0.0162,"dx":0.0185,"nx":115,"ny":88,"refTime":"2024-03-14T00:00:00:Z","depth":0,"parameterNumber":2,"parameterNumberName":"U-component_of_WINDS"},"data":[0.0,0.0,0.0,0.0,0.0,0.0,0.0,0.0,0.0,0.0,0.0,0.0,0.0,0.0,0.0,0.0,0.0,0.0,0.0,0.0,0.0,0.0,0.0,0.0,0.0,0.0,0.0,0.0,0.0,0.0,0.0,0.0,0.0,0.0,0.0,0.0,0.0,0.0,0.0,0.0,0.0,0.0,0.0,0.0,0.0,0.0,0.0,0.0,0.0,0.0,0.0,0.0,0.0,0.0,0.0,0.0,0.0,0.0,0.0,0.0,0.0,0.0,0.0,0.0,0.0,0.0,0.0,0.0,0.0,0.0,0.0,0.0,0.0,0.0,0.0,0.0,0.0,0.0,0.0,0.0,0.0,0.0,0.0,0.0,0.0,0.0,0.0,0.0,0.0,0.0,0.0,0.0,0.0,0.0,0.0,0.0,0.0,0.0,0.0,0.0,0.0,0.0,0.0,0.0,0.0,0.0,0.0,0.0,0.0,0.0,0.0,0.0,0.0,0.0,0.0,0.0,0.0,0.0,0.0,0.0,0.0,0.0,0.0,0.0,0.0,0.0,0.0,0.0,0.0,0.0,0.0,0.0,0.0,0.0,0.0,0.0,0.0,0.0,0.0,0.0,0.0,0.0,0.0,0.0,0.0,0.0,0.0,0.0,0.0,0.0,0.0,0.0,0.0,0.0,0.0,0.0,0.0,0.0,0.0,0.0,0.0,0.0,0.0,0.0,0.0,0.0,0.0,0.0,0.0,0.0,0.0,0.0,0.0,0.0,0.0,0.0,0.0,0.0,0.0,0.0,0.0,0.0,0.0,0.0,0.0,0.0,0.0,0.0,0.0,0.0,0.0,0.0,0.0,0.0,0.0,0.0,0.0,0.0,0.0,0.0,0.0,0.0,0.0,0.0,0.0,0.0,0.0,0.0,0.0,0.0,0.0,0.0,0.0,0.0,0.0,0.0,0.0,0.0,0.0,0.0,0.0,0.0,0.0,0.0,0.0,0.0,0.0,0.0,0.0,0.0,0.0,0.0,0.0,0.0,0.0,0.0,0.0,0.0,0.0,0.0,0.0,0.0,0.0,0.0,0.0,0.0,0.0,0.0,0.0,0.0,0.0,0.0,0.0,0.0,0.0,0.0,0.0,0.0,0.0,0.0,0.0,0.0,0.0,0.0,0.0,0.0,0.0,0.0,0.0,0.0,0.0,0.0,0.0,0.0,0.0,0.0,0.0,0.0,0.0,0.0,0.0,0.0,0.0,0.0,0.0,0.0,0.0,0.0,0.0,0.0,0.0,0.0,0.0,0.0,0.0,0.0,0.0,0.0,0.0,0.0,0.0,0.0,0.0,0.0,0.0,0.0,0.0,0.0,0.0,0.0,0.0,0.0,0.0,0.0,0.0,0.0,0.0,0.0,0.0,0.0,0.0,0.0,0.0,0.0,0.0,0.0,0.0,0.0,0.0,0.0,0.0,0.0,0.0,0.0,0.0,0.0,0.0,0.0,0.0,0.0,0.0,0.0,0.0,0.0,0.0,0.0,0.0,0.0,0.0,0.0,0.0,0.0,0.0,0.0,0.0,0.0,0.0,0.0,0.0,0.0,0.0,0.0,0.0,0.0,0.0,0.0,0.0,0.0,0.0,0.0,0.0,0.0,0.0,0.0,0.0,0.0,0.0,0.0,0.0,0.0,0.0,0.0,0.0,0.0,0.0,0.0,0.0,0.0,0.0,0.0,0.0,0.0,0.0,0.0,0.0,0.0,0.0,0.0,0.0,0.0,0.0,0.0,0.0,0.0,0.0,0.0,0.0,0.0,0.0,0.0,0.0,0.0,0.0,0.0,0.0,0.0,0.0,0.0,0.0,0.0,0.0,0.0,0.0,0.0,0.0,0.0,0.0,0.0,0.0,0.0,0.0,0.0,0.0,0.0,0.0,0.0,0.0,0.0,0.0,0.0,0.0,0.0,0.0,0.0,0.0,0.0,0.0,0.0,0.0,0.0,0.0,0.0,0.0,0.0,0.0,0.0,0.0,0.0,0.0,0.0,0.0,0.0,0.0,0.0,0.0,0.0,0.0,0.0,0.0,0.0,0.0,0.0,0.0,0.0,0.0,0.0,0.0,0.0,0.0,0.0,0.0,0.0,0.0,0.0,0.0,0.0,0.0,0.0,0.0,0.0,0.0,0.0,0.0,0.0,0.0,0.0,0.0,0.0,0.0,0.0,0.0,0.0,0.0,0.0,0.0,0.0,0.0,0.0,0.0,0.0,0.0,0.0,0.0,0.0,0.0,0.0,0.0,0.0,0.0,0.0,0.0,0.0,0.0,0.0,0.0,0.0,0.0,0.0,0.0,0.0,0.0,0.0,0.0,0.0,0.0,0.0,0.0,0.0,0.0,0.0,0.0,0.0,0.0,0.0,0.0,0.0,0.0,0.0,0.0,0.0,0.0,0.0,0.0,0.0,0.0,0.0,0.0,0.0,0.0,0.0,0.0,0.0,0.0,0.0,0.0,0.0,0.0,0.0,0.0,0.0,0.0,0.0,0.0,0.0,0.0,0.0,0.0,0.0,0.0,0.0,0.0,0.0,0.0,0.0,0.0,0.0,0.0,0.0,0.0,0.0,0.0,0.0,0.0,0.0,0.0,0.0,0.0,0.0,0.0,0.0,0.0,0.0,0.0,0.0,0.0,0.0,0.0,0.0,0.0,0.0,0.0,0.0,0.0,0.0,0.0,0.0,0.0,0.0,0.0,0.0,0.0,0.0,0.0,0.0,0.0,0.0,0.0,0.0,0.0,0.0,0.0,0.0,0.0,0.0,0.0,0.0,0.0,0.0,0.0,0.0,0.0,0.0,0.0,0.0,0.0,0.0,0.0,0.0,0.0,0.0,0.0,0.0,0.0,0.0,0.0,0.0,0.0,0.0,0.0,0.0,0.0,0.0,0.0,0.0,0.0,0.0,0.0,0.0,0.0,0.0,0.0,0.0,0.0,0.0,0.0,0.0,0.0,0.0,0.0,0.0,0.0,0.0,0.0,0.0,0.0,0.0,0.0,0.0,0.0,0.0,0.0,0.0,0.0,0.0,0.0,0.0,0.0,0.0,0.0,0.0,0.0,0.0,0.0,0.0,0.0,0.0,0.0,0.0,0.0,0.0,0.0,0.0,0.0,0.0,0.0,0.0,0.0,0.0,0.0,0.0,0.0,0.0,0.0,0.0,0.0,0.0,0.0,0.0,0.0,0.0,0.0,0.0,0.0,0.0,0.0,0.0,0.0,0.0,0.0,0.0,0.0,0.0,0.0,0.0,0.0,0.0,0.0,0.0,0.0,0.0,0.0,0.0,0.0,0.0,0.0,0.0,0.0,0.0,0.0,0.0,0.0,0.0,0.0,0.0,0.0,0.0,0.0,0.0,0.0,0.0,0.0,0.0,0.0,0.0,0.0,0.0,0.0,0.0,0.0,0.0,0.0,0.0,0.0,0.0,0.0,0.0,0.0,0.0,0.0,0.0,0.0,0.0,0.0,0.0,0.0,0.0,0.0,0.0,0.0,0.0,0.0,0.0,0.0,0.0,0.0,0.0,0.0,0.0,0.0,0.0,0.0,0.0,0.0,0.0,0.0,0.0,0.0,0.0,0.0,0.0,0.0,0.0,0.0,0.0,0.0,0.0,0.0,0.0,0.0,0.0,0.0,0.0,0.0,0.0,0.0,0.0,0.0,0.0,0.0,0.0,0.0,0.0,0.0,0.0,0.0,0.0,0.0,0.0,0.0,0.0,0.0,0.0,0.0,0.0,0.0,0.0,0.0,0.0,0.0,0.0,0.0,0.0,0.0,0.0,0.0,0.0,0.0,0.0,0.0,0.0,0.0,0.0,0.0,0.0,0.0,0.0,0.0,0.0,0.0,0.0,0.0,0.0,0.0,0.0,0.0,0.0,0.0,0.0,0.0,0.0,0.0,0.0,0.0,0.0,0.0,0.0,0.0,0.0,0.0,0.0,0.0,0.0,0.0,0.0,0.0,0.0,0.0,0.0,0.0,0.0,0.0,0.0,0.0,0.0,0.0,0.0,0.0,0.0,0.0,0.0,0.0,0.0,0.0,0.0,0.0,0.0,0.0,0.0,0.0,0.0,0.0,0.0,0.0,0.0,0.0,0.0,0.0,0.0,0.0,0.0,0.0,0.0,0.0,0.0,0.0,0.0,0.0,0.0,0.0,0.0,0.0,0.0,0.0,0.0,0.0,0.0,0.0,0.0,0.0,0.0,0.0,0.0,0.0,0.0,0.0,0.0,5.6606,0.0,0.0,0.0,0.0,0.0,0.0,0.0,0.0,0.0,0.0,0.0,0.0,0.0,0.0,0.0,0.0,0.0,0.0,0.0,0.0,0.0,0.0,0.0,0.0,0.0,0.0,0.0,0.0,0.0,0.0,0.0,0.0,0.0,0.0,0.0,0.0,0.0,0.0,0.0,0.0,0.0,0.0,0.0,0.0,0.0,0.0,0.0,0.0,0.0,0.0,0.0,0.0,0.0,0.0,0.0,0.0,0.0,0.0,0.0,0.0,0.0,0.0,0.0,0.0,0.0,0.0,0.0,0.0,0.0,0.0,0.0,0.0,0.0,0.0,0.0,0.0,0.0,0.0,0.0,0.0,0.0,0.0,0.0,0.0,0.0,0.0,0.0,0.0,0.0,0.0,0.0,0.0,0.0,0.0,0.0,0.0,0.0,0.0,0.0,0.0,0.0,0.0,0.0,0.0,0.0,0.0,0.0,0.0,0.0,0.0,5.6606,5.6606,5.6606,5.6606,5.6606,0.0,0.0,0.0,0.0,0.0,0.0,0.0,0.0,0.0,0.0,0.0,0.0,0.0,0.0,0.0,0.0,0.0,0.0,0.0,0.0,0.0,0.0,0.0,0.0,0.0,0.0,0.0,0.0,0.0,0.0,0.0,0.0,0.0,0.0,0.0,0.0,0.0,0.0,0.0,0.0,0.0,0.0,0.0,0.0,0.0,0.0,0.0,0.0,0.0,0.0,0.0,0.0,0.0,0.0,0.0,0.0,0.0,0.0,0.0,0.0,0.0,0.0,0.0,0.0,0.0,0.0,0.0,0.0,0.0,0.0,0.0,0.0,0.0,0.0,0.0,0.0,0.0,0.0,0.0,0.0,0.0,0.0,0.0,0.0,0.0,0.0,0.0,0.0,0.0,0.0,0.0,0.0,0.0,0.0,0.0,0.0,0.0,0.0,0.0,0.0,0.0,0.0,0.0,0.0,0.0,0.0,0.0,0.0,0.0,0.0,0.0,0.0,5.6606,5.6606,5.6606,0.0,0.0,0.0,0.0,0.0,0.0,0.0,0.0,0.0,0.0,0.0,0.0,0.0,0.0,0.0,0.0,0.0,0.0,0.0,0.0,0.0,0.0,0.0,0.0,0.0,0.0,0.0,0.0,0.0,0.0,0.0,0.0,0.0,0.0,0.0,0.0,0.0,0.0,0.0,0.0,0.0,0.0,0.0,0.0,0.0,0.0,0.0,0.0,0.0,0.0,0.0,0.0,0.0,0.0,0.0,0.0,0.0,0.0,0.0,0.0,0.0,0.0,0.0,0.0,0.0,0.0,0.0,0.0,0.0,0.0,0.0,0.0,0.0,0.0,0.0,0.0,0.0,0.0,0.0,0.0,0.0,0.0,0.0,0.0,0.0,0.0,0.0,0.0,0.0,0.0,0.0,0.0,0.0,0.0,0.0,0.0,0.0,0.0,0.0,0.0,0.0,0.0,0.0,0.0,0.0,0.0,0.0,0.0,0.0,0.0,5.6606,5.6606,5.6606,0.0,5.6606,0.0,0.0,0.0,0.0,0.0,0.0,0.0,0.0,0.0,0.0,0.0,0.0,0.0,0.0,0.0,0.0,0.0,0.0,0.0,0.0,0.0,0.0,0.0,0.0,0.0,0.0,0.0,0.0,0.0,0.0,0.0,0.0,0.0,0.0,0.0,0.0,0.0,0.0,0.0,0.0,0.0,0.0,0.0,0.0,0.0,0.0,0.0,0.0,0.0,0.0,0.0,0.0,0.0,0.0,0.0,0.0,0.0,0.0,0.0,0.0,0.0,0.0,0.0,0.0,0.0,0.0,0.0,0.0,0.0,0.0,0.0,0.0,0.0,0.0,0.0,0.0,0.0,0.0,0.0,0.0,0.0,0.0,0.0,0.0,0.0,0.0,0.0,0.0,0.0,0.0,0.0,0.0,0.0,0.0,0.0,0.0,0.0,0.0,0.0,0.0,0.0,0.0,0.0,0.0,0.0,0.0,0.0,0.0,0.0,0.0,5.6606,5.6606,5.6606,5.6606,0.0,0.0,0.0,0.0,0.0,0.0,0.0,0.0,0.0,0.0,0.0,0.0,0.0,0.0,0.0,0.0,0.0,0.0,0.0,0.0,0.0,0.0,0.0,0.0,0.0,0.0,0.0,0.0,0.0,0.0,0.0,0.0,0.0,0.0,0.0,0.0,0.0,0.0,0.0,0.0,0.0,0.0,0.0,0.0,0.0,0.0,0.0,0.0,0.0,0.0,0.0,0.0,0.0,0.0,0.0,0.0,0.0,0.0,0.0,0.0,0.0,0.0,0.0,0.0,0.0,0.0,0.0,0.0,0.0,0.0,0.0,0.0,0.0,0.0,0.0,0.0,0.0,0.0,0.0,0.0,0.0,0.0,0.0,0.0,0.0,0.0,0.0,0.0,0.0,0.0,0.0,0.0,0.0,0.0,0.0,0.0,0.0,0.0,0.0,0.0,0.0,0.0,0.0,0.0,0.0,0.0,0.0,0.0,0.0,0.0,5.6606,5.6606,5.6606,5.6606,5.6606,5.6606,0.0,0.0,0.0,0.0,0.0,0.0,0.0,0.0,0.0,0.0,0.0,0.0,0.0,0.0,0.0,0.0,0.0,0.0,0.0,0.0,0.0,0.0,0.0,0.0,0.0,0.0,0.0,0.0,0.0,0.0,0.0,0.0,0.0,0.0,0.0,0.0,0.0,0.0,0.0,0.0,0.0,0.0,0.0,0.0,0.0,0.0,0.0,0.0,0.0,0.0,0.0,0.0,0.0,0.0,0.0,0.0,0.0,0.0,0.0,0.0,0.0,0.0,0.0,0.0,0.0,0.0,0.0,0.0,0.0,0.0,0.0,0.0,0.0,0.0,0.0,0.0,0.0,0.0,0.0,0.0,0.0,0.0,0.0,0.0,0.0,0.0,0.0,0.0,0.0,0.0,0.0,0.0,0.0,0.0,0.0,0.0,0.0,0.0,0.0,0.0,0.0,0.0,0.0,0.0,0.0,0.0,0.0,0.0,5.6606,5.6606,5.6606,5.6606,5.6606,5.6606,0.0,0.0,0.0,0.0,0.0,0.0,0.0,0.0,0.0,0.0,0.0,0.0,0.0,0.0,0.0,0.0,0.0,0.0,0.0,0.0,0.0,0.0,0.0,0.0,0.0,0.0,0.0,0.0,0.0,0.0,0.0,0.0,0.0,0.0,0.0,0.0,0.0,0.0,0.0,0.0,0.0,0.0,0.0,0.0,0.0,0.0,0.0,0.0,0.0,0.0,0.0,0.0,0.0,0.0,0.0,0.0,0.0,0.0,0.0,0.0,0.0,0.0,0.0,0.0,0.0,0.0,0.0,0.0,0.0,0.0,0.0,0.0,0.0,0.0,0.0,0.0,0.0,0.0,0.0,0.0,0.0,0.0,0.0,0.0,0.0,0.0,0.0,0.0,0.0,0.0,0.0,0.0,0.0,0.0,0.0,0.0,0.0,0.0,0.0,0.0,0.0,0.0,0.0,0.0,0.0,0.0,0.0,0.0,0.0,5.6606,5.6606,5.6606,5.6606,5.6606,5.6606,0.0,0.0,0.0,0.0,0.0,0.0,0.0,0.0,0.0,0.0,0.0,0.0,0.0,0.0,0.0,0.0,0.0,0.0,0.0,0.0,0.0,0.0,0.0,0.0,0.0,0.0,0.0,0.0,0.0,0.0,0.0,0.0,0.0,0.0,0.0,0.0,0.0,0.0,0.0,0.0,0.0,0.0,0.0,0.0,0.0,0.0,0.0,0.0,0.0,0.0,0.0,0.0,0.0,0.0,0.0,0.0,0.0,0.0,0.0,0.0,0.0,0.0,0.0,0.0,0.0,0.0,0.0,0.0,0.0,0.0,0.0,0.0,0.0,0.0,0.0,0.0,0.0,0.0,0.0,0.0,0.0,0.0,0.0,0.0,0.0,0.0,0.0,0.0,0.0,0.0,0.0,0.0,0.0,0.0,0.0,0.0,0.0,0.0,0.0,0.0,0.0,0.0,0.0,0.0,0.0,0.0,0.0,0.0,0.0,5.6614,0.0,5.6621,5.6618,5.6614,5.6614,0.0,0.0,0.0,0.0,0.0,0.0,0.0,0.0,0.0,0.0,0.0,0.0,0.0,0.0,0.0,0.0,0.0,0.0,0.0,0.0,0.0,0.0,0.0,0.0,0.0,0.0,0.0,0.0,0.0,0.0,0.0,0.0,0.0,0.0,0.0,0.0,0.0,0.0,0.0,0.0,0.0,0.0,0.0,0.0,0.0,0.0,0.0,0.0,0.0,0.0,0.0,0.0,0.0,0.0,0.0,0.0,0.0,0.0,0.0,0.0,0.0,0.0,0.0,0.0,0.0,0.0,0.0,0.0,0.0,0.0,0.0,0.0,0.0,0.0,0.0,0.0,0.0,0.0,0.0,0.0,0.0,0.0,0.0,0.0,0.0,0.0,0.0,0.0,0.0,0.0,0.0,0.0,0.0,0.0,0.0,0.0,0.0,0.0,0.0,0.0,0.0,0.0,0.0,0.0,0.0,0.0,0.0,0.0,5.6657,5.6632,5.6639,5.6677,5.6632,5.663,5.6624,0.0,0.0,0.0,0.0,0.0,0.0,0.0,0.0,0.0,0.0,0.0,0.0,0.0,0.0,0.0,0.0,0.0,0.0,0.0,0.0,0.0,0.0,0.0,0.0,0.0,0.0,0.0,0.0,0.0,0.0,0.0,0.0,0.0,0.0,0.0,0.0,0.0,0.0,0.0,0.0,0.0,0.0,0.0,0.0,0.0,0.0,0.0,0.0,0.0,0.0,0.0,0.0,0.0,0.0,0.0,0.0,0.0,0.0,0.0,0.0,0.0,0.0,0.0,0.0,0.0,0.0,0.0,0.0,0.0,0.0,0.0,0.0,0.0,0.0,0.0,0.0,0.0,0.0,0.0,0.0,0.0,0.0,0.0,0.0,0.0,0.0,0.0,0.0,0.0,0.0,0.0,0.0,0.0,0.0,0.0,0.0,0.0,0.0,0.0,0.0,0.0,0.0,0.0,0.0,0.0,0.0,0.0,0.0,0.0,5.7413,5.7408,5.7441,5.7438,5.7438,5.7161,0.0,0.0,0.0,0.0,0.0,0.0,0.0,0.0,0.0,0.0,0.0,0.0,0.0,0.0,0.0,0.0,0.0,0.0,0.0,0.0,0.0,0.0,0.0,0.0,0.0,0.0,0.0,0.0,0.0,0.0,0.0,0.0,0.0,0.0,0.0,0.0,0.0,0.0,0.0,0.0,0.0,0.0,0.0,0.0,0.0,0.0,0.0,0.0,0.0,0.0,0.0,0.0,0.0,0.0,0.0,0.0,0.0,0.0,0.0,0.0,0.0,0.0,0.0,0.0,0.0,0.0,0.0,0.0,0.0,0.0,0.0,0.0,0.0,0.0,0.0,0.0,0.0,0.0,0.0,0.0,0.0,0.0,0.0,0.0,0.0,0.0,0.0,0.0,0.0,0.0,0.0,0.0,0.0,0.0,0.0,0.0,0.0,0.0,0.0,0.0,0.0,0.0,0.0,0.0,0.0,0.0,0.0,0.0,0.0,5.9179,5.8943,5.8778,5.8765,5.846,5.7913,5.7086,0.0,0.0,0.0,0.0,0.0,0.0,0.0,0.0,0.0,0.0,0.0,0.0,0.0,0.0,0.0,0.0,0.0,0.0,0.0,0.0,0.0,0.0,0.0,0.0,0.0,0.0,0.0,0.0,0.0,0.0,0.0,0.0,0.0,0.0,0.0,0.0,0.0,0.0,0.0,0.0,0.0,0.0,0.0,0.0,0.0,0.0,0.0,0.0,0.0,0.0,0.0,0.0,0.0,0.0,0.0,0.0,0.0,0.0,0.0,0.0,0.0,0.0,0.0,0.0,0.0,0.0,0.0,0.0,0.0,0.0,0.0,0.0,0.0,0.0,0.0,0.0,0.0,0.0,0.0,0.0,0.0,0.0,0.0,0.0,0.0,0.0,0.0,0.0,0.0,0.0,0.0,0.0,0.0,0.0,0.0,0.0,0.0,0.0,0.0,0.0,0.0,0.0,0.0,0.0,0.0,0.0,0.0,0.0,6.1642,6.0998,6.0624,6.0502,5.9686,5.8788,0.0,0.0,0.0,0.0,0.0,0.0,0.0,0.0,0.0,0.0,0.0,0.0,0.0,0.0,0.0,0.0,0.0,0.0,0.0,0.0,0.0,0.0,0.0,0.0,0.0,0.0,0.0,0.0,0.0,0.0,0.0,0.0,0.0,0.0,0.0,0.0,0.0,0.0,0.0,0.0,0.0,0.0,0.0,0.0,0.0,0.0,0.0,0.0,0.0,0.0,0.0,0.0,0.0,0.0,0.0,0.0,0.0,0.0,0.0,0.0,0.0,0.0,0.0,0.0,0.0,0.0,0.0,0.0,0.0,0.0,0.0,0.0,0.0,0.0,0.0,0.0,0.0,0.0,0.0,0.0,0.0,0.0,0.0,0.0,0.0,0.0,0.0,0.0,0.0,0.0,0.0,0.0,0.0,0.0,0.0,0.0,0.0,0.0,0.0,0.0,0.0,0.0,0.0,0.0,0.0,0.0,0.0,0.0,0.0,6.2521,6.355,6.3472,6.2205,6.1363,6.0234,0.0,0.0,0.0,0.0,0.0,0.0,0.0,0.0,0.0,0.0,0.0,0.0,0.0,0.0,0.0,0.0,0.0,0.0,0.0,0.0,0.0,0.0,0.0,0.0,0.0,0.0,0.0,0.0,0.0,0.0,0.0,0.0,0.0,0.0,0.0,0.0,0.0,0.0,0.0,0.0,0.0,0.0,0.0,0.0,0.0,0.0,0.0,0.0,0.0,0.0,0.0,0.0,0.0,0.0,0.0,0.0,0.0,0.0,0.0,0.0,0.0,0.0,0.0,0.0,0.0,0.0,0.0,0.0,0.0,0.0,0.0,0.0,0.0,0.0,0.0,0.0,0.0,0.0,0.0,0.0,0.0,0.0,0.0,0.0,0.0,0.0,0.0,0.0,0.0,0.0,0.0,0.0,0.0,0.0,0.0,0.0,0.0,0.0,0.0,0.0,0.0,0.0,0.0,0.0,0.0,0.0,0.0,0.0,6.257,6.3968,6.5913,6.6457,6.5465,6.3321,6.1319,0.0,0.0,0.0,0.0,0.0,0.0,0.0,0.0,0.0,0.0,0.0,0.0,0.0,0.0,0.0,0.0,0.0,0.0,0.0,0.0,0.0,0.0,0.0,0.0,0.0,0.0,0.0,0.0,0.0,0.0,0.0,0.0,0.0,0.0,0.0,0.0,0.0,0.0,0.0,0.0,0.0,0.0,0.0,0.0,0.0,0.0,0.0,0.0,0.0,0.0,0.0,0.0,0.0,0.0,0.0,0.0,0.0,0.0,0.0,0.0,0.0,0.0,0.0,0.0,0.0,0.0,0.0,0.0,0.0,0.0,0.0,0.0,0.0,0.0,0.0,0.0,0.0,0.0,0.0,0.0,0.0,0.0,0.0,0.0,0.0,0.0,0.0,0.0,0.0,0.0,0.0,0.0,0.0,0.0,0.0,0.0,0.0,0.0,0.0,0.0,0.0,0.0,0.0,0.0,0.0,0.0,0.0,0.0,6.4597,6.5678,6.7903,6.9111,6.8995,6.5221,6.2384,0.0,0.0,0.0,0.0,0.0,0.0,0.0,0.0,0.0,0.0,0.0,0.0,0.0,0.0,0.0,0.0,0.0,0.0,0.0,0.0,0.0,0.0,0.0,0.0,0.0,0.0,0.0,0.0,0.0,0.0,0.0,0.0,0.0,0.0,0.0,0.0,0.0,0.0,0.0,0.0,0.0,0.0,0.0,0.0,0.0,0.0,0.0,0.0,0.0,0.0,0.0,0.0,0.0,0.0,0.0,0.0,0.0,0.0,0.0,0.0,0.0,0.0,0.0,0.0,0.0,0.0,0.0,0.0,0.0,0.0,0.0,0.0,0.0,0.0,0.0,0.0,0.0,0.0,0.0,0.0,0.0,0.0,0.0,0.0,0.0,0.0,0.0,0.0,0.0,0.0,0.0,0.0,0.0,0.0,0.0,0.0,0.0,0.0,0.0,0.0,0.0,0.0,0.0,0.0,0.0,0.0,0.0,0.0,6.5172,6.7334,6.8497,6.9111,6.9111,6.6361,6.4357,0.0,0.0,0.0,0.0,0.0,0.0,0.0,0.0,0.0,0.0,0.0,0.0,0.0,0.0,0.0,0.0,0.0,0.0,0.0,0.0,0.0,0.0,0.0,0.0,0.0,0.0,0.0,0.0,0.0,0.0,0.0,0.0,0.0,0.0,0.0,0.0,0.0,0.0,0.0,0.0,0.0,0.0,0.0,0.0,0.0,0.0,0.0,0.0,5.8314,0.0,0.0,0.0,0.0,0.0,0.0,0.0,0.0,0.0,0.0,0.0,0.0,0.0,0.0,0.0,0.0,0.0,0.0,0.0,0.0,0.0,0.0,0.0,0.0,0.0,0.0,0.0,0.0,0.0,0.0,0.0,0.0,0.0,0.0,0.0,0.0,0.0,0.0,0.0,0.0,0.0,0.0,0.0,0.0,0.0,0.0,0.0,0.0,0.0,0.0,0.0,0.0,0.0,0.0,0.0,0.0,0.0,0.0,0.0,6.6307,6.8397,6.9671,7.0283,7.0199,6.8241,6.6205,0.0,0.0,0.0,0.0,0.0,0.0,0.0,0.0,0.0,0.0,0.0,0.0,0.0,0.0,0.0,0.0,0.0,0.0,0.0,0.0,0.0,0.0,0.0,0.0,0.0,0.0,0.0,0.0,0.0,0.0,0.0,0.0,0.0,0.0,0.0,0.0,0.0,0.0,0.0,0.0,0.0,0.0,0.0,0.0,0.0,0.0,0.0,0.0,0.0,0.0,0.0,0.0,0.0,0.0,0.0,0.0,0.0,0.0,0.0,0.0,0.0,0.0,0.0,0.0,0.0,0.0,0.0,0.0,0.0,0.0,0.0,0.0,0.0,0.0,0.0,0.0,0.0,0.0,0.0,0.0,0.0,0.0,0.0,0.0,0.0,0.0,0.0,0.0,0.0,0.0,0.0,0.0,0.0,0.0,0.0,0.0,0.0,0.0,0.0,0.0,0.0,0.0,0.0,0.0,0.0,0.0,0.0,6.5784,6.7905,6.9794,7.1231,7.1974,7.1931,7.0377,6.7981,6.4801,0.0,0.0,0.0,0.0,0.0,0.0,0.0,0.0,0.0,0.0,0.0,0.0,0.0,0.0,0.0,0.0,0.0,0.0,0.0,0.0,0.0,0.0,0.0,0.0,0.0,0.0,0.0,0.0,0.0,0.0,0.0,0.0,0.0,0.0,0.0,0.0,0.0,0.0,5.6957,5.7465,0.0,0.0,0.0,0.0,0.0,0.0,0.0,0.0,5.8753,0.0,0.0,0.0,0.0,0.0,0.0,0.0,0.0,0.0,0.0,0.0,0.0,0.0,0.0,0.0,0.0,0.0,0.0,0.0,0.0,0.0,0.0,0.0,0.0,0.0,0.0,0.0,0.0,0.0,0.0,0.0,0.0,0.0,0.0,0.0,0.0,0.0,0.0,0.0,0.0,0.0,0.0,0.0,0.0,0.0,0.0,0.0,0.0,0.0,0.0,0.0,0.0,0.0,0.0,0.0,0.0,6.5855,6.7735,7.0159,7.3102,7.3529,7.3703,7.3643,7.2112,7.0032,6.7325,0.0,0.0,0.0,0.0,0.0,0.0,0.0,0.0,0.0,0.0,0.0,0.0,0.0,0.0,0.0,0.0,0.0,0.0,0.0,0.0,0.0,0.0,0.0,0.0,0.0,0.0,0.0,0.0,0.0,0.0,0.0,0.0,0.0,0.0,0.0,0.0,0.0,0.0,0.0,5.8168,5.8402,0.0,0.0,0.0,0.0,0.0,0.0,0.0,0.0,6.0119,0.0,0.0,0.0,0.0,0.0,0.0,0.0,0.0,0.0,0.0,0.0,0.0,0.0,0.0,0.0,0.0,0.0,0.0,0.0,0.0,0.0,0.0,0.0,0.0,0.0,0.0,0.0,0.0,0.0,0.0,0.0,0.0,0.0,0.0,0.0,0.0,0.0,0.0,0.0,0.0,0.0,0.0,0.0,0.0,0.0,0.0,0.0,0.0,0.0,0.0,0.0,0.0,0.0,0.0,0.0,6.7074,6.9274,7.1542,7.3898,7.4014,7.4034,7.4052,7.2524,7.0473,0.0,0.0,0.0,0.0,0.0,0.0,0.0,0.0,0.0,0.0,0.0,0.0,0.0,0.0,0.0,0.0,0.0,0.0,0.0,0.0,0.0,0.0,0.0,0.0,0.0,0.0,0.0,0.0,0.0,0.0,0.0,0.0,0.0,0.0,0.0,0.0,0.0,0.0,0.0,0.0,5.9807,6.0276,6.1564,0.0,0.0,0.0,0.0,0.0,0.0,6.1525,6.0705,0.0,0.0,0.0,0.0,0.0,0.0,0.0,0.0,0.0,0.0,0.0,0.0,0.0,0.0,0.0,0.0,0.0,0.0,0.0,0.0,0.0,0.0,0.0,0.0,0.0,0.0,0.0,0.0,0.0,0.0,0.0,0.0,0.0,0.0,0.0,0.0,0.0,0.0,0.0,0.0,0.0,0.0,0.0,0.0,0.0,0.0,0.0,0.0,0.0,0.0,0.0,0.0,0.0,0.0,0.0,6.802,7.0671,7.2793,7.44,7.4457,7.4478,7.4519,7.2663,7.0537,0.0,0.0,0.0,0.0,0.0,0.0,0.0,0.0,0.0,0.0,0.0,0.0,0.0,0.0,0.0,0.0,0.0,0.0,0.0,0.0,0.0,0.0,0.0,0.0,0.0,0.0,0.0,0.0,0.0,0.0,0.0,0.0,0.0,0.0,0.0,0.0,0.0,0.0,0.0,0.0,0.0,6.2071,6.3125,6.2657,0.0,0.0,0.0,0.0,6.3321,6.2345,0.0,0.0,0.0,0.0,0.0,0.0,0.0,0.0,0.0,0.0,0.0,0.0,0.0,0.0,0.0,0.0,0.0,0.0,0.0,0.0,0.0,0.0,0.0,0.0,0.0,0.0,0.0,0.0,0.0,0.0,0.0,0.0,0.0,0.0,0.0,0.0,0.0,0.0,0.0,0.0,0.0,0.0,0.0,0.0,0.0,0.0,0.0,0.0,0.0,0.0,0.0,0.0,0.0,0.0,0.0,0.0,6.8839,7.2034,7.4518,7.6057,7.6156,7.6178,7.6161,7.3262,7.0849,0.0,0.0,0.0,0.0,0.0,0.0,0.0,0.0,0.0,0.0,0.0,0.0,0.0,0.0,0.0,0.0,0.0,0.0,0.0,0.0,0.0,0.0,0.0,0.0,0.0,0.0,0.0,0.0,0.0,0.0,0.0,0.0,0.0,0.0,0.0,0.0,0.0,0.0,0.0,0.0,0.0,6.2306,6.3945,6.4062,6.3984,0.0,0.0,6.5038,6.5273,6.5116,0.0,0.0,0.0,0.0,0.0,0.0,0.0,0.0,0.0,0.0,0.0,0.0,0.0,0.0,0.0,0.0,0.0,0.0,0.0,0.0,0.0,0.0,0.0,0.0,0.0,0.0,0.0,0.0,0.0,0.0,0.0,0.0,0.0,0.0,0.0,0.0,0.0,0.0,0.0,0.0,0.0,0.0,0.0,0.0,0.0,0.0,0.0,0.0,0.0,0.0,0.0,0.0,0.0,0.0,0.0,6.7097,6.9079,7.32,7.5692,7.6359,7.6421,7.6444,7.6488,7.3324,7.0836,0.0,0.0,0.0,0.0,0.0,0.0,0.0,0.0,0.0,0.0,0.0,0.0,0.0,0.0,0.0,0.0,0.0,0.0,0.0,0.0,0.0,0.0,0.0,0.0,0.0,0.0,0.0,0.0,0.0,0.0,0.0,0.0,0.0,0.0,0.0,0.0,0.0,0.0,0.0,0.0,0.0,0.0,6.4219,6.4726,0.0,0.0,0.0,6.5429,6.4921,0.0,0.0,0.0,0.0,0.0,0.0,0.0,0.0,0.0,0.0,0.0,0.0,0.0,0.0,0.0,0.0,0.0,0.0,0.0,0.0,0.0,0.0,0.0,0.0,0.0,0.0,0.0,0.0,0.0,0.0,0.0,0.0,0.0,0.0,0.0,0.0,0.0,0.0,0.0,0.0,0.0,0.0,0.0,0.0,0.0,0.0,0.0,0.0,0.0,0.0,0.0,0.0,0.0,0.0,0.0,0.0,0.0,6.939,7.3992,7.6397,7.6397,7.6397,7.6421,7.6427,7.3682,0.0,0.0,0.0,0.0,0.0,0.0,0.0,0.0,0.0,0.0,0.0,0.0,0.0,0.0,0.0,0.0,0.0,0.0,0.0,0.0,0.0,0.0,0.0,0.0,0.0,0.0,0.0,5.2498,0.0,0.0,0.0,0.0,0.0,0.0,0.0,0.0,0.0,0.0,0.0,0.0,0.0,0.0,6.4297,6.4297,6.5194,6.5897,0.0,0.0,6.5663,6.5038,6.5468,6.5312,0.0,0.0,0.0,0.0,0.0,0.0,0.0,0.0,0.0,0.0,0.0,0.0,0.0,0.0,0.0,0.0,0.0,0.0,0.0,0.0,0.0,0.0,0.0,0.0,0.0,0.0,0.0,0.0,0.0,0.0,0.0,0.0,0.0,0.0,0.0,0.0,0.0,0.0,0.0,0.0,0.0,0.0,0.0,0.0,0.0,0.0,0.0,0.0,0.0,0.0,0.0,0.0,0.0,0.0,0.0,7.0283,7.4302,7.6397,7.6397,7.6397,7.6397,7.6382,7.4751,7.2707,0.0,0.0,0.0,0.0,0.0,0.0,0.0,0.0,0.0,0.0,0.0,0.0,0.0,0.0,0.0,0.0,0.0,0.0,0.0,0.0,0.0,0.0,0.0,0.0,0.0,0.0,0.0,0.0,0.0,0.0,0.0,0.0,0.0,0.0,0.0,0.0,0.0,0.0,0.0,0.0,0.0,6.4297,6.4297,6.5702,6.6717,0.0,0.0,6.6678,6.6639,6.6678,6.6131,6.4492,0.0,0.0,0.0,0.0,0.0,0.0,0.0,0.0,0.0,0.0,0.0,0.0,0.0,0.0,0.0,0.0,0.0,0.0,0.0,0.0,0.0,0.0,0.0,0.0,0.0,0.0,0.0,0.0,0.0,0.0,0.0,0.0,0.0,0.0,0.0,0.0,0.0,0.0,0.0,0.0,0.0,0.0,0.0,0.0,0.0,0.0,0.0,0.0,0.0,0.0,0.0,0.0,0.0,6.9079,7.0338,7.4341,7.6397,7.6397,7.6397,7.6397,7.6397,7.4847,7.2846,0.0,0.0,0.0,0.0,0.0,0.0,0.0,0.0,0.0,0.0,0.0,0.0,0.0,0.0,0.0,0.0,0.0,0.0,0.0,0.0,0.0,0.0,0.0,0.0,0.0,0.0,0.0,0.0,5.8504,5.9074,5.8591,0.0,0.0,0.0,0.0,0.0,0.0,0.0,0.0,0.0,0.0,6.4492,6.5038,6.6092,0.0,0.0,6.6795,6.6795,6.6795,6.6795,6.6249,6.457,6.3594,0.0,0.0,0.0,0.0,0.0,0.0,0.0,0.0,0.0,0.0,0.0,0.0,0.0,0.0,0.0,0.0,0.0,0.0,0.0,0.0,0.0,0.0,0.0,0.0,0.0,0.0,0.0,0.0,0.0,0.0,0.0,0.0,0.0,0.0,0.0,0.0,0.0,0.0,0.0,0.0,0.0,0.0,0.0,0.0,0.0,0.0,0.0,0.0,0.0,0.0,0.0,0.0,6.9511,7.0637,7.4436,7.6397,7.6397,7.6397,7.6397,7.6359,7.5309,7.3665,0.0,0.0,0.0,0.0,0.0,0.0,0.0,0.0,0.0,0.0,0.0,0.0,0.0,0.0,0.0,0.0,0.0,0.0,0.0,0.0,0.0,0.0,0.0,0.0,0.0,0.0,0.0,0.0,5.9428,5.9664,5.9092,0.0,0.0,0.0,0.0,0.0,0.0,0.0,0.0,0.0,0.0,6.4864,6.5489,6.6258,6.6795,6.6795,6.6795,6.6795,6.6795,6.6795,6.6327,6.4921,0.0,0.0,0.0,0.0,0.0,0.0,0.0,0.0,0.0,0.0,0.0,0.0,0.0,0.0,0.0,0.0,0.0,0.0,0.0,0.0,0.0,0.0,0.0,0.0,0.0,0.0,0.0,0.0,0.0,0.0,5.3614,0.0,0.0,0.0,0.0,0.0,0.0,0.0,0.0,0.0,0.0,0.0,0.0,0.0,0.0,0.0,0.0,0.0,0.0,0.0,0.0,0.0,0.0,6.9731,7.1359,7.4724,7.6397,7.6397,7.6397,7.6397,7.6397,7.632,7.5559,7.3878,0.0,0.0,0.0,0.0,0.0,0.0,0.0,0.0,0.0,0.0,0.0,0.0,0.0,0.0,0.0,0.0,0.0,0.0,0.0,0.0,0.0,0.0,0.0,0.0,0.0,0.0,5.5777,5.7679,5.9096,0.0,0.0,0.0,0.0,0.0,0.0,0.0,0.0,0.0,0.0,6.3827,6.5469,6.5508,6.6237,6.6795,6.6834,6.6834,6.6795,6.6834,6.6795,6.6522,0.0,0.0,0.0,0.0,0.0,0.0,0.0,0.0,0.0,0.0,0.0,0.0,0.0,0.0,0.0,0.0,0.0,0.0,0.0,0.0,0.0,0.0,0.0,0.0,0.0,0.0,0.0,5.7056,5.7288,0.0,0.0,0.0,0.0,0.0,0.0,0.0,0.0,0.0,0.0,0.0,6.7075,6.7075,0.0,0.0,0.0,0.0,0.0,0.0,0.0,0.0,0.0,0.0,0.0,0.0,6.9731,7.1475,7.5244,7.6978,7.6436,7.6978,7.6978,7.6397,7.6397,7.5382,7.3161,0.0,0.0,0.0,0.0,0.0,0.0,0.0,0.0,0.0,0.0,0.0,0.0,0.0,0.0,0.0,0.0,0.0,0.0,0.0,0.0,0.0,0.0,0.0,0.0,0.0,5.863,0.0,0.0,0.0,0.0,0.0,0.0,0.0,0.0,0.0,0.0,0.0,6.2571,6.4011,6.4997,6.5781,6.6285,6.6628,6.7008,0.0,0.0,0.0,0.0,0.0,0.0,0.0,0.0,0.0,0.0,0.0,0.0,0.0,0.0,6.2891,6.1134,6.0822,6.0822,6.0822,0.0,0.0,0.0,0.0,0.0,0.0,0.0,0.0,0.0,0.0,0.0,0.0,0.0,0.0,6.1427,0.0,6.077,0.0,0.0,0.0,0.0,0.0,0.0,0.0,0.0,6.8042,6.9551,7.0595,7.0556,7.0556,0.0,6.9976,6.7501,0.0,0.0,0.0,0.0,0.0,0.0,0.0,0.0,7.0583,7.2344,7.6173,7.7867,7.7365,7.7867,7.7867,7.7287,7.6978,7.594,7.4051,7.1607,6.9282,0.0,0.0,0.0,0.0,0.0,0.0,0.0,0.0,0.0,0.0,0.0,0.0,0.0,0.0,0.0,0.0,0.0,0.0,0.0,0.0,0.0,0.0,0.0,6.0254,0.0,0.0,0.0,0.0,0.0,0.0,0.0,0.0,0.0,6.1162,6.2439,6.3945,6.5697,6.6227,6.6516,6.6757,0.0,0.0,0.0,0.0,0.0,0.0,0.0,6.7185,6.6951,6.6912,6.6912,6.6912,6.7342,6.7537,6.699,0.0,0.0,6.3164,6.2618,6.2618,6.2618,6.2618,6.2618,6.2618,6.2618,6.2774,0.0,0.0,0.0,0.0,0.0,0.0,0.0,0.0,6.6574,6.665,0.0,6.487,0.0,0.0,0.0,0.0,0.0,6.7578,0.0,0.0,7.4193,7.5469,7.3999,7.3922,7.396,7.3883,7.2297,7.1098,7.017,6.9473,0.0,0.0,0.0,0.0,0.0,0.0,7.222,7.3999,7.7287,7.9028,7.8989,7.9028,7.9028,7.895,7.8177,7.7326,7.6397,7.4129,7.2773,7.2579,6.7399,0.0,0.0,0.0,0.0,0.0,0.0,0.0,0.0,0.0,0.0,0.0,0.0,0.0,0.0,0.0,0.0,0.0,0.0,0.0,0.0,6.0683,0.0,0.0,0.0,0.0,0.0,0.0,0.0,0.0,0.0,0.0,6.311,6.3748,6.4809,6.6517,0.0,0.0,0.0,0.0,6.7734,6.7099,6.6926,6.7224,6.8083,6.8161,6.8435,6.9215,0.0,0.0,6.945,6.945,6.945,6.945,6.9372,6.8396,6.5116,6.457,6.4531,6.4531,6.457,6.4492,6.4492,6.4609,6.4609,7.0733,0.0,0.0,0.0,0.0,6.7346,6.7733,6.8411,6.8158,6.8176,6.8386,6.7634,0.0,0.0,0.0,0.0,0.0,0.0,7.044,7.191,7.3767,7.5005,7.5662,7.5701,7.5662,7.5662,7.5817,7.574,7.5508,7.5895,7.2916,6.6882,0.0,0.0,0.0,0.0,7.3342,7.5701,7.8448,7.9569,7.9028,7.9569,7.9569,7.9028,7.8757,7.8216,7.7365,7.6637,7.5154,7.2812,7.1241,0.0,0.0,0.0,0.0,0.0,0.0,0.0,0.0,0.0,0.0,0.0,0.0,0.0,0.0,0.0,0.0,0.0,0.0,0.0,6.1658,6.331,6.3427,0.0,0.0,0.0,0.0,0.0,0.0,0.0,0.0,0.0,6.6312,6.6221,6.6424,0.0,0.0,6.7537,6.8502,6.8318,6.8436,6.9429,6.9064,0.0,6.984,6.945,6.9098,6.9372,6.9918,7.0309,7.0348,7.0816,7.105,7.0465,7.0348,6.9801,6.8357,6.7927,6.7927,6.7927,6.7927,6.7966,6.7927,6.7927,6.7888,7.3552,7.198,7.049,7.0144,7.0551,7.059,7.1062,7.1811,7.1833,7.1833,7.1772,7.1137,7.0827,7.0789,7.0092,0.0,0.0,0.0,7.2452,7.4115,7.4657,7.5624,7.6862,7.69,7.7094,7.7442,7.7945,7.8216,7.8216,7.8409,7.6165,7.1678,0.0,0.0,7.2026,7.3767,7.5546,7.7442,7.9608,8.0498,7.9995,8.0459,8.0343,7.9492,7.9492,7.9067,7.8216,7.7906,7.6753,7.4788,7.3544,7.1131,0.0,0.0,0.0,0.0,0.0,0.0,0.0,0.0,0.0,0.0,0.0,5.6719,0.0,0.0,0.0,0.0,6.2102,6.3544,6.5269,6.5727,0.0,0.0,0.0,0.0,0.0,0.0,0.0,6.4029,6.5426,6.6863,6.8199,6.7998,6.8057,6.8837,6.8505,6.8507,6.921,0.0,6.9294,7.0035,6.9703,6.9684,7.0543,7.027,7.0035,7.0387,7.0855,7.1206,7.1245,7.1675,7.1792,7.1363,7.1206,7.105,7.0543,7.0426,7.0152,6.9528,6.9411,6.9411,6.9411,6.9411,6.9411,7.5394,7.5203,7.2879,7.2505,7.3457,7.3457,7.4549,7.6248,7.6248,7.6311,7.6195,7.4726,7.4092,7.3976,7.2413,0.0,7.4054,7.4131,7.5044,7.6514,7.6552,7.7016,7.779,7.779,7.8216,7.8989,7.9067,7.9105,7.9067,7.837,7.7945,7.7867,7.7094,7.6204,7.5353,7.6862,7.8138,7.8989,8.0575,8.1426,8.1504,8.1504,8.1117,8.0304,8.0304,7.9918,7.9105,7.8332,7.7829,7.762,7.4887,7.2796,7.163,0.0,0.0,0.0,0.0,0.0,0.0,0.0,0.0,0.0,0.0,0.0,0.0,0.0,0.0,0.0,6.5922,0.0,6.9156,6.7833,0.0,0.0,0.0,6.4569,6.5322,6.544,6.6089,6.7619,0.0,0.0,6.9176,6.9292,6.9591,7.0381,7.0395,7.011,6.9496,7.0021,7.027,6.971,6.9607,6.9889,7.0748,7.0821,7.105,7.1714,7.1987,7.1948,7.1948,7.1987,7.1987,7.1948,7.1987,7.1948,7.1987,7.187,7.1519,6.9957,6.9684,6.9684,6.9723,6.9762,6.9762,7.6324,7.6248,7.5645,7.5203,7.4834,7.4834,7.5097,7.5539,7.5577,7.5577,7.5539,7.5438,7.5435,7.5397,7.5258,7.5296,7.5474,7.6378,7.7016,7.7403,7.8061,7.8486,7.868,7.868,7.8796,7.9028,7.9647,7.9918,7.9956,8.0382,8.0266,7.9647,7.9415,7.8216,7.6204,7.7171,7.8099,7.8989,7.9995,8.0846,8.1504,8.1504,8.1387,8.1194,8.1194,8.0807,7.9956,7.9724,7.9028,7.7751,7.7099,7.5482,7.263,6.895,0.0,0.0,0.0,0.0,0.0,0.0,0.0,0.0,0.0,5.9801,6.0065,0.0,6.3803,0.0,6.7821,6.9669,7.0058,6.915,0.0,0.0,6.6217,6.5998,6.618,6.733,6.8015,6.78,6.8924,6.9788,6.9997,7.0066,7.0401,7.1154,7.0265,6.9913,7.0952,7.0727,7.07,7.1058,7.12,7.1365,7.1519,7.1659,7.1753,7.1987,7.1987,7.1987,7.1987,7.1987,7.1987,7.1987,7.1987,7.1987,7.1987,7.1987,7.187,7.148,7.1363,7.1363,7.1363,7.1363,7.1363,7.659,7.66,7.66,7.618,7.5474,7.597,7.6236,7.6418,7.6418,7.6488,7.6728,7.7073,7.729,7.7317,7.7471,7.737,7.7083,7.7898,7.8091,7.7805,7.842,7.8844,7.9037,7.9191,7.9467,7.9891,8.0461,8.0769,8.0807,8.1271,8.1271,8.0769,8.0769,7.9685,7.7674,7.8022,7.8525,7.8989,7.9801,8.0614,8.1465,8.1504,8.131,8.0962,8.0923,8.0343,7.9144,7.8718,7.793,7.6676,7.6419,7.5266,7.294,6.9796,6.7227,0.0,0.0,0.0,0.0,0.0,0.0,0.0,0.0,0.0,0.0,0.0,6.6624,6.714,6.9473,7.0667,6.9928,6.9422,6.8903,6.8358,6.8186,6.8296,6.8652,6.9476,6.9846,6.9395,7.0174,7.0776,7.0795,7.0831,7.1025,7.1529,7.0814,7.0601,7.1432,7.1288,7.1195,7.1663,7.1786,7.1871,7.1914,7.191,7.1975,7.1993,7.1987,7.1987,7.1987,7.1987,7.1987,7.1987,7.1987,7.1987,7.1987,7.1987,7.1987,7.1987,7.1987,7.1987,7.1987,7.1987,7.1987,7.6792,7.6852,7.6938,7.663,7.6173,7.7073,7.7407,7.7416,7.7416,7.7708,7.8154,7.8574,7.876,7.8798,7.8825,7.8651,7.8276,7.8795,7.8652,7.8056,7.8513,7.8935,7.9351,7.9652,8.023,8.0962,8.1335,8.1504,8.1504,8.1504,8.1465,8.1349,8.131,8.0575,7.9067,7.9028,7.9028,7.9028,7.9918,8.0691,8.131,8.1349,8.0923,8.0111,8.0034,7.9299,7.7751,7.6978,7.6111,7.5249,7.4653,7.4001,7.319,7.02,6.8135,0.0,6.3514,0.0,0.0,0.0,0.0,0.0,0.0,0.0,0.0,6.8455,6.9457,6.964,7.0797,7.1018,6.9784,6.9565,6.9745,7.0425,7.0421,7.0602,7.1299,7.1334,7.1291,7.1291,7.1291,7.1313,7.1355,7.1415,7.1455,7.1532,7.1529,7.1564,7.1753,7.1718,7.1638,7.1677,7.1768,7.1797,7.1869,7.1874,7.1914,7.1939,7.1975,7.1967,7.1971,7.1967,7.1997,7.1997,7.1993,7.1987,7.1987,7.1987,7.1987,7.1987,7.1987,7.1987,7.1987,7.1987,7.1987,7.8428,7.8479,7.8579,7.8553,7.8452,7.865,7.747,7.5395,7.5395,7.5855,7.6731,7.7303,7.7532,7.757,7.7903,7.7793,7.7452,7.8517,7.9067,7.9307,8.0061,8.0607,8.1038,8.1091,8.1234,8.1388,8.1478,8.1504,8.1504,8.1504,8.1155,8.0459,8.0459,7.9956,7.9067,0.0,0.0,0.0,8.0498,8.1001,8.0459,8.0459,8.0034,7.926,7.9221,0.0,7.7751,7.7519,7.673,7.5288,7.5178,0.0,0.0,0.0,0.0,0.0,0.0,0.0,0.0,0.0,0.0,0.0,6.7296,6.7647,6.865,6.9663,7.0797,7.204,7.1287,7.1047,7.2013,7.1415,7.1029,7.1165,7.1144,7.1141,7.1313,7.1291,7.1291,7.1291,7.1291,7.1291,7.1352,7.1394,7.1435,7.161,7.1571,7.1896,7.2591,7.2135,7.1684,7.1622,7.186,7.1807,7.1797,7.1885,7.1967,7.1858,7.1819,7.19,7.1903,7.1913,7.1912,7.1912,7.1975,7.1993,7.1993,7.1987,7.1993,7.1987,7.1993,7.1987,7.1987,7.1987,7.1987,7.876,0.0,7.8966,7.8804,0.0,7.8623,7.7651,7.6066,7.6684,7.73,7.8017,7.8519,7.8749,7.8711,7.8634,7.8369,7.7979,7.8515,7.8815,7.8943,7.9586,8.0006,8.0201,8.0423,8.0458,8.0423,8.0701,8.0931,8.1119,8.1186,8.1296,8.1465,8.1078,8.0846,8.0885,8.0885,8.0459,7.9608,8.0459,8.0846,8.0846,8.0846,8.0459,7.9608,7.9569,0.0,0.0,0.0,0.0,0.0,0.0,0.0,0.0,7.4266,0.0,7.2393,7.0343,6.9149,6.9149,6.837,6.8423,6.9628,7.0105,7.0562,7.1057,7.1446,7.2166,7.3346,7.2319,7.1723,7.2076,7.1726,7.1415,7.1415,7.1334,7.1291,7.1291,7.1291,7.1291,7.1291,7.1291,7.1446,7.1872,7.1971,7.2207,7.2636,7.3123,7.3568,7.3954,7.3407,7.2996,7.3424,7.3138,7.2977,7.2998,7.3025,7.3002,7.3068,7.3075,7.2885,7.2495,7.2475,7.2372,7.1981,7.1873,7.1914,7.1914,7.1914,7.1914,7.1914,7.1914,7.1913,7.1945,7.1967,7.1987,7.8549,7.8655,7.8812,7.8604,7.8162,7.822,7.7983,7.7635,0.0,0.0,0.0,7.9888,8.0085,8.0046,7.9552,7.9133,7.8773,7.8632,7.8523,7.8368,7.8727,7.8977,7.9102,7.9403,7.9538,7.9456,7.9969,8.0423,8.0734,8.1054,8.1726,8.2638,8.2238,8.2316,8.2973,8.3012,8.2316,8.0962,8.0885,8.1155,8.1697,8.1581,8.1078,8.0227,8.0072,7.926,7.7751,7.7713,7.7311,7.6566,7.6534,7.6361,7.5895,7.591,7.53,7.3985,7.2546,7.1846,7.2118,7.0795,7.044,7.1529,7.223,7.2694,7.2944,7.2863,7.3063,7.3801,7.3064,7.225,7.1552,7.1435,7.1355,7.1355,7.1313,7.1291,7.1291,7.1446,7.1562,7.1523,7.1717,7.2026,7.2723,7.2993,7.3286,7.4027,7.4826,7.5624,7.5682,7.4981,7.4472,7.4783,7.4295,7.4149,7.4236,7.4197,7.4311,7.4216,7.4273,7.4086,7.3509,7.3282,7.3023,7.2516,7.2249,7.2266,7.2104,7.2266,7.2182,7.2065,7.2182,7.2232,7.2144,7.2185,7.217,7.8495,7.8549,7.8655,7.8686,7.8625,7.8625,7.8588,7.8503,7.836,7.8322,7.8451,7.9029,7.9188,7.909,7.9123,7.8989,7.8741,7.879,7.8982,7.916,7.9207,7.9431,7.9727,7.9929,8.0007,8.0046,8.0531,8.0805,8.092,8.1947,8.2613,8.2779,8.3373,8.3786,8.3902,8.3902,8.3786,8.3554,8.3554,8.3244,8.2625,8.189,8.1078,8.0227,7.9569,7.8718,7.7751,7.7713,7.7311,7.6566,7.6488,7.6845,7.7562,7.7622,7.7485,7.7376,7.7071,7.6044,7.4023,7.3596,7.2957,7.1723,7.163,7.1979,7.2734,7.2793,7.2851,7.2889,7.2133,7.1531,7.1334,7.1313,7.1313,7.1352,7.133,7.1291,7.1407,7.1988,7.2413,7.2413,7.3071,7.3535,7.3767,7.4347,7.4834,7.515,7.5946,7.6609,7.6982,7.6263,7.5133,7.455,7.4278,7.4217,7.4405,7.4234,7.4382,7.4227,7.4374,7.435,7.4116,7.4119,7.401,7.3943,7.3805,7.3608,7.3068,7.3543,7.353,7.3101,7.3374,7.3654,7.3008,7.2865,7.2691,7.8386,7.8441,7.8602,7.8708,7.8708,7.8864,7.8915,7.8929,7.8715,7.8613,7.8504,7.8779,7.8864,7.8775,7.8529,7.8304,7.8204,7.7915,7.8097,7.8435,7.8473,7.8746,7.9133,7.9218,7.9218,7.9208,7.991,8.0363,8.0608,8.1652,8.2674,8.3625,8.4358,8.47,8.47,8.4727,8.4985,8.541,8.4559,8.3902,8.3515,8.3128,8.2509,8.162,8.1233,8.0653,7.9801,7.9763,7.9569,7.9207,7.923,7.9432,7.9929,7.995,7.9776,7.9427,7.8979,7.7951,7.6301,7.5275,7.4422,7.3627,7.2636,7.2267,7.2654,7.2287,7.223,7.2615,7.1859,7.1352,7.1291,7.1291,7.1485,7.1988,7.1988,7.2181,7.2645,7.3032,7.3303,7.338,7.4038,7.4734,7.5198,7.5972,7.6746,7.7179,7.7705,7.7965,7.7873,7.7273,7.6651,7.6298,7.591,7.5599,7.5521,7.556,7.556,7.556,7.556,7.5366,7.5055,7.4942,7.4778,7.435,7.4288,7.4131,7.3715,7.3976,7.4053,7.3937,7.3976,7.396,7.331,7.3087,7.2783,7.8276,7.8332,7.8495,7.8602,7.8602,7.8864,7.8929,7.8915,7.8966,7.8864,7.8655,7.876,7.876,7.8633,7.8254,7.8004,7.7879,7.7475,7.7502,7.7866,7.7904,7.8125,7.8458,7.8681,7.8702,7.8758,7.9647,8.0301,8.0655,8.1661,8.2998,8.4552,8.5081,8.5333,8.5496,8.5551,8.5887,8.6494,8.5333,8.4637,8.4637,8.4482,8.4057,8.3399,8.2973,8.2471,8.1852,8.1581,8.1504,8.1504,8.1504,8.1528,8.16,8.1669,8.1402,8.0785,8.0223,7.9369,7.8185,7.6514,7.5481,7.5481,7.4083,7.3148,7.3109,7.2418,7.213,7.2517,7.2242,7.1949,7.1988,7.1949,7.2142,7.28,7.2877,7.3109,7.3767,7.4193,7.4463,7.4541,7.5353,7.6281,7.6939,7.7713,7.8448,7.9028,7.9037,7.8524,7.7987,7.7757,7.7661,7.7544,7.7096,7.6648,7.6687,7.6648,7.6609,7.6687,7.6648,7.6337,7.591,7.5754,7.556,7.5033,7.4878,7.4778,7.4606,7.4722,7.4722,7.4622,7.4739,7.4616,7.3925,7.3542,7.3228,7.8313,7.8276,7.8406,7.8332,7.8424,7.8532,7.857,7.8515,7.8495,7.8495,7.8498,7.8864,7.8953,7.876,7.8752,7.8521,7.8292,7.8325,7.8325,7.8275,7.8275,7.8257,7.848,7.9186,7.9576,7.9742,8.0868,8.1445,8.152,8.2771,8.4091,8.5357,8.558,8.5857,8.6279,8.6346,8.644,8.661,8.6455,8.6377,8.6339,8.5604,8.514,8.5062,8.3592,8.278,8.2664,8.1929,8.1504,8.1504,8.1504,8.1528,8.16,8.1669,8.1652,8.1575,8.1561,8.0824,7.9093,7.7362,7.645,7.6333,7.5492,7.4889,7.485,7.4154,7.3342,7.3032,7.3342,7.3496,7.3651,7.3574,7.3574,7.3844,7.3844,7.3844,7.4231,7.5237,7.6165,7.6165,7.7481,7.868,7.8718,7.9299,7.984,7.9801,7.8766,7.796,7.7672,7.7211,7.6865,7.6846,7.6729,7.6726,7.6687,7.6687,7.6687,7.6687,7.6687,7.6609,7.6493,7.6493,7.6493,7.6104,7.6259,7.5988,7.5716,7.5871,7.6104,7.556,7.5716,7.6104,7.54,7.4655,7.4131,7.9688,7.9725,7.98,7.9856,7.9966,8.002,8.002,7.9966,8.002,7.9966,7.9966,8.0181,7.9605,7.8478,7.8549,7.8441,7.8313,7.8815,7.9038,7.9056,7.9465,7.9725,7.9762,8.0079,8.0284,8.0395,8.1381,8.1863,8.212,8.3445,8.4518,8.5079,8.5662,8.6082,8.6315,8.6472,8.6528,8.6556,8.6583,8.661,8.6571,8.6261,8.5836,8.5294,8.4637,8.4018,8.3554,8.2741,8.2277,8.2238,8.1774,8.1504,8.1553,8.16,8.1646,8.1646,8.1669,8.1359,8.0639,7.9409,7.8665,7.8665,7.7427,7.663,7.663,7.632,7.5972,7.5585,7.4618,7.3883,7.396,7.3883,7.427,7.5121,7.5392,7.574,7.6862,7.7481,7.7945,7.8022,7.895,7.9724,7.9763,7.9995,7.9995,7.9531,7.8433,7.7605,7.7063,7.6721,7.657,7.6591,7.6672,7.669,7.6669,7.6687,7.6687,7.6687,7.6687,7.6687,7.6687,7.6687,7.6687,7.6687,7.6687,7.6609,7.6298,7.6376,7.657,7.6221,7.5832,7.5988,7.6143,7.556,7.5244,8.0691,8.0691,8.0767,8.0917,8.0972,8.1027,8.1027,8.1027,8.1027,8.1027,8.0972,8.0972,8.0283,7.9112,7.9001,7.9001,7.9019,7.9576,7.9837,7.9874,8.0431,8.0691,8.0691,8.0951,8.1063,8.1174,8.1917,8.2326,8.2479,8.357,8.4379,8.458,8.5358,8.5843,8.6017,8.6315,8.6472,8.65,8.6583,8.661,8.661,8.661,8.63,8.572,8.541,8.5024,8.4443,8.3592,8.3012,8.278,8.22,8.1736,8.1504,8.1577,8.16,8.16,8.1577,8.1577,8.1577,8.0948,8.0575,8.042,7.9183,7.8409,7.837,7.8177,7.8061,7.7867,7.6359,7.543,7.5314,7.5276,7.5856,7.6939,7.7094,7.7674,7.8757,7.9144,7.9299,7.9415,7.9995,8.042,8.0227,7.9956,7.9531,7.8718,7.7867,7.7171,7.6552,7.6482,7.6505,7.6527,7.6612,7.6652,7.669,7.6669,7.6687,7.6687,7.6687,7.6687,7.6687,7.6687,7.6687,7.6687,7.6687,7.6687,7.657,7.6648,7.6687,7.6609,7.6298,7.6026,7.6493,7.6104,7.6143,8.0691,8.0728,8.0728,8.086,8.0785,8.0935,8.0898,8.0934,8.0935,8.0898,8.0897,8.086,8.0691,8.058,8.0693,8.0656,8.0542,8.058,8.0654,8.0654,8.0765,8.0728,8.0765,8.1508,8.1917,8.1991,8.266,8.3032,8.3069,8.326,8.3508,8.3937,8.458,8.5071,8.5551,8.6088,8.6414,8.65,8.6556,8.661,8.661,8.661,8.6571,8.6416,8.5759,8.5333,8.5178,8.4482,8.367,8.2857,8.2741,8.2355,8.1658,8.1553,8.16,8.16,8.1514,8.1504,8.1504,8.1387,8.1349,8.131,8.0498,8.0072,7.9956,7.9415,7.9067,7.895,7.8796,7.8602,7.8564,7.8254,7.8409,7.868,7.8834,7.8912,7.9067,7.9801,8.0111,8.0266,8.0769,8.0807,8.0227,7.9531,7.8757,7.7945,7.7055,7.6475,7.6436,7.6397,7.6421,7.6466,7.6531,7.6632,7.6691,7.669,7.6687,7.6687,7.6687,7.6687,7.6687,7.6687,7.6687,7.6687,7.6687,7.6687,7.6687,7.6687,7.6687,7.6648,7.6648,7.6648,7.6687,7.6687,7.6648,8.2288,8.2288,8.2288,8.2288,8.2288,8.2347,8.2347,8.2288,8.2347,8.2347,8.2288,8.2288,8.2288,8.2288,8.2347,8.1752,8.0802,8.1248,8.1508,8.1583,8.2028,8.2288,8.2326,8.2623,8.2734,8.2809,8.3069,8.318,8.3239,8.3508,8.3747,8.3975,8.4438,8.4942,8.5398,8.5734,8.6043,8.6414,8.6556,8.661,8.661,8.661,8.661,8.661,8.63,8.6145,8.6145,8.5333,8.4714,8.4405,8.3399,8.2664,8.2316,8.1838,8.1528,8.149,8.1001,8.0923,8.1349,8.1001,8.0923,8.1426,8.1233,8.1001,8.1001,8.0769,8.0575,8.0575,8.0575,8.0614,8.0382,7.9685,7.9221,7.9685,7.9763,7.9995,8.0498,8.0846,8.1039,8.1001,8.0923,8.0343,7.9531,7.868,7.8061,7.7674,7.6939,7.6475,7.6397,7.6397,7.6421,7.6444,7.6488,7.657,7.6632,7.6671,7.6687,7.6687,7.6687,7.6687,7.6687,7.6687,7.6687,7.6687,7.6687,7.6687,7.6687,7.6687,7.6687,7.6669,7.6669,7.6687,7.6687,7.6687,7.6687,8.318,8.318,8.318,8.318,8.318,8.318,8.318,8.318,8.318,8.318,8.318,8.318,8.318,8.318,8.318,8.2623,8.162,8.2103,8.2363,8.24,8.2957,8.318,8.318,8.318,8.318,8.318,8.318,8.318,8.3239,8.3508,8.3692,8.3692,8.4193,8.458,8.4904,8.5202,8.5587,8.6049,8.6238,8.6394,8.6544,8.661,8.661,8.661,8.661,8.661,8.6571,8.6029,8.5565,8.5178,8.4173,8.336,8.278,8.1968,8.1504,8.1426,8.0691,8.042,8.0923,8.0536,8.0459,8.1039,8.1349,8.1504,8.1504,8.1504,8.1504,8.1504,8.1504,8.1504,8.131,8.0459,8.0034,8.0536,8.0614,8.0846,8.1426,8.1504,8.1349,8.0923,8.0304,7.9531,7.8718,7.8099,7.7635,7.7326,7.6707,7.6397,7.6397,7.6397,7.6397,7.6397,7.6444,7.6527,7.6591,7.6633,7.6708,7.6708,7.6687,7.6687,7.6687,7.6687,7.6687,7.6687,7.6687,7.6687,7.6687,7.6687,7.6669,7.6708,7.6708,7.6687,7.6687,7.6669,7.6669,8.318,8.318,8.318,8.318,8.318,8.318,8.318,8.318,8.318,8.318,8.318,8.318,8.318,8.318,8.318,8.3106,8.2994,8.3032,8.3069,8.3069,8.3143,8.318,8.318,8.318,8.318,8.318,8.318,8.318,8.318,8.3239,8.3297,8.3318,8.3692,8.3975,8.3937,8.4551,8.5079,8.5475,8.5692,8.5966,8.6517,8.6517,8.6583,8.661,8.661,8.661,8.661,8.6571,8.6145,8.5488,8.5256,8.4482,8.2973,8.2045,8.1542,8.1387,8.0653,8.0227,8.0227,8.0111,7.9956,8.042,8.1001,8.1426,8.1504,8.1504,8.1465,8.1349,8.1387,8.1426,8.131,8.1078,8.1078,8.1465,8.1194,8.1233,8.1271,8.1426,8.1117,8.0227,7.9415,7.868,7.7983,7.7597,7.7248,7.6707,7.6475,7.6397,7.6397,7.6397,7.6397,7.6421,7.6444,7.6466,7.657,7.6612,7.6652,7.6708,7.6669,7.6687,7.6687,7.6687,7.6687,7.6687,7.6708,7.6708,7.6671,7.6671,7.6671,7.6671,7.669,7.669,7.6671,7.6671,7.669,8.318,8.318,8.318,8.318,8.318,8.318,8.318,8.318,8.318,8.318,8.318,8.318,8.318,8.318,8.318,8.318,8.318,8.318,8.318,8.318,8.318,8.318,8.318,8.318,8.318,8.318,8.318,8.318,8.318,8.318,8.318,8.3239,8.3318,8.3583,8.387,8.4155,8.4513,8.4995,8.5204,8.5549,8.5934,8.6107,8.6307,8.6583,8.661,8.661,8.661,8.661,8.6494,8.6184,8.5604,8.4521,8.3128,8.2548,8.2122,8.1426,8.015,7.9685,7.9995,7.9183,7.9067,7.9918,8.0459,8.0923,8.1426,8.1465,8.1194,8.073,8.0614,8.042,7.9918,7.9801,8.0034,8.0575,8.0614,8.0382,7.9995,7.984,7.9376,7.8641,7.8254,7.7713,7.7055,7.6823,7.6746,7.6514,7.6397,7.6397,7.6436,7.6475,7.6397,7.6397,7.6421,7.6676,7.6914,7.7074,7.7077,7.6982,7.6904,7.669,7.6651,7.6669,7.6669,7.6708,7.669,7.6671,7.6652,7.6633,7.6633,7.6652,7.6614,7.6614,7.6652,7.6614,7.6633,8.318,8.318,8.318,8.318,8.318,8.318,8.318,8.318,8.318,8.318,8.318,8.318,8.318,8.318,8.318,8.318,8.318,8.318,8.318,8.318,8.318,8.318,8.318,8.318,8.318,8.318,8.318,8.318,8.318,8.318,8.318,8.318,8.318,8.3318,8.3638,8.3672,8.3951,8.4458,8.4689,8.4999,8.5436,8.5804,8.6114,8.6336,8.6517,8.661,8.661,8.661,8.661,8.6455,8.5759,8.4792,8.3786,8.3167,8.2548,8.1774,8.0266,7.926,7.9531,7.8525,7.8061,7.9105,7.9569,7.9956,8.0459,8.0575,8.0266,7.9879,7.9763,7.9531,7.9144,7.9028,7.9144,7.9221,7.9569,7.9492,7.9028,7.868,7.837,7.7829,7.7442,7.6978,7.6591,7.6397,7.6397,7.6397,7.6397,7.663,7.6746,7.69,7.6978,7.7171,7.7558,7.7659,7.7527,7.7511,7.7556,7.7366,7.7157,7.6827,7.6652,7.6652,7.6652,7.6652,7.6672,7.6633,7.6594,7.6594,7.6632,7.6612,7.6591,7.6591,7.6573,7.6612,7.6594,8.318,8.318,8.318,8.318,8.318,8.318,8.318,8.318,8.318,8.318,8.318,8.318,8.318,8.318,8.318,8.318,8.318,8.318,8.318,8.318,8.318,8.318,8.318,8.318,8.318,8.318,8.318,8.318,8.318,8.318,8.318,8.318,8.318,8.318,8.326,8.3239,8.3471,8.39,8.4193,8.4542,8.5037,8.5662,8.5945,8.6049,8.6404,8.661,8.661,8.661,8.661,8.6494,8.5875,8.5372,8.4985,8.3786,8.3089,8.278,8.0459,7.9376,7.895,7.8099,7.7674,7.7945,7.8564,7.8989,7.9183,7.9337,7.9221,7.895,7.8912,7.8873,7.8757,7.8641,7.837,7.7906,7.8293,7.8602,7.8757,7.8061,7.7597,7.7442,7.69,7.6397,7.6436,7.6475,7.6552,7.6591,7.6707,7.7171,7.7558,7.7867,7.8177,7.837,7.8486,7.8409,7.8201,7.8224,7.8208,7.8076,7.7849,7.7581,7.7136,7.7059,7.671,7.6651,7.669,7.6651,7.6591,7.657,7.6531,7.651,7.651,7.651,7.6531,7.6531,7.6531,8.318,8.318,8.318,8.318,8.318,8.318,8.318,8.318,8.318,8.318,8.318,8.318,8.318,8.318,8.318,8.318,8.318,8.318,8.318,8.318,8.318,8.318,8.318,8.318,8.318,8.318,8.318,8.318,8.318,8.318,8.318,8.318,8.318,8.318,8.318,8.318,8.3297,8.3395,8.3675,8.4027,8.4542,8.5121,8.5662,8.6017,8.6366,8.6583,8.661,8.661,8.661,8.661,8.6416,8.5913,8.5372,8.4792,8.4289,8.3438,8.1465,7.9918,7.9531,7.7983,7.7171,7.7635,7.7906,7.8293,7.895,7.8989,7.868,7.8254,7.8022,7.779,7.7287,7.7171,7.6978,7.6823,7.7132,7.7287,7.7171,7.69,7.6746,7.6707,7.6552,7.6514,7.6668,7.7016,7.7326,7.7442,7.779,7.8254,7.8525,7.868,7.8873,7.8834,7.8912,7.895,7.8912,7.8936,7.8897,7.882,7.8727,7.8696,7.8275,7.8008,7.7328,7.6764,7.682,7.682,7.6582,7.6444,7.6421,7.6444,7.6444,7.6466,7.6444,7.6444,7.6444,8.318,8.318,8.318,8.318,8.318,8.318,8.318,8.318,8.318,8.318,8.318,8.318,8.318,8.318,8.318,8.318,8.318,8.318,8.318,8.318,8.318,8.318,8.318,8.318,8.318,8.318,8.318,8.318,8.318,8.318,8.318,8.318,8.318,8.318,8.318,8.318,8.318,8.3239,8.3413,8.3675,8.4027,8.4635,8.52,8.5698,8.6114,8.6394,8.6583,8.661,8.661,8.661,8.6571,8.6377,8.5913,8.5449,8.5101,8.4521,8.2509,8.1194,8.0459,7.8718,7.7635,7.7597,7.7442,7.7403,7.7751,7.7906,7.7597,7.7248,7.7171,7.69,7.6552,7.6397,7.6397,7.6475,7.6707,7.6784,7.6475,7.6436,7.6591,7.6784,7.6939,7.7132,7.7365,7.7945,7.8138,7.8293,7.8564,7.9028,7.9376,7.9453,7.9608,7.9724,7.9879,8.0034,8.0111,8.0111,8.0034,7.9879,7.9763,7.9734,7.9215,7.8834,7.827,7.7589,7.7279,7.6985,7.6962,7.6746,7.6397,7.6421,7.6397,7.6397,7.6397,7.6397,7.6397,8.318,8.318,8.318,8.318,8.318,8.318,8.318,8.318,8.318,8.318,8.318,8.318,8.318,8.318,8.318,8.318,8.318,8.318,8.318,8.318,8.318,8.318,8.318,8.318,8.318,8.318,8.318,8.318,8.318,8.318,8.318,8.318,8.318,8.318,8.318,8.318,8.318,8.3239,8.3489,8.3602,8.3838,8.4379,8.4904,8.524,8.5843,8.6246,8.6489,8.661,8.661,8.661,8.661,8.6571,8.6455,8.5797,8.5526,8.5178,8.3824,8.2509,8.1736,8.0266,7.8873,7.8254,7.7481,7.6746,7.7132,7.7248,7.7132,7.6862,7.663,7.6939,7.6939,7.6784,7.69,7.7055,7.7481,7.7365,7.69,7.6668,7.6978,7.7674,7.7829,7.8216,7.8718,7.9067,7.9144,7.9144,7.9453,7.9956,8.0266,8.0343,8.0614,8.0962,8.1117,8.131,8.1349,8.1349,8.1233,8.1117,8.0962,8.073,7.9942,7.954,7.9207,7.8718,7.8162,7.7852,7.7829,7.7442,7.6939,7.6668,7.6862,7.6668,7.6436,7.6397,7.6397,8.318,8.318,8.318,8.318,8.318,8.318,8.318,8.318,8.318,8.318,8.318,8.318,8.318,8.318,8.318,8.318,8.318,8.318,8.318,8.318,8.318,8.318,8.318,8.318,8.318,8.318,8.318,8.318,8.318,8.318,8.318,8.318,8.318,8.318,8.318,8.318,8.318,8.3297,8.3638,8.3747,8.3784,8.4341,8.4772,8.4942,8.5589,8.6177,8.6489,8.661,8.661,8.661,8.661,8.661,8.6532,8.6377,8.6261,8.5913,8.4792,8.3747,8.3283,8.1929,8.0575,7.9763,7.9299,7.9105,7.8486,7.8332,7.8061,7.7751,7.8022,7.8216,7.8216,7.837,7.8254,7.8293,7.8486,7.8641,7.8486,7.837,7.8409,7.8641,7.8718,7.8796,7.9028,7.9724,7.9879,7.9995,8.0382,8.0923,8.1078,8.1117,8.1271,8.1504,8.1504,8.1504,8.1504,8.1504,8.1504,8.1504,8.1504,8.1504,8.0691,8.0266,7.9956,7.9453,7.8873,7.8718,7.868,7.8486,7.8061,7.7751,7.7365,7.7132,7.69,7.6668,7.6397,8.318,8.318,8.318,8.318,8.318,8.318,8.318,8.318,8.318,8.318,8.318,8.318,8.318,8.318,8.318,8.318,8.318,8.318,8.318,8.318,8.318,8.318,8.318,8.318,8.318,8.318,8.318,8.318,8.318,8.318,8.318,8.318,8.318,8.318,8.318,8.318,8.318,8.3239,8.3508,8.3692,8.3922,8.4129,8.458,8.481,8.5514,8.6114,8.6277,8.6517,8.6583,8.661,8.661,8.661,8.661,8.661,8.661,8.6416,8.5913,8.5024,8.4443,8.3476,8.2355,8.1465,8.073,8.0072,7.9531,7.926,7.8834,7.8525,7.868,7.8989,7.9028,7.8989,7.9028,7.9105,7.9376,7.9531,7.9492,7.926,7.9183,7.9415,7.9569,7.984,8.0188,8.0459,8.0653,8.0807,8.0807,8.131,8.131,8.1349,8.1387,8.1504,8.1504,8.1504,8.1504,8.1504,8.1504,8.1504,8.1504,8.1504,8.1194,8.0923,8.073,8.0227,7.9801,7.9569,7.9492,7.9299,7.9067,7.8602,7.8138,7.7751,7.7442,7.7248,7.6823,8.318,8.318,8.318,8.318,8.318,8.318,8.318,8.318,8.318,8.318,8.318,8.318,8.318,8.318,8.318,8.318,8.318,8.318,8.318,8.318,8.318,8.318,8.318,8.318,8.318,8.318,8.318,8.318,8.318,8.318,8.318,8.318,8.318,8.318,8.318,8.318,8.318,8.3239,8.3376,8.3564,8.3817,8.3801,8.4078,8.4627,8.532,8.5877,8.6082,8.6366,8.661,8.661,8.661,8.661,8.661,8.661,8.661,8.661,8.6416,8.6107,8.5565,8.483,8.4095,8.3206,8.2006,8.1117,8.0846,8.0343,7.9879,7.9492,7.9492,7.9415,7.9376,7.9608,7.9569,7.9608,8.0072,8.0343,8.0266,7.9763,7.9918,8.0227,8.042,8.0614,8.0962,8.1271,8.1426,8.1504,8.1504,8.1504,8.1504,8.1504,8.1504,8.1504,8.1504,8.1504,8.1504,8.1504,8.1504,8.1504,8.1504,8.1504,8.1504,8.1349,8.1117,8.1155,8.0846,8.0536,8.0304,8.0188,7.984,7.9376,7.9028,7.8718,7.8332,7.7829,7.7326,8.318,8.318,8.318,8.318,8.318,8.318,8.318,8.318,8.318,8.318,8.318,8.318,8.318,8.318,8.318,8.318,8.318,8.318,8.318,8.318,8.318,8.318,8.318,8.318,8.318,8.318,8.318,8.318,8.318,8.318,8.318,8.318,8.318,8.318,8.318,8.318,8.318,8.3239,8.3452,8.3638,8.3675,8.3801,8.3922,8.439,8.4953,8.5475,8.5945,8.6336,8.661,8.661,8.661,8.661,8.661,8.661,8.661,8.661,8.661,8.6455,8.6223,8.6184,8.5681,8.5062,8.4289,8.3863,8.3322,8.2548,8.162,8.0962,8.0498,8.0304,8.1039,8.0846,8.1001,8.1078,8.1039,8.1194,8.1155,8.1039,8.0885,8.1078,8.1194,8.1233,8.1387,8.1504,8.1504,8.1504,8.1504,8.1504,8.1504,8.1504,8.1504,8.1504,8.1504,8.1504,8.1504,8.1504,8.1504,8.1504,8.1504,8.1504,8.1504,8.1504,8.1465,8.1387,8.1387,8.1194,8.1039,8.0923,8.0614,8.015,7.9918,7.9724,7.9144,7.8564,7.8061,8.318,8.318,8.318,8.318,8.318,8.318,8.318,8.318,8.318,8.318,8.318,8.318,8.318,8.318,8.318,8.318,8.318,8.318,8.318,8.318,8.318,8.318,8.318,8.318,8.318,8.318,8.318,8.318,8.318,8.318,8.318,8.318,8.318,8.318,8.318,8.318,8.318,8.3297,8.3433,8.3583,8.3675,8.387,8.4027,8.4078,8.4495,8.5033,8.5513,8.6049,8.6404,8.6517,8.661,8.661,8.661,8.661,8.661,8.661,8.661,8.661,8.661,8.661,8.6339,8.6029,8.5604,8.5178,8.4637,8.3863,8.3128,8.2355,8.1929,8.1504,8.1465,8.1542,8.1504,8.1504,8.1504,8.1504,8.1504,8.1504,8.1504,8.1504,8.1426,8.1387,8.1426,8.1504,8.1504,8.1504,8.1504,8.1504,8.1504,8.1504,8.1504,8.1504,8.1504,8.1504,8.1504,8.1504,8.1504,8.1504,8.1504,8.1504,8.1504,8.1504,8.1504,8.1504,8.1504,8.1504,8.1465,8.1233,8.1078,8.0962,8.0807,8.0498,7.9879,7.9299,7.8796,8.318,8.318,8.318,8.318,8.318,8.318,8.318,8.318,8.318,8.318,8.318,8.318,8.318,8.318,8.318,8.318,8.318,8.318,8.318,8.318,8.318,8.318,8.318,8.318,8.318,8.318,8.318,8.318,8.318,8.318,8.318,8.318,8.318,8.318,8.318,8.318,8.318,8.318,8.318,8.3395,8.3692,8.3817,8.3854,8.362,8.4078,8.4589,8.4953,8.5624,8.6043,8.6298,8.6517,8.661,8.661,8.661,8.661,8.661,8.661,8.661,8.661,8.661,8.6571,8.6455,8.5952,8.5643,8.5372,8.4792,8.3979,8.3283,8.3012,8.2625,8.2045,8.1813,8.1697,8.1504,8.1504,8.1504,8.1504,8.1504,8.1504,8.1504,8.1504,8.1504,8.1504,8.1504,8.1504,8.1504,8.1504,8.1504,8.1504,8.1504,8.1504,8.1504,8.1504,8.1504,8.1504,8.1504,8.1504,8.1504,8.1504,8.1504,8.1504,8.1504,8.1504,8.1504,8.1504,8.1504,8.1504,8.1504,8.1349,8.131,8.1465,8.1233,8.0653,8.0111,7.9608,8.318,8.318,8.318,8.318,8.318,8.318,8.318,8.318,8.318,8.318,8.318,8.318,8.318,8.318,8.318,8.318,8.318,8.318,8.318,8.318,8.318,8.318,8.318,8.318,8.318,8.318,8.318,8.318,8.318,8.318,8.318,8.318,8.318,8.318,8.318,8.318,8.318,8.318,8.318,8.3239,8.3355,8.3376,8.3376,8.3508,8.3817,8.4167,8.4505,8.5164,8.5692,8.5901,8.6327,8.6583,8.661,8.661,8.661,8.661,8.661,8.661,8.661,8.661,8.661,8.661,8.6416,8.6455,8.6145,8.5604,8.483,8.4057,8.394,8.3554,8.2857,8.2664,8.2238,8.189,8.1697,8.162,8.1542,8.1504,8.1504,8.1504,8.1504,8.1504,8.1504,8.1504,8.1504,8.1504,8.1504,8.1504,8.1504,8.1504,8.1504,8.1504,8.1504,8.1504,8.1504,8.1504,8.1504,8.1504,8.1504,8.1504,8.1504,8.1504,8.1504,8.1504,8.1504,8.1504,8.1504,8.1504,8.1504,8.1504,8.1504,8.1504,8.1426,8.0923,8.0343,8.318,8.318,8.318,8.318,8.318,8.318,8.318,8.318,8.318,8.318,8.318,8.318,8.318,8.318,8.318,8.318,8.318,8.318,8.318,8.318,8.318,8.318,8.318,8.318,8.318,8.318,8.318,8.318,8.318,8.318,8.318,8.318,8.318,8.318,8.318,8.318,8.318,8.318,8.318,8.318,8.318,8.318,8.3276,8.3297,8.3527,8.3779,8.4167,8.4551,8.5204,8.5512,8.5973,8.6208,8.6404,8.6472,8.65,8.6556,8.6556,8.6556,8.661,8.661,8.661,8.661,8.661,8.6571,8.6532,8.6261,8.5643,8.4869,8.4792,8.4366,8.3747,8.3554,8.3012,8.2548,8.2213,8.1852,8.1697,8.1542,8.1504,8.1504,8.1504,8.1504,8.1504,8.1504,8.1504,8.1504,8.1504,8.1504,8.1504,8.1504,8.1504,8.1504,8.1504,8.1504,8.1504,8.1504,8.1504,8.1504,8.1504,8.1504,8.1504,8.1504,8.1504,8.1504,8.1504,8.1504,8.1504,8.1504,8.1504,8.1504,8.1504,8.1504,8.1504,8.1465,8.0885,8.318,8.318,8.318,8.318,8.318,8.318,8.318,8.318,8.318,8.318,8.318,8.318,8.318,8.318,8.318,8.318,8.318,8.318,8.318,8.318,8.318,8.318,8.318,8.318,8.318,8.318,8.318,8.318,8.318,8.318,8.318,8.318,8.318,8.318,8.318,8.318,8.318,8.318,8.318,8.318,8.318,8.318,8.318,8.3239,8.3318,8.3508,8.3779,8.4155,8.4651,8.4999,8.5361,8.5624,8.5877,8.6049,8.6146,8.6246,8.6307,8.6307,8.6296,8.6351,8.6571,8.661,8.661,8.661,8.6583,8.6544,8.6428,8.5628,8.5589,8.5164,8.4584,8.4352,8.3888,8.3424,8.3038,8.2484,8.202,8.1865,8.1633,8.1504,8.1504,8.1504,8.1504,8.1504,8.1504,8.1504,8.1504,8.1504,8.1504,8.1504,8.1504,8.1504,8.1504,8.1504,8.1504,8.1504,8.1504,8.1504,8.1504,8.1504,8.1504,8.1504,8.1504,8.1504,8.1504,8.1504,8.1504,8.1504,8.1504,8.1504,8.1504,8.1504,8.1504,8.1504,8.1426,8.318,8.318,8.318,8.318,8.318,8.318,8.318,8.318,8.318,8.318,8.318,8.318,8.318,8.318,8.318,8.318,8.318,8.318,8.318,8.318,8.318,8.318,8.318,8.318,8.318,8.318,8.318,8.318,8.318,8.318,8.318,8.318,8.318,8.318,8.318,8.318,8.318,8.318,8.318,8.318,8.318,8.318,8.318,8.318,8.318,8.3239,8.326,8.3726,8.4067,8.4325,8.4696,8.4999,8.5242,8.5475,8.5624,8.5839,8.5928,8.5822,8.5612,8.6114,8.6544,8.661,8.6583,8.6556,8.6528,8.6583,8.6412,8.625,8.6124,8.5854,8.5323,8.4986,8.4695,8.3884,8.3371,8.283,8.2432,8.2212,8.1968,8.1633,8.1504,8.1478,8.1504,8.1504,8.1504,8.1504,8.1504,8.1504,8.1504,8.1504,8.1504,8.1504,8.1504,8.1504,8.1504,8.1504,8.1504,8.1504,8.1504,8.1504,8.1504,8.1504,8.1504,8.1504,8.1504,8.1504,8.1504,8.1504,8.1504,8.1504,8.1504,8.1504,8.1504,8.1504,8.1504,8.318,8.318,8.318,8.318,8.318,8.318,8.318,8.318,8.318,8.318,8.318,8.318,8.318,8.318,8.318,8.318,8.318,8.318,8.318,8.318,8.318,8.318,8.318,8.318,8.318,8.318,8.318,8.318,8.318,8.318,8.318,8.318,8.318,8.318,8.318,8.318,8.318,8.318,8.318,8.318,8.318,8.318,8.318,8.318,8.318,8.318,8.3239,8.3395,8.3655,8.39,8.4205,8.441,8.4643,8.491,8.5162,8.5322,8.5315,8.4921,8.4939,8.5668,8.6433,8.6472,8.6472,8.6472,8.6404,8.6472,8.6443,8.6414,8.6414,8.6143,8.6037,8.5805,8.5487,8.4368,8.3596,8.3094,8.2659,8.235,8.203,8.1581,8.1453,8.1453,8.1478,8.1504,8.1504,8.1504,8.1504,8.1504,8.1504,8.1504,8.1504,8.1504,8.1504,8.1504,8.1504,8.1504,8.1504,8.1504,8.1504,8.1504,8.1504,8.1504,8.1504,8.1504,8.1504,8.1504,8.1504,8.1504,8.1504,8.1504,8.1504,8.1504,8.1504,8.1504,8.1504,8.3061,8.3061,8.3061,8.3121,8.318,8.318,8.318,8.318,8.318,8.318,8.318,8.318,8.318,8.318,8.318,8.318,8.318,8.318,8.318,8.318,8.318,8.318,8.318,8.318,8.318,8.318,8.318,8.318,8.318,8.318,8.318,8.318,8.318,8.318,8.318,8.318,8.318,8.318,8.318,8.318,8.318,8.318,8.318,8.318,8.318,8.318,8.318,8.326,8.3338,8.3527,8.3709,8.387,8.418,8.439,8.4635,8.4643,8.4437,8.3944,8.4097,8.4613,8.5568,8.5805,8.5921,8.6075,8.6277,8.6354,8.6384,8.6293,8.6323,8.6315,8.6285,8.5907,8.5514,8.4434,8.3826,8.3286,8.2574,8.214,8.1782,8.1424,8.1412,8.14,8.1453,8.1478,8.1504,8.1504,8.1504,8.1504,8.1504,8.1504,8.1504,8.1504,8.1504,8.1504,8.1504,8.1504,8.1504,8.1504,8.1504,8.1504,8.1504,8.1504,8.1504,8.1504,8.1504,8.1504,8.1504,8.1504,8.1504,8.1504,8.1504,8.1504,8.1504,8.1504,8.1504,8.2696,8.2696,8.2696,8.288,8.3121,8.318,8.318,8.3121,8.3121,8.3121,8.3121,8.318,8.318,8.318,8.3121,8.3121,8.3121,8.3121,8.318,8.3121,8.318,8.318,8.318,8.318,8.318,8.318,8.318,8.318,8.318,8.318,8.318,8.318,8.318,8.318,8.318,8.318,8.318,8.318,8.318,8.318,8.318,8.318,8.318,8.318,8.318,8.318,8.318,8.318,8.326,8.3318,8.3318,8.3433,8.3452,8.3801,8.4027,8.4016,8.3587,8.3013,8.2418,8.2913,8.3696,8.4797,8.5051,8.5282,8.5907,8.6208,8.6169,8.5921,8.5998,8.6037,8.5851,8.5434,8.4927,8.4342,8.3657,8.3079,8.2293,8.186,8.1504,8.134,8.133,8.1319,8.14,8.1453,8.1478,8.1504,8.1504,8.1504,8.1504,8.1504,8.1504,8.1504,8.1504,8.1504,8.1504,8.1504,8.1504,8.1504,8.1504,8.1504,8.1504,8.1504,8.1504,8.1504,8.1504,8.1504,8.1504,8.1504,8.1504,8.1504,8.1504,8.1504,8.1504,8.1504,8.1504,8.2696,8.2696,8.2696,8.2758,8.288,8.288,8.288,8.2917,8.288,8.288,8.288,8.2904,8.2941,8.2941,8.3001,8.3001,8.288,8.2964,8.3024,8.3024,8.3121,8.318,8.318,8.318,8.318,8.318,8.318,8.318,8.318,8.318,8.318,8.318,8.318,8.318,8.318,8.318,8.318,8.318,8.318,8.318,8.318,8.318,8.318,8.318,8.318,8.318,8.318,8.318,8.318,8.318,8.318,8.318,8.318,8.3452,8.3583,8.3426,8.2937,8.1585,8.0772,8.079,8.1609,8.309,8.408,8.4196,8.4504,8.512,8.5241,8.5318,8.5318,8.5318,8.517,8.4478,8.3894,8.3163,8.2586,8.224,8.1693,8.1501,8.127,8.1253,8.1244,8.1291,8.1347,8.14,8.1453,8.1478,8.1478,8.1504,8.1504,8.1504,8.1504,8.1504,8.1504,8.1504,8.1504,8.1504,8.1504,8.1504,8.1504,8.1504,8.1504,8.1504,8.1504,8.1504,8.1504,8.1504,8.1504,8.1504,8.1504,8.1504,8.1504,8.1504,8.1504,8.1504,8.1504,8.2508,8.2508,8.2508,8.2508,8.2508,8.2633,8.2696,8.2696,8.2696,8.2696,8.2696,8.2819,8.2819,8.2758,8.2721,8.2819,8.2696,8.2782,8.2843,8.2843,8.3001,8.3061,8.3121,8.318,8.318,8.318,8.318,8.318,8.318,8.318,8.318,8.318,8.318,8.318,8.318,8.318,8.318,8.318,8.318,8.318,8.318,8.318,8.318,8.318,8.318,8.318,8.318,8.318,8.318,8.318,8.318,8.318,8.318,8.3239,8.3227,8.2872,8.1709,8.043,7.966,7.9406,8.0428,8.1805,8.2521,8.3043,8.3346,8.4105,8.4362,8.4439,8.4439,8.4439,8.4324,8.3632,8.2978,8.2285,8.19,8.1554,8.14,8.1208,8.117,8.1154,8.1184,8.1234,8.1319,8.1374,8.1427,8.1453,8.1478,8.1478,8.1504,8.1504,8.1504,8.1504,8.1504,8.1504,8.1504,8.1504,8.1504,8.1504,8.1504,8.1504,8.1504,8.1504,8.1504,8.1504,8.1504,8.1504,8.1504,8.1504,8.1504,8.1504,8.1504,8.1504,8.1504,8.1504,8.1504,8.2186,8.2186,8.2186,8.2186,8.2251,8.2508,8.2633,8.2633,8.2633,8.2633,8.2633,8.2633,8.2633,8.2633,8.2696,8.2633,8.2633,8.2633,8.2696,8.2758,8.2843,8.2904,8.3024,8.3121,8.318,8.318,8.318,8.318,8.318,8.318,8.318,8.318,8.318,8.318,8.318,8.318,8.318,8.318,8.318,8.318,8.318,8.318,8.318,8.318,8.318,8.318,8.318,8.318,8.318,8.318,8.318,8.318,8.318,8.318,8.2697,8.1826,8.0413,7.9679,7.9078,7.8891,7.909,8.0195,8.0918,8.1804,8.2492,8.2943,8.3312,8.3451,8.349,8.3522,8.3439,8.2862,8.2285,8.1862,8.1516,8.1285,8.117,8.1093,8.1093,8.1124,8.1124,8.1154,8.1205,8.1291,8.1385,8.1427,8.1453,8.1478,8.1478,8.1504,8.1504,8.1504,8.1504,8.1504,8.1504,8.1504,8.1504,8.1504,8.1504,8.1504,8.1504,8.1504,8.1504,8.1504,8.1504,8.1504,8.1504,8.1504,8.1504,8.1504,8.1504,8.1504,8.1504,8.1504,8.1504,8.2186,8.2186,8.2186,8.2186,8.2186,8.2316,8.2316,8.2316,8.2316,8.2316,8.2316,8.2444,8.2444,8.238,8.2444,8.2444,8.2444,8.2444,8.2508,8.2597,8.2721,8.2843,8.2964,8.3061,8.318,8.318,8.318,8.318,8.318,8.318,8.318,8.318,8.318,8.318,8.318,8.318,8.318,8.318,8.318,8.318,8.318,8.318,8.318,8.318,8.318,8.318,8.318,8.318,8.318,8.318,8.318,8.318,8.318,8.3106,8.2697,8.1137,8.0116,7.9242,7.8644,7.8512,7.8581,7.8854,7.951,7.9879,8.068,8.1499,8.2145,8.2256,8.2467,8.2573,8.249,8.2061,8.1676,8.1477,8.1246,8.117,8.1093,8.1093,8.1093,8.1093,8.1093,8.1124,8.1146,8.1244,8.133,8.1385,8.1427,8.1453,8.1478,8.1478,8.1504,8.1504,8.1504,8.1504,8.1504,8.1504,8.1504,8.1504,8.1504,8.1504,8.1504,8.1504,8.1504,8.1504,8.1504,8.1504,8.1504,8.1504,8.1504,8.1504,8.1504,8.1504,8.1504,8.1504,8.1504,8.2186,8.2186,8.2186,8.2186,8.2186,8.2186,8.2186,8.2186,8.2186,8.2186,8.2186,8.2316,8.2316,8.2251,8.2316,8.2316,8.2251,8.2316,8.2316,8.2444,8.2597,8.2659,8.2782,8.2964,8.3024,8.3121,8.318,8.318,8.318,8.318,8.318,8.318,8.318,8.318,8.318,8.318,8.318,8.318,8.318,8.318,8.318,8.318,8.318,8.318,8.318,8.318,8.318,8.318,8.318,8.318,8.318,8.2994,8.2623,8.214,8.1843,8.0431,7.9539,7.8871,7.8406,7.8332,7.8332,7.8386,7.8565,7.8878,7.9444,8.0195,8.0646,8.0924,8.1267,8.1512,8.1392,8.1305,8.1215,8.1093,8.1093,8.1093,8.1093,8.1093,8.1093,8.1093,8.1093,8.1124,8.1154,8.1184,8.1214,8.1263,8.1347,8.1374,8.1427,8.1478,8.1478,8.1504,8.1504,8.1504,8.1504,8.1504,8.1504,8.1504,8.1504,8.1504,8.1504,8.1504,8.1504,8.1504,8.1504,8.1504,8.1504,8.1504,8.1504,8.1504,8.1504,8.1465,8.1504,8.1504,8.1504,8.2186,8.2186,8.2186,8.2186,8.2186,8.2186,8.2186,8.2186,8.2186,8.2186,8.2186,8.2186,8.2186,8.2186,8.2251,8.2251,8.2186,8.2251,8.2251,8.2186,8.2407,8.2471,8.2597,8.2684,8.2904,8.2964,8.3024,8.3121,8.318,8.318,8.318,8.318,8.318,8.318,8.318,8.318,8.318,8.318,8.318,8.318,8.318,8.318,8.318,8.318,8.318,8.318,8.318,8.318,8.318,8.318,8.3106,8.2809,8.2103,8.1137,8.0728,8.0134,7.9391,7.8759,7.8388,7.8313,7.8276,7.8276,7.8276,7.8441,7.8864,7.9406,7.9841,8.006,8.0466,8.0809,8.0838,8.108,8.11,8.1093,8.1093,8.1093,8.1093,8.1093,8.1093,8.1093,8.1093,8.1124,8.1124,8.1154,8.1184,8.1205,8.1234,8.1319,8.1374,8.1427,8.1478,8.1478,8.1504,8.1504,8.1504,8.1504,8.1504,8.1504,8.1504,8.1504,8.1504,8.1504,8.1504,8.1504,8.1504,8.1504,8.1504,8.1504,8.1504,8.1504,8.1504,8.1465,8.1426,8.1349,8.1194,8.2186,8.2186,8.2186,8.2186,8.2186,8.2186,8.2186,8.2186,8.2186,8.2186,8.2186,8.2186,8.2186,8.2186,8.2186,8.2186,8.2186,8.2186,8.2186,8.2251,8.2343,8.2343,8.2407,8.2597,8.2782,8.2904,8.2964,8.3061,8.3121,8.318,8.318,8.318,8.318,8.318,8.318,8.318,8.318,8.318,8.318,8.318,8.318,8.318,8.318,8.318,8.318,8.318,8.318,8.318,8.318,8.318,8.318,8.3069,8.2846,8.1843,8.1137,8.0617,7.9651,7.8871,7.8425,7.8276,7.8276,7.8276,7.8276,7.8276,7.8512,7.8904,7.9208,7.9441,7.9708,8.0083,8.0428,8.0754,8.1061,8.1061,8.1093,8.1093,8.1093,8.1093,8.1093,8.1093,8.1093,8.1093,8.1093,8.1124,8.1154,8.1184,8.1214,8.1273,8.1291,8.1347,8.14,8.1427,8.1478,8.1504,8.1504,8.1504,8.1504,8.1504,8.1504,8.1504,8.1504,8.1504,8.1504,8.1504,8.1504,8.1504,8.1504,8.1504,8.1504,8.1504,8.1465,8.1426,8.0962,8.0769,8.0614,8.2186,8.2186,8.2186,8.2186,8.2186,8.2186,8.2186,8.2186,8.2186,8.2186,8.2186,8.2186,8.2186,8.2186,8.2186,8.2186,8.2186,8.2186,8.2186,8.2251,8.2251,8.2279,8.238,8.2508,8.2534,8.2659,8.2843,8.2964,8.3084,8.318,8.318,8.318,8.318,8.318,8.318,8.318,8.318,8.318,8.318,8.318,8.318,8.318,8.318,8.318,8.318,8.318,8.318,8.318,8.318,8.2846,8.2474,8.2734,8.2251,8.1063,8.0542,8.0245,7.9651,7.8759,7.8425,7.8276,7.8276,7.8276,7.8276,7.8276,7.8276,7.8686,7.8686,7.8854,7.9208,7.9621,7.9836,8.0123,8.054,8.072,8.0926,8.1093,8.1093,8.1093,8.1093,8.1093,8.1093,8.1093,8.1093,8.1093,8.1124,8.1124,8.1154,8.1184,8.1205,8.1234,8.1319,8.1374,8.1427,8.1478,8.1504,8.1504,8.1504,8.1504,8.1478,8.1504,8.1504,8.1504,8.1504,8.1504,8.1504,8.1504,8.1504,8.1504,8.1504,8.1504,8.1465,8.1387,8.0846,8.0343,8.0266,8.2186,8.2186,8.2186,8.2186,8.2186,8.2186,8.2186,8.2186,8.2186,8.2186,8.2186,8.2186,8.2186,8.2186,8.2186,8.2186,8.2186,8.2186,8.2186,8.2186,8.2186,8.2251,8.2251,8.2316,8.2407,8.2534,8.2721,8.2843,8.2964,8.3024,8.3121,8.318,8.318,8.318,8.318,8.318,8.318,8.318,8.318,8.318,8.318,8.318,8.318,8.318,8.318,8.318,8.318,8.318,8.318,8.2734,8.2028,8.1991,8.1731,8.0654,8.0208,7.9911,7.9465,7.8722,7.8351,7.8276,7.8276,7.8276,7.8276,7.8276,7.8276,7.8332,7.8332,7.8512,7.8854,7.915,7.9349,7.9665,8.0043,8.0503,8.0788,8.1093,8.1093,8.1093,8.1093,8.1093,8.1093,8.1093,8.1093,8.1093,8.1093,8.1093,8.1093,8.1154,8.1184,8.1176,8.1205,8.1263,8.1319,8.1374,8.1453,8.1453,8.1453,8.1453,8.1453,8.1478,8.1504,8.1504,8.1504,8.1504,8.1504,8.1504,8.1504,8.1504,8.1504,8.1504,8.1504,8.1387,8.0846,8.0382,8.015,8.2186,8.2186,8.2186,8.2186,8.2186,8.2186,8.2186,8.2186,8.2186,8.2186,8.2186,8.2186,8.2186,8.2186,8.2186,8.2186,8.2186,8.2186,8.2186,8.2186,8.2186,8.2186,8.2186,8.2251,8.2316,8.2407,8.2597,8.2782,8.2843,8.2904,8.3024,8.318,8.318,8.318,8.318,8.318,8.318,8.318,8.318,8.318,8.318,8.318,8.318,8.318,8.318,8.318,8.318,8.318,8.318,8.2883,8.2214,8.162,8.11,8.0468,7.9985,7.9651,7.9168,7.8759,7.8462,7.8313,7.8276,7.8276,7.8276,7.8276,7.8276,7.8276,7.8332,7.8386,7.8633,7.8904,7.9112,7.9487,7.9878,8.0354,8.0754,8.0959,8.1093,8.1093,8.1093,8.1093,8.1093,8.1093,8.1093,8.1093,8.1093,8.1093,8.1093,8.1124,8.1124,8.1124,8.1154,8.1214,8.1244,8.1263,8.1319,8.1347,8.1347,8.14,8.1427,8.1427,8.1453,8.1504,8.1504,8.1478,8.1478,8.1504,8.1504,8.1504,8.1504,8.1504,8.1504,8.1349,8.0846,8.0536,8.042]},{"header":{"parameterUnit":"m.s-1","parameterCategory":1,"la1":31.0,"la2":29.5877,"lo1":-88.7671,"lo2":-86.6584,"dy":0.0162,"dx":0.0185,"nx":115,"ny":88,"refTime":"2024-03-14T00:00:00:Z","depth":0,"parameterNumber":3,"parameterNumberName":"V-component_of_WINDS"},"data":[0.0,0.0,0.0,0.0,0.0,0.0,0.0,0.0,0.0,0.0,0.0,0.0,0.0,0.0,0.0,0.0,0.0,0.0,0.0,0.0,0.0,0.0,0.0,0.0,0.0,0.0,0.0,0.0,0.0,0.0,0.0,0.0,0.0,0.0,0.0,0.0,0.0,0.0,0.0,0.0,0.0,0.0,0.0,0.0,0.0,0.0,0.0,0.0,0.0,0.0,0.0,0.0,0.0,0.0,0.0,0.0,0.0,0.0,0.0,0.0,0.0,0.0,0.0,0.0,0.0,0.0,0.0,0.0,0.0,0.0,0.0,0.0,0.0,0.0,0.0,0.0,0.0,0.0,0.0,0.0,0.0,0.0,0.0,0.0,0.0,0.0,0.0,0.0,0.0,0.0,0.0,0.0,0.0,0.0,0.0,0.0,0.0,0.0,0.0,0.0,0.0,0.0,0.0,0.0,0.0,0.0,0.0,0.0,0.0,0.0,0.0,0.0,0.0,0.0,0.0,0.0,0.0,0.0,0.0,0.0,0.0,0.0,0.0,0.0,0.0,0.0,0.0,0.0,0.0,0.0,0.0,0.0,0.0,0.0,0.0,0.0,0.0,0.0,0.0,0.0,0.0,0.0,0.0,0.0,0.0,0.0,0.0,0.0,0.0,0.0,0.0,0.0,0.0,0.0,0.0,0.0,0.0,0.0,0.0,0.0,0.0,0.0,0.0,0.0,0.0,0.0,0.0,0.0,0.0,0.0,0.0,0.0,0.0,0.0,0.0,0.0,0.0,0.0,0.0,0.0,0.0,0.0,0.0,0.0,0.0,0.0,0.0,0.0,0.0,0.0,0.0,0.0,0.0,0.0,0.0,0.0,0.0,0.0,0.0,0.0,0.0,0.0,0.0,0.0,0.0,0.0,0.0,0.0,0.0,0.0,0.0,0.0,0.0,0.0,0.0,0.0,0.0,0.0,0.0,0.0,0.0,0.0,0.0,0.0,0.0,0.0,0.0,0.0,0.0,0.0,0.0,0.0,0.0,0.0,0.0,0.0,0.0,0.0,0.0,0.0,0.0,0.0,0.0,0.0,0.0,0.0,0.0,0.0,0.0,0.0,0.0,0.0,0.0,0.0,0.0,0.0,0.0,0.0,0.0,0.0,0.0,0.0,0.0,0.0,0.0,0.0,0.0,0.0,0.0,0.0,0.0,0.0,0.0,0.0,0.0,0.0,0.0,0.0,0.0,0.0,0.0,0.0,0.0,0.0,0.0,0.0,0.0,0.0,0.0,0.0,0.0,0.0,0.0,0.0,0.0,0.0,0.0,0.0,0.0,0.0,0.0,0.0,0.0,0.0,0.0,0.0,0.0,0.0,0.0,0.0,0.0,0.0,0.0,0.0,0.0,0.0,0.0,0.0,0.0,0.0,0.0,0.0,0.0,0.0,0.0,0.0,0.0,0.0,0.0,0.0,0.0,0.0,0.0,0.0,0.0,0.0,0.0,0.0,0.0,0.0,0.0,0.0,0.0,0.0,0.0,0.0,0.0,0.0,0.0,0.0,0.0,0.0,0.0,0.0,0.0,0.0,0.0,0.0,0.0,0.0,0.0,0.0,0.0,0.0,0.0,0.0,0.0,0.0,0.0,0.0,0.0,0.0,0.0,0.0,0.0,0.0,0.0,0.0,0.0,0.0,0.0,0.0,0.0,0.0,0.0,0.0,0.0,0.0,0.0,0.0,0.0,0.0,0.0,0.0,0.0,0.0,0.0,0.0,0.0,0.0,0.0,0.0,0.0,0.0,0.0,0.0,0.0,0.0,0.0,0.0,0.0,0.0,0.0,0.0,0.0,0.0,0.0,0.0,0.0,0.0,0.0,0.0,0.0,0.0,0.0,0.0,0.0,0.0,0.0,0.0,0.0,0.0,0.0,0.0,0.0,0.0,0.0,0.0,0.0,0.0,0.0,0.0,0.0,0.0,0.0,0.0,0.0,0.0,0.0,0.0,0.0,0.0,0.0,0.0,0.0,0.0,0.0,0.0,0.0,0.0,0.0,0.0,0.0,0.0,0.0,0.0,0.0,0.0,0.0,0.0,0.0,0.0,0.0,0.0,0.0,0.0,0.0,0.0,0.0,0.0,0.0,0.0,0.0,0.0,0.0,0.0,0.0,0.0,0.0,0.0,0.0,0.0,0.0,0.0,0.0,0.0,0.0,0.0,0.0,0.0,0.0,0.0,0.0,0.0,0.0,0.0,0.0,0.0,0.0,0.0,0.0,0.0,0.0,0.0,0.0,0.0,0.0,0.0,0.0,0.0,0.0,0.0,0.0,0.0,0.0,0.0,0.0,0.0,0.0,0.0,0.0,0.0,0.0,0.0,0.0,0.0,0.0,0.0,0.0,0.0,0.0,0.0,0.0,0.0,0.0,0.0,0.0,0.0,0.0,0.0,0.0,0.0,0.0,0.0,0.0,0.0,0.0,0.0,0.0,0.0,0.0,0.0,0.0,0.0,0.0,0.0,0.0,0.0,0.0,0.0,0.0,0.0,0.0,0.0,0.0,0.0,0.0,0.0,0.0,0.0,0.0,0.0,0.0,0.0,0.0,0.0,0.0,0.0,0.0,0.0,0.0,0.0,0.0,0.0,0.0,0.0,0.0,0.0,0.0,0.0,0.0,0.0,0.0,0.0,0.0,0.0,0.0,0.0,0.0,0.0,0.0,0.0,0.0,0.0,0.0,0.0,0.0,0.0,0.0,0.0,0.0,0.0,0.0,0.0,0.0,0.0,0.0,0.0,0.0,0.0,0.0,0.0,0.0,0.0,0.0,0.0,0.0,0.0,0.0,0.0,0.0,0.0,0.0,0.0,0.0,0.0,0.0,0.0,0.0,0.0,0.0,0.0,0.0,0.0,0.0,0.0,0.0,0.0,0.0,0.0,0.0,0.0,0.0,0.0,0.0,0.0,0.0,0.0,0.0,0.0,0.0,0.0,0.0,0.0,0.0,0.0,0.0,0.0,0.0,0.0,0.0,0.0,0.0,0.0,0.0,0.0,0.0,0.0,0.0,0.0,0.0,0.0,0.0,0.0,0.0,0.0,0.0,0.0,0.0,0.0,0.0,0.0,0.0,0.0,0.0,0.0,0.0,0.0,0.0,0.0,0.0,0.0,0.0,0.0,0.0,0.0,0.0,0.0,0.0,0.0,0.0,0.0,0.0,0.0,0.0,0.0,0.0,0.0,0.0,0.0,0.0,0.0,0.0,0.0,0.0,0.0,0.0,0.0,0.0,0.0,0.0,0.0,0.0,0.0,0.0,0.0,0.0,0.0,0.0,0.0,0.0,0.0,0.0,0.0,0.0,0.0,0.0,0.0,0.0,0.0,0.0,0.0,0.0,0.0,0.0,0.0,0.0,0.0,0.0,0.0,0.0,0.0,0.0,0.0,0.0,0.0,0.0,0.0,0.0,0.0,0.0,0.0,0.0,0.0,0.0,0.0,0.0,0.0,0.0,0.0,0.0,0.0,0.0,0.0,0.0,0.0,0.0,0.0,0.0,0.0,0.0,0.0,0.0,0.0,0.0,0.0,0.0,0.0,0.0,0.0,0.0,0.0,0.0,0.0,0.0,0.0,0.0,0.0,0.0,0.0,0.0,0.0,0.0,0.0,0.0,0.0,0.0,0.0,0.0,0.0,0.0,0.0,0.0,0.0,0.0,0.0,0.0,0.0,0.0,0.0,0.0,0.0,0.0,0.0,0.0,0.0,0.0,0.0,0.0,0.0,0.0,0.0,0.0,0.0,0.0,0.0,0.0,0.0,0.0,0.0,0.0,0.0,0.0,0.0,0.0,0.0,0.0,0.0,0.0,0.0,0.0,0.0,0.0,0.0,0.0,0.0,0.0,0.0,0.0,0.0,0.0,0.0,0.0,0.0,0.0,0.0,0.0,0.0,0.0,0.0,0.0,0.0,0.0,0.0,0.0,0.0,0.0,0.0,0.0,0.0,0.0,0.0,0.0,0.0,0.0,0.0,0.0,0.0,0.0,0.0,0.0,0.0,0.0,0.0,0.0,0.0,0.0,0.0,0.0,0.0,0.0,0.0,0.0,0.0,0.0,0.0,0.0,0.0,0.0,0.0,0.0,0.0,0.0,0.0,0.0,0.0,0.0,0.0,0.0,0.0,0.0,0.0,0.0,0.0,0.0,0.0,0.0,0.0,0.0,0.0,0.0,0.0,0.0,0.0,0.0,0.0,0.0,0.0,0.0,0.0,0.0,0.0,0.0,0.0,0.0,0.0,-0.1977,0.0,0.0,0.0,0.0,0.0,0.0,0.0,0.0,0.0,0.0,0.0,0.0,0.0,0.0,0.0,0.0,0.0,0.0,0.0,0.0,0.0,0.0,0.0,0.0,0.0,0.0,0.0,0.0,0.0,0.0,0.0,0.0,0.0,0.0,0.0,0.0,0.0,0.0,0.0,0.0,0.0,0.0,0.0,0.0,0.0,0.0,0.0,0.0,0.0,0.0,0.0,0.0,0.0,0.0,0.0,0.0,0.0,0.0,0.0,0.0,0.0,0.0,0.0,0.0,0.0,0.0,0.0,0.0,0.0,0.0,0.0,0.0,0.0,0.0,0.0,0.0,0.0,0.0,0.0,0.0,0.0,0.0,0.0,0.0,0.0,0.0,0.0,0.0,0.0,0.0,0.0,0.0,0.0,0.0,0.0,0.0,0.0,0.0,0.0,0.0,0.0,0.0,0.0,0.0,0.0,0.0,0.0,0.0,0.0,0.0,-0.1977,-0.1977,-0.1977,-0.1977,-0.1977,0.0,0.0,0.0,0.0,0.0,0.0,0.0,0.0,0.0,0.0,0.0,0.0,0.0,0.0,0.0,0.0,0.0,0.0,0.0,0.0,0.0,0.0,0.0,0.0,0.0,0.0,0.0,0.0,0.0,0.0,0.0,0.0,0.0,0.0,0.0,0.0,0.0,0.0,0.0,0.0,0.0,0.0,0.0,0.0,0.0,0.0,0.0,0.0,0.0,0.0,0.0,0.0,0.0,0.0,0.0,0.0,0.0,0.0,0.0,0.0,0.0,0.0,0.0,0.0,0.0,0.0,0.0,0.0,0.0,0.0,0.0,0.0,0.0,0.0,0.0,0.0,0.0,0.0,0.0,0.0,0.0,0.0,0.0,0.0,0.0,0.0,0.0,0.0,0.0,0.0,0.0,0.0,0.0,0.0,0.0,0.0,0.0,0.0,0.0,0.0,0.0,0.0,0.0,0.0,0.0,0.0,0.0,0.0,0.0,0.0,0.0,0.0,-0.1977,-0.1977,-0.1977,0.0,0.0,0.0,0.0,0.0,0.0,0.0,0.0,0.0,0.0,0.0,0.0,0.0,0.0,0.0,0.0,0.0,0.0,0.0,0.0,0.0,0.0,0.0,0.0,0.0,0.0,0.0,0.0,0.0,0.0,0.0,0.0,0.0,0.0,0.0,0.0,0.0,0.0,0.0,0.0,0.0,0.0,0.0,0.0,0.0,0.0,0.0,0.0,0.0,0.0,0.0,0.0,0.0,0.0,0.0,0.0,0.0,0.0,0.0,0.0,0.0,0.0,0.0,0.0,0.0,0.0,0.0,0.0,0.0,0.0,0.0,0.0,0.0,0.0,0.0,0.0,0.0,0.0,0.0,0.0,0.0,0.0,0.0,0.0,0.0,0.0,0.0,0.0,0.0,0.0,0.0,0.0,0.0,0.0,0.0,0.0,0.0,0.0,0.0,0.0,0.0,0.0,0.0,0.0,0.0,0.0,0.0,0.0,0.0,0.0,-0.1977,-0.1977,-0.1977,0.0,-0.1977,0.0,0.0,0.0,0.0,0.0,0.0,0.0,0.0,0.0,0.0,0.0,0.0,0.0,0.0,0.0,0.0,0.0,0.0,0.0,0.0,0.0,0.0,0.0,0.0,0.0,0.0,0.0,0.0,0.0,0.0,0.0,0.0,0.0,0.0,0.0,0.0,0.0,0.0,0.0,0.0,0.0,0.0,0.0,0.0,0.0,0.0,0.0,0.0,0.0,0.0,0.0,0.0,0.0,0.0,0.0,0.0,0.0,0.0,0.0,0.0,0.0,0.0,0.0,0.0,0.0,0.0,0.0,0.0,0.0,0.0,0.0,0.0,0.0,0.0,0.0,0.0,0.0,0.0,0.0,0.0,0.0,0.0,0.0,0.0,0.0,0.0,0.0,0.0,0.0,0.0,0.0,0.0,0.0,0.0,0.0,0.0,0.0,0.0,0.0,0.0,0.0,0.0,0.0,0.0,0.0,0.0,0.0,0.0,0.0,0.0,-0.1977,-0.1977,-0.1977,-0.1977,0.0,0.0,0.0,0.0,0.0,0.0,0.0,0.0,0.0,0.0,0.0,0.0,0.0,0.0,0.0,0.0,0.0,0.0,0.0,0.0,0.0,0.0,0.0,0.0,0.0,0.0,0.0,0.0,0.0,0.0,0.0,0.0,0.0,0.0,0.0,0.0,0.0,0.0,0.0,0.0,0.0,0.0,0.0,0.0,0.0,0.0,0.0,0.0,0.0,0.0,0.0,0.0,0.0,0.0,0.0,0.0,0.0,0.0,0.0,0.0,0.0,0.0,0.0,0.0,0.0,0.0,0.0,0.0,0.0,0.0,0.0,0.0,0.0,0.0,0.0,0.0,0.0,0.0,0.0,0.0,0.0,0.0,0.0,0.0,0.0,0.0,0.0,0.0,0.0,0.0,0.0,0.0,0.0,0.0,0.0,0.0,0.0,0.0,0.0,0.0,0.0,0.0,0.0,0.0,0.0,0.0,0.0,0.0,0.0,0.0,-0.1977,-0.1977,-0.1977,-0.1977,-0.1977,-0.1977,0.0,0.0,0.0,0.0,0.0,0.0,0.0,0.0,0.0,0.0,0.0,0.0,0.0,0.0,0.0,0.0,0.0,0.0,0.0,0.0,0.0,0.0,0.0,0.0,0.0,0.0,0.0,0.0,0.0,0.0,0.0,0.0,0.0,0.0,0.0,0.0,0.0,0.0,0.0,0.0,0.0,0.0,0.0,0.0,0.0,0.0,0.0,0.0,0.0,0.0,0.0,0.0,0.0,0.0,0.0,0.0,0.0,0.0,0.0,0.0,0.0,0.0,0.0,0.0,0.0,0.0,0.0,0.0,0.0,0.0,0.0,0.0,0.0,0.0,0.0,0.0,0.0,0.0,0.0,0.0,0.0,0.0,0.0,0.0,0.0,0.0,0.0,0.0,0.0,0.0,0.0,0.0,0.0,0.0,0.0,0.0,0.0,0.0,0.0,0.0,0.0,0.0,0.0,0.0,0.0,0.0,0.0,0.0,-0.1977,-0.1977,-0.1977,-0.1977,-0.1977,-0.1977,0.0,0.0,0.0,0.0,0.0,0.0,0.0,0.0,0.0,0.0,0.0,0.0,0.0,0.0,0.0,0.0,0.0,0.0,0.0,0.0,0.0,0.0,0.0,0.0,0.0,0.0,0.0,0.0,0.0,0.0,0.0,0.0,0.0,0.0,0.0,0.0,0.0,0.0,0.0,0.0,0.0,0.0,0.0,0.0,0.0,0.0,0.0,0.0,0.0,0.0,0.0,0.0,0.0,0.0,0.0,0.0,0.0,0.0,0.0,0.0,0.0,0.0,0.0,0.0,0.0,0.0,0.0,0.0,0.0,0.0,0.0,0.0,0.0,0.0,0.0,0.0,0.0,0.0,0.0,0.0,0.0,0.0,0.0,0.0,0.0,0.0,0.0,0.0,0.0,0.0,0.0,0.0,0.0,0.0,0.0,0.0,0.0,0.0,0.0,0.0,0.0,0.0,0.0,0.0,0.0,0.0,0.0,0.0,0.0,-0.1977,-0.1977,-0.1977,-0.1977,-0.1977,-0.1977,0.0,0.0,0.0,0.0,0.0,0.0,0.0,0.0,0.0,0.0,0.0,0.0,0.0,0.0,0.0,0.0,0.0,0.0,0.0,0.0,0.0,0.0,0.0,0.0,0.0,0.0,0.0,0.0,0.0,0.0,0.0,0.0,0.0,0.0,0.0,0.0,0.0,0.0,0.0,0.0,0.0,0.0,0.0,0.0,0.0,0.0,0.0,0.0,0.0,0.0,0.0,0.0,0.0,0.0,0.0,0.0,0.0,0.0,0.0,0.0,0.0,0.0,0.0,0.0,0.0,0.0,0.0,0.0,0.0,0.0,0.0,0.0,0.0,0.0,0.0,0.0,0.0,0.0,0.0,0.0,0.0,0.0,0.0,0.0,0.0,0.0,0.0,0.0,0.0,0.0,0.0,0.0,0.0,0.0,0.0,0.0,0.0,0.0,0.0,0.0,0.0,0.0,0.0,0.0,0.0,0.0,0.0,0.0,0.0,-0.173,0.0,-0.1483,-0.1606,-0.173,-0.173,0.0,0.0,0.0,0.0,0.0,0.0,0.0,0.0,0.0,0.0,0.0,0.0,0.0,0.0,0.0,0.0,0.0,0.0,0.0,0.0,0.0,0.0,0.0,0.0,0.0,0.0,0.0,0.0,0.0,0.0,0.0,0.0,0.0,0.0,0.0,0.0,0.0,0.0,0.0,0.0,0.0,0.0,0.0,0.0,0.0,0.0,0.0,0.0,0.0,0.0,0.0,0.0,0.0,0.0,0.0,0.0,0.0,0.0,0.0,0.0,0.0,0.0,0.0,0.0,0.0,0.0,0.0,0.0,0.0,0.0,0.0,0.0,0.0,0.0,0.0,0.0,0.0,0.0,0.0,0.0,0.0,0.0,0.0,0.0,0.0,0.0,0.0,0.0,0.0,0.0,0.0,0.0,0.0,0.0,0.0,0.0,0.0,0.0,0.0,0.0,0.0,0.0,0.0,0.0,0.0,0.0,0.0,0.0,-0.1607,-0.0989,-0.0371,-0.0495,-0.0989,-0.1112,-0.1359,0.0,0.0,0.0,0.0,0.0,0.0,0.0,0.0,0.0,0.0,0.0,0.0,0.0,0.0,0.0,0.0,0.0,0.0,0.0,0.0,0.0,0.0,0.0,0.0,0.0,0.0,0.0,0.0,0.0,0.0,0.0,0.0,0.0,0.0,0.0,0.0,0.0,0.0,0.0,0.0,0.0,0.0,0.0,0.0,0.0,0.0,0.0,0.0,0.0,0.0,0.0,0.0,0.0,0.0,0.0,0.0,0.0,0.0,0.0,0.0,0.0,0.0,0.0,0.0,0.0,0.0,0.0,0.0,0.0,0.0,0.0,0.0,0.0,0.0,0.0,0.0,0.0,0.0,0.0,0.0,0.0,0.0,0.0,0.0,0.0,0.0,0.0,0.0,0.0,0.0,0.0,0.0,0.0,0.0,0.0,0.0,0.0,0.0,0.0,0.0,0.0,0.0,0.0,0.0,0.0,0.0,0.0,0.0,0.0,-0.1002,-0.1253,-0.1504,-0.1629,-0.1629,-0.1746,0.0,0.0,0.0,0.0,0.0,0.0,0.0,0.0,0.0,0.0,0.0,0.0,0.0,0.0,0.0,0.0,0.0,0.0,0.0,0.0,0.0,0.0,0.0,0.0,0.0,0.0,0.0,0.0,0.0,0.0,0.0,0.0,0.0,0.0,0.0,0.0,0.0,0.0,0.0,0.0,0.0,0.0,0.0,0.0,0.0,0.0,0.0,0.0,0.0,0.0,0.0,0.0,0.0,0.0,0.0,0.0,0.0,0.0,0.0,0.0,0.0,0.0,0.0,0.0,0.0,0.0,0.0,0.0,0.0,0.0,0.0,0.0,0.0,0.0,0.0,0.0,0.0,0.0,0.0,0.0,0.0,0.0,0.0,0.0,0.0,0.0,0.0,0.0,0.0,0.0,0.0,0.0,0.0,0.0,0.0,0.0,0.0,0.0,0.0,0.0,0.0,0.0,0.0,0.0,0.0,0.0,0.0,0.0,0.0,0.0258,-0.0514,-0.1154,-0.1667,-0.1403,-0.139,-0.1619,0.0,0.0,0.0,0.0,0.0,0.0,0.0,0.0,0.0,0.0,0.0,0.0,0.0,0.0,0.0,0.0,0.0,0.0,0.0,0.0,0.0,0.0,0.0,0.0,0.0,0.0,0.0,0.0,0.0,0.0,0.0,0.0,0.0,0.0,0.0,0.0,0.0,0.0,0.0,0.0,0.0,0.0,0.0,0.0,0.0,0.0,0.0,0.0,0.0,0.0,0.0,0.0,0.0,0.0,0.0,0.0,0.0,0.0,0.0,0.0,0.0,0.0,0.0,0.0,0.0,0.0,0.0,0.0,0.0,0.0,0.0,0.0,0.0,0.0,0.0,0.0,0.0,0.0,0.0,0.0,0.0,0.0,0.0,0.0,0.0,0.0,0.0,0.0,0.0,0.0,0.0,0.0,0.0,0.0,0.0,0.0,0.0,0.0,0.0,0.0,0.0,0.0,0.0,0.0,0.0,0.0,0.0,0.0,0.2153,0.1464,0.0397,-0.0792,-0.0391,-0.0385,0.0,0.0,0.0,0.0,0.0,0.0,0.0,0.0,0.0,0.0,0.0,0.0,0.0,0.0,0.0,0.0,0.0,0.0,0.0,0.0,0.0,0.0,0.0,0.0,0.0,0.0,0.0,0.0,0.0,0.0,0.0,0.0,0.0,0.0,0.0,0.0,0.0,0.0,0.0,0.0,0.0,0.0,0.0,0.0,0.0,0.0,0.0,0.0,0.0,0.0,0.0,0.0,0.0,0.0,0.0,0.0,0.0,0.0,0.0,0.0,0.0,0.0,0.0,0.0,0.0,0.0,0.0,0.0,0.0,0.0,0.0,0.0,0.0,0.0,0.0,0.0,0.0,0.0,0.0,0.0,0.0,0.0,0.0,0.0,0.0,0.0,0.0,0.0,0.0,0.0,0.0,0.0,0.0,0.0,0.0,0.0,0.0,0.0,0.0,0.0,0.0,0.0,0.0,0.0,0.0,0.0,0.0,0.0,0.0,0.1501,0.2358,0.2355,0.1629,0.0669,0.0263,0.0,0.0,0.0,0.0,0.0,0.0,0.0,0.0,0.0,0.0,0.0,0.0,0.0,0.0,0.0,0.0,0.0,0.0,0.0,0.0,0.0,0.0,0.0,0.0,0.0,0.0,0.0,0.0,0.0,0.0,0.0,0.0,0.0,0.0,0.0,0.0,0.0,0.0,0.0,0.0,0.0,0.0,0.0,0.0,0.0,0.0,0.0,0.0,0.0,0.0,0.0,0.0,0.0,0.0,0.0,0.0,0.0,0.0,0.0,0.0,0.0,0.0,0.0,0.0,0.0,0.0,0.0,0.0,0.0,0.0,0.0,0.0,0.0,0.0,0.0,0.0,0.0,0.0,0.0,0.0,0.0,0.0,0.0,0.0,0.0,0.0,0.0,0.0,0.0,0.0,0.0,0.0,0.0,0.0,0.0,0.0,0.0,0.0,0.0,0.0,0.0,0.0,0.0,0.0,0.0,0.0,0.0,0.0,0.3279,0.2653,0.432,0.4939,0.4578,0.2211,0.107,0.0,0.0,0.0,0.0,0.0,0.0,0.0,0.0,0.0,0.0,0.0,0.0,0.0,0.0,0.0,0.0,0.0,0.0,0.0,0.0,0.0,0.0,0.0,0.0,0.0,0.0,0.0,0.0,0.0,0.0,0.0,0.0,0.0,0.0,0.0,0.0,0.0,0.0,0.0,0.0,0.0,0.0,0.0,0.0,0.0,0.0,0.0,0.0,0.0,0.0,0.0,0.0,0.0,0.0,0.0,0.0,0.0,0.0,0.0,0.0,0.0,0.0,0.0,0.0,0.0,0.0,0.0,0.0,0.0,0.0,0.0,0.0,0.0,0.0,0.0,0.0,0.0,0.0,0.0,0.0,0.0,0.0,0.0,0.0,0.0,0.0,0.0,0.0,0.0,0.0,0.0,0.0,0.0,0.0,0.0,0.0,0.0,0.0,0.0,0.0,0.0,0.0,0.0,0.0,0.0,0.0,0.0,0.0,0.4092,0.4881,0.6389,0.7264,0.7252,0.4132,0.2178,0.0,0.0,0.0,0.0,0.0,0.0,0.0,0.0,0.0,0.0,0.0,0.0,0.0,0.0,0.0,0.0,0.0,0.0,0.0,0.0,0.0,0.0,0.0,0.0,0.0,0.0,0.0,0.0,0.0,0.0,0.0,0.0,0.0,0.0,0.0,0.0,0.0,0.0,0.0,0.0,0.0,0.0,0.0,0.0,0.0,0.0,0.0,0.0,0.0,0.0,0.0,0.0,0.0,0.0,0.0,0.0,0.0,0.0,0.0,0.0,0.0,0.0,0.0,0.0,0.0,0.0,0.0,0.0,0.0,0.0,0.0,0.0,0.0,0.0,0.0,0.0,0.0,0.0,0.0,0.0,0.0,0.0,0.0,0.0,0.0,0.0,0.0,0.0,0.0,0.0,0.0,0.0,0.0,0.0,0.0,0.0,0.0,0.0,0.0,0.0,0.0,0.0,0.0,0.0,0.0,0.0,0.0,0.0,0.4843,0.5743,0.6746,0.7264,0.7264,0.464,0.3514,0.0,0.0,0.0,0.0,0.0,0.0,0.0,0.0,0.0,0.0,0.0,0.0,0.0,0.0,0.0,0.0,0.0,0.0,0.0,0.0,0.0,0.0,0.0,0.0,0.0,0.0,0.0,0.0,0.0,0.0,0.0,0.0,0.0,0.0,0.0,0.0,0.0,0.0,0.0,0.0,0.0,0.0,0.0,0.0,0.0,0.0,0.0,0.0,-0.2291,0.0,0.0,0.0,0.0,0.0,0.0,0.0,0.0,0.0,0.0,0.0,0.0,0.0,0.0,0.0,0.0,0.0,0.0,0.0,0.0,0.0,0.0,0.0,0.0,0.0,0.0,0.0,0.0,0.0,0.0,0.0,0.0,0.0,0.0,0.0,0.0,0.0,0.0,0.0,0.0,0.0,0.0,0.0,0.0,0.0,0.0,0.0,0.0,0.0,0.0,0.0,0.0,0.0,0.0,0.0,0.0,0.0,0.0,0.0,0.5364,0.6134,0.7169,0.7697,0.7378,0.567,0.463,0.0,0.0,0.0,0.0,0.0,0.0,0.0,0.0,0.0,0.0,0.0,0.0,0.0,0.0,0.0,0.0,0.0,0.0,0.0,0.0,0.0,0.0,0.0,0.0,0.0,0.0,0.0,0.0,0.0,0.0,0.0,0.0,0.0,0.0,0.0,0.0,0.0,0.0,0.0,0.0,0.0,0.0,0.0,0.0,0.0,0.0,0.0,0.0,0.0,0.0,0.0,0.0,0.0,0.0,0.0,0.0,0.0,0.0,0.0,0.0,0.0,0.0,0.0,0.0,0.0,0.0,0.0,0.0,0.0,0.0,0.0,0.0,0.0,0.0,0.0,0.0,0.0,0.0,0.0,0.0,0.0,0.0,0.0,0.0,0.0,0.0,0.0,0.0,0.0,0.0,0.0,0.0,0.0,0.0,0.0,0.0,0.0,0.0,0.0,0.0,0.0,0.0,0.0,0.0,0.0,0.0,0.0,0.5033,0.5941,0.672,0.7644,0.8041,0.7719,0.6777,0.5499,0.3963,0.0,0.0,0.0,0.0,0.0,0.0,0.0,0.0,0.0,0.0,0.0,0.0,0.0,0.0,0.0,0.0,0.0,0.0,0.0,0.0,0.0,0.0,0.0,0.0,0.0,0.0,0.0,0.0,0.0,0.0,0.0,0.0,0.0,0.0,0.0,0.0,0.0,0.0,-0.1989,-0.2007,0.0,0.0,0.0,0.0,0.0,0.0,0.0,0.0,-0.2052,0.0,0.0,0.0,0.0,0.0,0.0,0.0,0.0,0.0,0.0,0.0,0.0,0.0,0.0,0.0,0.0,0.0,0.0,0.0,0.0,0.0,0.0,0.0,0.0,0.0,0.0,0.0,0.0,0.0,0.0,0.0,0.0,0.0,0.0,0.0,0.0,0.0,0.0,0.0,0.0,0.0,0.0,0.0,0.0,0.0,0.0,0.0,0.0,0.0,0.0,0.0,0.0,0.0,0.0,0.0,0.0,0.5617,0.5628,0.6601,0.8491,0.854,0.8397,0.8228,0.7102,0.5819,0.4855,0.0,0.0,0.0,0.0,0.0,0.0,0.0,0.0,0.0,0.0,0.0,0.0,0.0,0.0,0.0,0.0,0.0,0.0,0.0,0.0,0.0,0.0,0.0,0.0,0.0,0.0,0.0,0.0,0.0,0.0,0.0,0.0,0.0,0.0,0.0,0.0,0.0,0.0,0.0,-0.2031,-0.2039,0.0,0.0,0.0,0.0,0.0,0.0,0.0,0.0,-0.2099,0.0,0.0,0.0,0.0,0.0,0.0,0.0,0.0,0.0,0.0,0.0,0.0,0.0,0.0,0.0,0.0,0.0,0.0,0.0,0.0,0.0,0.0,0.0,0.0,0.0,0.0,0.0,0.0,0.0,0.0,0.0,0.0,0.0,0.0,0.0,0.0,0.0,0.0,0.0,0.0,0.0,0.0,0.0,0.0,0.0,0.0,0.0,0.0,0.0,0.0,0.0,0.0,0.0,0.0,0.0,0.6016,0.6823,0.7677,0.9074,0.9088,0.8926,0.8437,0.7303,0.6166,0.0,0.0,0.0,0.0,0.0,0.0,0.0,0.0,0.0,0.0,0.0,0.0,0.0,0.0,0.0,0.0,0.0,0.0,0.0,0.0,0.0,0.0,0.0,0.0,0.0,0.0,0.0,0.0,0.0,0.0,0.0,0.0,0.0,0.0,0.0,0.0,0.0,0.0,0.0,0.0,-0.2089,-0.2105,-0.215,0.0,0.0,0.0,0.0,0.0,0.0,-0.2148,-0.212,0.0,0.0,0.0,0.0,0.0,0.0,0.0,0.0,0.0,0.0,0.0,0.0,0.0,0.0,0.0,0.0,0.0,0.0,0.0,0.0,0.0,0.0,0.0,0.0,0.0,0.0,0.0,0.0,0.0,0.0,0.0,0.0,0.0,0.0,0.0,0.0,0.0,0.0,0.0,0.0,0.0,0.0,0.0,0.0,0.0,0.0,0.0,0.0,0.0,0.0,0.0,0.0,0.0,0.0,0.0,0.64,0.774,0.8777,0.9465,0.9637,0.9475,0.882,0.7477,0.6326,0.0,0.0,0.0,0.0,0.0,0.0,0.0,0.0,0.0,0.0,0.0,0.0,0.0,0.0,0.0,0.0,0.0,0.0,0.0,0.0,0.0,0.0,0.0,0.0,0.0,0.0,0.0,0.0,0.0,0.0,0.0,0.0,0.0,0.0,0.0,0.0,0.0,0.0,0.0,0.0,0.0,-0.2168,-0.2204,-0.2188,0.0,0.0,0.0,0.0,-0.2211,-0.2177,0.0,0.0,0.0,0.0,0.0,0.0,0.0,0.0,0.0,0.0,0.0,0.0,0.0,0.0,0.0,0.0,0.0,0.0,0.0,0.0,0.0,0.0,0.0,0.0,0.0,0.0,0.0,0.0,0.0,0.0,0.0,0.0,0.0,0.0,0.0,0.0,0.0,0.0,0.0,0.0,0.0,0.0,0.0,0.0,0.0,0.0,0.0,0.0,0.0,0.0,0.0,0.0,0.0,0.0,0.0,0.0,0.7235,0.8207,0.915,1.0351,1.0195,1.0029,0.9858,0.7377,0.5887,0.0,0.0,0.0,0.0,0.0,0.0,0.0,0.0,0.0,0.0,0.0,0.0,0.0,0.0,0.0,0.0,0.0,0.0,0.0,0.0,0.0,0.0,0.0,0.0,0.0,0.0,0.0,0.0,0.0,0.0,0.0,0.0,0.0,0.0,0.0,0.0,0.0,0.0,0.0,0.0,0.0,-0.2176,-0.2233,-0.2237,-0.2234,0.0,0.0,-0.2271,-0.2279,-0.2274,0.0,0.0,0.0,0.0,0.0,0.0,0.0,0.0,0.0,0.0,0.0,0.0,0.0,0.0,0.0,0.0,0.0,0.0,0.0,0.0,0.0,0.0,0.0,0.0,0.0,0.0,0.0,0.0,0.0,0.0,0.0,0.0,0.0,0.0,0.0,0.0,0.0,0.0,0.0,0.0,0.0,0.0,0.0,0.0,0.0,0.0,0.0,0.0,0.0,0.0,0.0,0.0,0.0,0.0,0.0,0.6608,0.7565,0.8988,1.0133,1.0732,1.057,1.0404,1.007,0.7545,0.6042,0.0,0.0,0.0,0.0,0.0,0.0,0.0,0.0,0.0,0.0,0.0,0.0,0.0,0.0,0.0,0.0,0.0,0.0,0.0,0.0,0.0,0.0,0.0,0.0,0.0,0.0,0.0,0.0,0.0,0.0,0.0,0.0,0.0,0.0,0.0,0.0,0.0,0.0,0.0,0.0,0.0,0.0,-0.2243,-0.226,0.0,0.0,0.0,-0.2285,-0.2267,0.0,0.0,0.0,0.0,0.0,0.0,0.0,0.0,0.0,0.0,0.0,0.0,0.0,0.0,0.0,0.0,0.0,0.0,0.0,0.0,0.0,0.0,0.0,0.0,0.0,0.0,0.0,0.0,0.0,0.0,0.0,0.0,0.0,0.0,0.0,0.0,0.0,0.0,0.0,0.0,0.0,0.0,0.0,0.0,0.0,0.0,0.0,0.0,0.0,0.0,0.0,0.0,0.0,0.0,0.0,0.0,0.0,0.7599,0.9577,1.0737,1.0737,1.0737,1.057,1.0232,0.8232,0.0,0.0,0.0,0.0,0.0,0.0,0.0,0.0,0.0,0.0,0.0,0.0,0.0,0.0,0.0,0.0,0.0,0.0,0.0,0.0,0.0,0.0,0.0,0.0,0.0,0.0,0.0,0.0458,0.0,0.0,0.0,0.0,0.0,0.0,0.0,0.0,0.0,0.0,0.0,0.0,0.0,0.0,-0.2245,-0.2245,-0.2277,-0.2301,0.0,0.0,-0.2293,-0.2271,-0.2286,-0.2281,0.0,0.0,0.0,0.0,0.0,0.0,0.0,0.0,0.0,0.0,0.0,0.0,0.0,0.0,0.0,0.0,0.0,0.0,0.0,0.0,0.0,0.0,0.0,0.0,0.0,0.0,0.0,0.0,0.0,0.0,0.0,0.0,0.0,0.0,0.0,0.0,0.0,0.0,0.0,0.0,0.0,0.0,0.0,0.0,0.0,0.0,0.0,0.0,0.0,0.0,0.0,0.0,0.0,0.0,0.0,0.7697,0.9617,1.0737,1.0737,1.0737,1.0737,1.0565,0.9178,0.7802,0.0,0.0,0.0,0.0,0.0,0.0,0.0,0.0,0.0,0.0,0.0,0.0,0.0,0.0,0.0,0.0,0.0,0.0,0.0,0.0,0.0,0.0,0.0,0.0,0.0,0.0,0.0,0.0,0.0,0.0,0.0,0.0,0.0,0.0,0.0,0.0,0.0,0.0,0.0,0.0,0.0,-0.2245,-0.2245,-0.2294,-0.233,0.0,0.0,-0.2328,-0.2327,-0.2328,-0.2309,-0.2252,0.0,0.0,0.0,0.0,0.0,0.0,0.0,0.0,0.0,0.0,0.0,0.0,0.0,0.0,0.0,0.0,0.0,0.0,0.0,0.0,0.0,0.0,0.0,0.0,0.0,0.0,0.0,0.0,0.0,0.0,0.0,0.0,0.0,0.0,0.0,0.0,0.0,0.0,0.0,0.0,0.0,0.0,0.0,0.0,0.0,0.0,0.0,0.0,0.0,0.0,0.0,0.0,0.0,0.7565,0.7548,0.9622,1.0737,1.0737,1.0737,1.0737,1.0737,0.9356,0.7978,0.0,0.0,0.0,0.0,0.0,0.0,0.0,0.0,0.0,0.0,0.0,0.0,0.0,0.0,0.0,0.0,0.0,0.0,0.0,0.0,0.0,0.0,0.0,0.0,0.0,0.0,0.0,0.0,0.2426,0.1805,0.0511,0.0,0.0,0.0,0.0,0.0,0.0,0.0,0.0,0.0,0.0,-0.2252,-0.2271,-0.2308,0.0,0.0,-0.2333,-0.2333,-0.2333,-0.2333,-0.2313,-0.2255,-0.2221,0.0,0.0,0.0,0.0,0.0,0.0,0.0,0.0,0.0,0.0,0.0,0.0,0.0,0.0,0.0,0.0,0.0,0.0,0.0,0.0,0.0,0.0,0.0,0.0,0.0,0.0,0.0,0.0,0.0,0.0,0.0,0.0,0.0,0.0,0.0,0.0,0.0,0.0,0.0,0.0,0.0,0.0,0.0,0.0,0.0,0.0,0.0,0.0,0.0,0.0,0.0,0.0,0.792,0.8048,0.98,1.0737,1.0737,1.0737,1.0737,1.0732,0.9748,0.8719,0.0,0.0,0.0,0.0,0.0,0.0,0.0,0.0,0.0,0.0,0.0,0.0,0.0,0.0,0.0,0.0,0.0,0.0,0.0,0.0,0.0,0.0,0.0,0.0,0.0,0.0,0.0,0.0,0.3505,0.2735,0.1031,0.0,0.0,0.0,0.0,0.0,0.0,0.0,0.0,0.0,0.0,-0.1557,-0.1572,-0.2024,-0.2333,-0.2333,-0.2333,-0.2333,-0.2333,-0.2333,-0.2316,-0.2267,0.0,0.0,0.0,0.0,0.0,0.0,0.0,0.0,0.0,0.0,0.0,0.0,0.0,0.0,0.0,0.0,0.0,0.0,0.0,0.0,0.0,0.0,0.0,0.0,0.0,0.0,0.0,0.0,0.0,0.0,0.7535,0.0,0.0,0.0,0.0,0.0,0.0,0.0,0.0,0.0,0.0,0.0,0.0,0.0,0.0,0.0,0.0,0.0,0.0,0.0,0.0,0.0,0.0,0.8716,0.892,1.0003,1.0737,1.0737,1.0737,1.0737,1.0737,1.0726,0.9947,0.8581,0.0,0.0,0.0,0.0,0.0,0.0,0.0,0.0,0.0,0.0,0.0,0.0,0.0,0.0,0.0,0.0,0.0,0.0,0.0,0.0,0.0,0.0,0.0,0.0,0.0,0.0,0.2191,0.1384,0.0774,0.0,0.0,0.0,0.0,0.0,0.0,0.0,0.0,0.0,0.0,0.0418,-0.0,-0.0143,-0.1301,-0.2333,-0.2334,-0.2334,-0.2333,-0.2334,-0.2333,-0.2323,0.0,0.0,0.0,0.0,0.0,0.0,0.0,0.0,0.0,0.0,0.0,0.0,0.0,0.0,0.0,0.0,0.0,0.0,0.0,0.0,0.0,0.0,0.0,0.0,0.0,0.0,0.0,0.8019,0.8051,0.0,0.0,0.0,0.0,0.0,0.0,0.0,0.0,0.0,0.0,0.0,0.9427,0.9427,0.0,0.0,0.0,0.0,0.0,0.0,0.0,0.0,0.0,0.0,0.0,0.0,0.8716,0.8934,1.024,1.0819,1.0742,1.0819,1.0819,1.0737,1.0737,1.0092,0.8659,0.0,0.0,0.0,0.0,0.0,0.0,0.0,0.0,0.0,0.0,0.0,0.0,0.0,0.0,0.0,0.0,0.0,0.0,0.0,0.0,0.0,0.0,0.0,0.0,0.0,0.3073,0.0,0.0,0.0,0.0,0.0,0.0,0.0,0.0,0.0,0.0,0.0,0.0956,0.1257,0.0567,-0.0144,-0.0723,-0.1308,-0.1755,0.0,0.0,0.0,0.0,0.0,0.0,0.0,0.0,0.0,0.0,0.0,0.0,0.0,0.0,-0.2196,-0.2135,-0.2124,-0.2124,-0.2124,0.0,0.0,0.0,0.0,0.0,0.0,0.0,0.0,0.0,0.0,0.0,0.0,0.0,0.0,0.8633,0.0,0.8541,0.0,0.0,0.0,0.0,0.0,0.0,0.0,0.0,0.9563,0.9775,0.9921,0.9916,0.9916,0.0,0.9835,0.9487,0.0,0.0,0.0,0.0,0.0,0.0,0.0,0.0,0.9136,0.9524,1.0367,1.0944,1.0873,1.0944,1.0944,1.0862,1.0819,1.0335,0.9421,0.8159,0.7129,0.0,0.0,0.0,0.0,0.0,0.0,0.0,0.0,0.0,0.0,0.0,0.0,0.0,0.0,0.0,0.0,0.0,0.0,0.0,0.0,0.0,0.0,0.0,0.3421,0.0,0.0,0.0,0.0,0.0,0.0,0.0,0.0,0.0,0.1068,0.1635,0.2233,0.2438,0.1734,0.1016,0.0146,0.0,0.0,0.0,0.0,0.0,0.0,0.0,-0.2346,-0.2338,-0.2337,-0.2337,-0.2337,-0.2352,-0.2358,-0.2339,0.0,0.0,-0.2206,-0.2187,-0.2187,-0.2187,-0.2187,-0.2187,-0.2187,-0.2187,-0.2192,0.0,0.0,0.0,0.0,0.0,0.0,0.0,0.0,0.906,0.9367,0.0,0.9117,0.0,0.0,0.0,0.0,0.0,0.9497,0.0,0.0,1.0427,1.0606,1.04,1.0389,1.0394,1.0384,1.0161,0.9992,0.9862,0.9764,0.0,0.0,0.0,0.0,0.0,0.0,1.015,1.04,1.0862,1.1107,1.1101,1.1107,1.1107,1.1096,1.0987,1.0867,1.0737,0.943,0.8613,0.859,0.5897,0.0,0.0,0.0,0.0,0.0,0.0,0.0,0.0,0.0,0.0,0.0,0.0,0.0,0.0,0.0,0.0,0.0,0.0,0.0,0.0,0.3446,0.0,0.0,0.0,0.0,0.0,0.0,0.0,0.0,0.0,0.0,0.2617,0.3201,0.3822,0.4651,0.0,0.0,0.0,0.0,-0.0296,-0.1171,-0.1899,-0.2348,-0.2378,-0.238,-0.239,-0.2417,0.0,0.0,-0.2425,-0.2425,-0.2425,-0.2425,-0.2423,-0.2388,-0.2274,-0.2255,-0.2253,-0.2253,-0.2255,-0.2252,-0.2252,-0.2256,-0.2256,1.2313,0.0,0.0,0.0,0.0,0.9465,0.9519,0.9462,0.9579,0.9733,0.9916,0.9656,0.0,0.0,0.0,0.0,0.0,0.0,0.99,1.0106,1.0367,1.0541,1.0634,1.0639,1.0634,1.0634,1.0655,1.0645,1.0612,1.0666,1.0248,0.94,0.0,0.0,0.0,0.0,1.0307,1.0639,1.1025,1.1183,1.1107,1.1183,1.1183,1.1107,1.1069,1.0992,1.0873,1.043,0.9727,0.8618,0.7174,0.0,0.0,0.0,0.0,0.0,0.0,0.0,0.0,0.0,0.0,0.0,0.0,0.0,0.0,0.0,0.0,0.0,0.0,0.0,0.3501,0.4011,0.4018,0.0,0.0,0.0,0.0,0.0,0.0,0.0,0.0,0.0,0.4201,0.376,0.3626,0.0,0.0,0.2358,0.1345,0.0596,-0.0448,-0.1818,-0.2261,0.0,-0.2439,-0.2425,-0.2413,-0.2423,-0.2442,-0.2455,-0.2457,-0.2473,-0.2481,-0.2461,-0.2457,-0.2438,-0.2387,-0.2372,-0.2372,-0.2372,-0.2372,-0.2373,-0.2372,-0.2372,-0.2371,1.4464,1.2207,1.2112,1.1581,1.1016,1.1023,1.0779,1.0252,1.0095,1.0095,1.0247,0.9998,0.9954,0.9949,0.9851,0.0,0.0,0.0,1.0182,1.0416,1.0492,1.0628,1.0802,1.0808,1.0835,1.0884,1.0954,1.0992,1.0992,1.102,1.0704,1.0074,0.0,0.0,1.0123,1.0367,1.0617,1.0884,1.1188,1.1313,1.1243,1.1308,1.1291,1.1172,1.1172,1.1112,1.0992,1.0949,1.0446,0.9514,0.8054,0.6693,0.0,0.0,0.0,0.0,0.0,0.0,0.0,0.0,0.0,0.0,0.0,0.2973,0.0,0.0,0.0,0.0,0.3934,0.4026,0.3992,0.4164,0.0,0.0,0.0,0.0,0.0,0.0,0.0,0.3776,0.4575,0.5262,0.5218,0.4755,0.4461,0.4512,0.419,0.344,0.2568,0.0,0.0605,-0.0764,-0.1825,-0.2433,-0.2463,-0.2454,-0.2446,-0.2458,-0.2474,-0.2487,-0.2488,-0.2503,-0.2507,-0.2492,-0.2487,-0.2481,-0.2463,-0.2459,-0.245,-0.2428,-0.2424,-0.2424,-0.2424,-0.2424,-0.2424,1.6542,1.65,1.6157,1.4916,1.3283,1.3283,1.2475,1.1225,1.1225,1.1065,1.1048,1.0835,1.0578,1.0561,1.0177,0.0,1.0572,1.0583,1.0547,1.0753,1.0759,1.0824,1.0933,1.0933,1.0992,1.1101,1.1112,1.1118,1.1112,1.1014,1.0954,1.0944,1.0835,1.071,1.059,1.0802,1.0982,1.1101,1.1324,1.1444,1.1455,1.1455,1.14,1.1286,1.1286,1.1232,1.1118,1.1009,1.0938,1.0736,0.8698,0.733,0.7213,0.0,0.0,0.0,0.0,0.0,0.0,0.0,0.0,0.0,0.0,0.0,0.0,0.0,0.0,0.0,0.4754,0.0,0.4988,0.4297,0.0,0.0,0.0,0.4515,0.5428,0.5869,0.6073,0.6065,0.0,0.0,0.5748,0.5758,0.5935,0.6312,0.6159,0.5826,0.5164,0.367,0.2454,0.1521,-0.0607,-0.2135,-0.2162,-0.2318,-0.2481,-0.2504,-0.2514,-0.2512,-0.2512,-0.2514,-0.2514,-0.2512,-0.2514,-0.2512,-0.2514,-0.251,-0.2497,-0.2443,-0.2433,-0.2433,-0.2435,-0.2436,-0.2436,2.0629,2.0609,2.0446,1.8402,1.5225,1.5225,1.5108,1.4683,1.4691,1.4691,1.4683,1.3302,1.2624,1.2617,1.1247,1.1253,1.263,1.1415,1.0824,1.0878,1.0971,1.1031,1.1058,1.1058,1.1074,1.1107,1.1194,1.1232,1.1237,1.1297,1.1281,1.1194,1.1161,1.0992,1.071,1.0846,1.0976,1.1101,1.1243,1.1362,1.1455,1.1455,1.1438,1.1411,1.1411,1.1357,1.1237,1.1204,1.1107,1.0927,0.8955,0.7934,0.7794,0.5124,0.0,0.0,0.0,0.0,0.0,0.0,0.0,0.0,0.0,0.3134,0.2491,0.0,0.3623,0.0,0.504,0.5942,0.5975,0.605,0.0,0.0,0.5502,0.5774,0.5935,0.6631,0.6849,0.623,0.6788,0.7181,0.7048,0.6747,0.6934,0.7636,0.6302,0.5349,0.5584,0.4326,0.3396,0.3258,0.1243,-0.0467,-0.078,-0.172,-0.2506,-0.2514,-0.2514,-0.2514,-0.2514,-0.2514,-0.2514,-0.2514,-0.2514,-0.2514,-0.2514,-0.2514,-0.251,-0.2496,-0.2492,-0.2492,-0.2492,-0.2492,-0.2492,2.2143,2.1965,2.1965,2.0412,1.7946,1.7539,1.7076,1.6243,1.6243,1.5909,1.4914,1.3244,1.2415,1.2246,1.1233,1.1908,1.3418,1.1816,1.1845,1.3369,1.2771,1.2841,1.3581,1.2897,1.2409,1.2475,1.1846,1.1351,1.1357,1.1422,1.1422,1.1351,1.1351,1.1199,1.0916,1.0965,1.1036,1.1101,1.1215,1.133,1.1449,1.1455,1.1427,1.1378,1.1373,1.1291,1.1123,1.1063,1.0779,1.0435,0.8707,0.7745,0.7827,0.534,0.3965,0.0,0.0,0.0,0.0,0.0,0.0,0.0,0.0,0.0,0.0,0.0,0.4221,0.4106,0.5468,0.6183,0.5657,0.6074,0.618,0.6131,0.6716,0.7178,0.7519,0.8223,0.8421,0.7907,0.8306,0.8534,0.8379,0.807,0.8092,0.815,0.7131,0.6487,0.6407,0.5298,0.4354,0.4383,0.2664,0.0784,0.0157,-0.0784,-0.157,-0.2357,-0.2514,-0.2514,-0.2514,-0.2514,-0.2514,-0.2514,-0.2514,-0.2514,-0.2514,-0.2514,-0.2514,-0.2514,-0.2514,-0.2514,-0.2514,-0.2514,-0.2514,2.2565,2.2219,2.2062,2.1431,2.0589,1.9933,1.8762,1.6986,1.6986,1.5987,1.4309,1.2797,1.2122,1.2128,1.1956,1.2809,1.4508,1.2656,1.3515,1.6236,1.4729,1.4808,1.6144,1.4583,1.3786,1.3912,1.2337,1.1455,1.1455,1.1455,1.1449,1.1433,1.1427,1.1324,1.1112,1.1107,1.1107,1.1107,1.1232,1.134,1.1427,1.1433,1.1373,1.1259,1.1248,1.1145,1.0927,1.0819,1.0527,0.9907,0.8341,0.7451,0.7693,0.5679,0.4466,0.0,0.3885,0.0,0.0,0.0,0.0,0.0,0.0,0.0,0.0,0.4937,0.5162,0.5328,0.6038,0.6213,0.5492,0.578,0.6409,0.7091,0.7868,0.8669,0.9387,0.9708,1.0019,1.0019,1.0019,0.9864,0.9553,0.9402,0.909,0.8466,0.815,0.7838,0.7542,0.6275,0.5324,0.5327,0.3918,0.235,0.0941,0.0314,-0.0157,-0.1413,-0.157,-0.1885,-0.1728,-0.1885,-0.22,-0.22,-0.2357,-0.2514,-0.2514,-0.2514,-0.2514,-0.2514,-0.2514,-0.2514,-0.2514,-0.2514,-0.2514,2.3232,2.306,2.2718,2.2525,2.2311,2.2182,2.0577,1.8275,1.8275,1.7861,1.7011,1.7492,1.7721,1.7552,1.6204,1.6535,1.8238,1.651,1.5369,1.452,1.4297,1.367,1.2473,1.2119,1.1959,1.1982,1.1632,1.1455,1.1455,1.1455,1.1406,1.1308,1.1308,1.1237,1.1112,0.0,0.0,0.0,1.1313,1.1384,1.1308,1.1308,1.1248,1.1139,1.1134,0.0,1.0927,1.0895,1.0613,0.9912,0.8898,0.0,0.0,0.0,0.0,0.0,0.0,0.0,0.0,0.0,0.0,0.0,0.4706,0.473,0.4951,0.5024,0.5572,0.662,0.6707,0.7154,0.8046,0.8453,0.8721,0.8896,0.9366,0.9682,0.9864,1.0019,1.0019,1.0019,1.0019,1.0019,0.9869,0.9558,0.9246,0.8793,0.8471,0.8033,0.779,0.7264,0.706,0.6896,0.5498,0.392,0.235,0.2039,0.1885,0.1568,0.1567,0.1412,0.1255,0.0314,-0.0471,-0.0471,-0.157,-0.2357,-0.2357,-0.2514,-0.2357,-0.2514,-0.2357,-0.2514,-0.2514,-0.2514,-0.2514,2.3892,0.0,2.3204,2.2783,0.0,2.1989,2.0807,1.9142,2.0189,1.9991,1.873,1.8308,1.8181,1.8172,1.6714,1.7016,1.8721,1.6331,1.6035,1.7501,1.6554,1.6641,1.7413,1.6362,1.6187,1.6362,1.5139,1.4088,1.3211,1.304,1.2331,1.1449,1.1395,1.1362,1.1368,1.1368,1.1308,1.1188,1.1308,1.1362,1.1362,1.1362,1.1308,1.1188,1.1183,0.0,0.0,0.0,0.0,0.0,0.0,0.0,0.0,0.7151,0.0,0.6174,0.5845,0.5594,0.5594,0.5531,0.5836,0.6398,0.675,0.6484,0.5748,0.6251,0.6949,0.7709,0.7761,0.8172,0.885,0.9125,0.9402,0.9402,0.9708,1.0019,1.0019,1.0019,1.0019,1.0019,1.0019,1.0041,1.0101,0.9955,0.9667,0.9402,0.8978,0.8545,0.8263,0.7877,0.7672,0.7717,0.7042,0.5743,0.4305,0.3827,0.3507,0.2871,0.2711,0.2545,0.2532,0.1898,0.1263,0.1256,0.047,-0.0,-0.0,-0.0,-0.0,-0.0,-0.0,-0.0314,-0.1099,-0.1885,-0.2514,2.4578,2.4235,2.372,2.2911,2.2044,2.1692,2.1078,2.0258,0.0,0.0,0.0,1.8627,1.8121,1.8113,1.7091,1.7543,1.9094,1.6534,1.7408,2.0999,1.9447,2.0058,2.2309,2.0905,2.0385,2.0549,1.8279,1.6362,1.4963,1.4292,1.3127,1.1798,1.1558,1.1569,1.1661,1.1667,1.1569,1.1378,1.1368,1.1406,1.1482,1.1465,1.1395,1.1275,1.1253,1.1139,1.0927,1.0922,1.0693,1.008,0.9397,0.8869,0.8479,0.7978,0.7416,0.6798,0.6666,0.6602,0.6627,0.6505,0.6938,0.815,0.8549,0.8282,0.7024,0.7819,0.8486,0.8572,0.8809,0.9031,0.8944,0.9246,0.9553,0.9553,0.9864,1.0019,1.0019,1.0041,1.0057,1.0052,1.0079,1.0123,1.0221,1.0259,1.0137,0.991,0.9519,0.9118,0.8623,0.8212,0.7827,0.786,0.7645,0.714,0.6169,0.5677,0.5196,0.4214,0.3892,0.3721,0.3531,0.336,0.3029,0.3008,0.2839,0.2366,0.2518,0.2366,0.2521,0.2517,0.2521,0.2207,0.0787,-0.063,-0.1575,2.4749,2.4578,2.4235,2.3869,2.3664,2.3664,2.3652,2.3254,2.1915,2.117,2.0838,2.1546,2.2147,2.2492,2.1943,2.2277,2.3137,2.2407,2.1718,2.1211,2.1038,2.0173,1.9141,1.8453,1.8287,1.8113,1.6019,1.4794,1.4815,1.2979,1.1978,1.2187,1.1903,1.1775,1.1792,1.1792,1.1775,1.1743,1.1743,1.1699,1.1612,1.1509,1.1395,1.1275,1.1183,1.1063,1.0927,1.0922,1.0693,1.008,1.007,0.9435,0.8323,0.8501,0.8315,0.745,0.7761,0.7825,0.7617,0.7573,0.7668,0.8172,0.8636,0.8678,0.8609,0.8777,0.8945,0.9273,0.9336,0.9417,0.9708,0.9864,0.9864,0.9869,1.0025,1.0019,1.0036,1.0117,1.0177,1.0177,1.0269,1.0335,1.0367,1.0449,1.0351,1.006,0.9998,0.9746,0.8941,0.8352,0.7897,0.7836,0.7807,0.7637,0.7328,0.7475,0.7162,0.7147,0.6834,0.6668,0.6647,0.5671,0.5013,0.4846,0.3868,0.3053,0.2871,0.2729,0.305,0.3032,0.3043,0.2894,0.239,0.1908,0.0793,2.5092,2.4921,2.4407,2.4064,2.4064,2.3548,2.3376,2.3193,2.2385,2.2171,2.2696,2.3148,2.3548,2.3709,2.2889,2.2824,2.3165,2.2342,2.1842,2.1936,2.1947,2.1838,2.176,2.1597,2.1597,2.178,2.0666,1.9665,1.8981,1.7728,1.6258,1.4557,1.2984,1.2281,1.2281,1.2096,1.1944,1.2004,1.1884,1.1792,1.1737,1.1683,1.1596,1.1471,1.1417,1.1335,1.1215,1.121,1.1183,1.0956,1.0783,1.0457,0.9637,0.9463,0.9266,0.8523,0.8301,0.8365,0.8356,0.8743,0.8973,0.904,0.9402,0.9514,0.9565,0.9356,0.9189,0.956,0.962,0.9869,1.0019,1.0019,1.0047,1.0117,1.0117,1.0144,1.021,1.0264,1.0302,1.0313,1.0405,1.0503,1.0568,1.0677,1.0786,1.0504,1.0403,0.9918,0.9389,0.8804,0.8395,0.8019,0.7978,0.7946,0.7938,0.7942,0.7942,0.7942,0.7942,0.7921,0.7889,0.7051,0.6707,0.6668,0.601,0.5509,0.5316,0.5497,0.5503,0.5494,0.5497,0.5172,0.4323,0.3351,0.2065,2.5433,2.5263,2.4749,2.4407,2.4407,2.3548,2.3193,2.3376,2.3204,2.3548,2.4235,2.3892,2.3892,2.4041,2.2994,2.2736,2.2884,2.2033,2.2223,2.3065,2.3076,2.3699,2.4738,2.4808,2.5003,2.5211,2.4731,2.3786,2.2557,2.169,1.9735,1.6627,1.462,1.3325,1.2777,1.2404,1.2262,1.2156,1.1993,1.1895,1.1895,1.1873,1.1813,1.1721,1.1661,1.159,1.1504,1.1465,1.1455,1.1455,1.1455,1.1277,1.0743,1.0209,0.9815,0.9383,0.8786,0.8692,0.9081,0.9564,0.9937,0.9937,1.0082,1.028,1.0275,0.9856,0.9656,0.9708,0.9992,1.0112,1.0117,1.0112,1.0139,1.0231,1.0242,1.0275,1.0367,1.0427,1.0465,1.0476,1.059,1.0721,1.0813,1.0922,1.1025,1.1107,1.0756,1.0164,0.9748,0.9375,0.8848,0.8492,0.8273,0.8056,0.806,0.8056,0.8052,0.806,0.8056,0.8023,0.7978,0.7962,0.7942,0.7721,0.7705,0.753,0.7677,0.7689,0.7689,0.7514,0.7526,0.7185,0.6143,0.4981,0.3678,2.5446,2.5433,2.5287,2.5263,2.5104,2.4761,2.4773,2.4944,2.4749,2.4749,2.5127,2.3548,2.3387,2.3892,2.3514,2.4006,2.4873,2.4508,2.4508,2.5056,2.5056,2.5239,2.5311,2.5157,2.509,2.4951,2.3379,2.2778,2.2799,2.0829,1.8643,1.6785,1.6248,1.4946,1.3087,1.2904,1.2533,1.2172,1.215,1.214,1.2134,1.2031,1.1966,1.1955,1.1748,1.1634,1.1618,1.1514,1.1455,1.1455,1.1455,1.1277,1.0743,1.0209,1.0026,1.0016,0.9473,0.9387,0.9711,1.0013,1.0065,1.0049,1.0442,1.0525,1.052,1.0422,1.0307,1.0264,1.0307,1.0329,1.0351,1.034,1.034,1.0378,1.0378,1.0378,1.0433,1.0574,1.0704,1.0704,1.0889,1.1058,1.1063,1.1145,1.1221,1.1215,1.072,1.0264,1.0053,0.9651,0.9268,0.8756,0.8403,0.8064,0.806,0.806,0.806,0.806,0.806,0.8052,0.804,0.804,0.804,0.7999,0.8015,0.7987,0.7958,0.7974,0.7999,0.7942,0.7958,0.7999,0.7592,0.7188,0.6486,2.5892,2.5904,2.5544,2.537,2.5021,2.4847,2.4847,2.5021,2.4847,2.5021,2.5021,2.4323,2.4338,2.4932,2.4578,2.4921,2.5446,2.5419,2.549,2.5687,2.582,2.5904,2.5916,2.5826,2.5699,2.5735,2.5075,2.4833,2.452,2.1969,2.0096,1.9056,1.6651,1.4792,1.3864,1.3116,1.2739,1.255,1.2361,1.2172,1.2167,1.2123,1.2063,1.1987,1.1895,1.1808,1.1743,1.1629,1.1563,1.1558,1.1493,1.1455,1.1099,1.0743,1.0387,1.0387,1.0209,1.017,1.0259,1.0631,1.0881,1.0881,1.0709,1.077,1.077,1.0726,1.0677,1.0623,1.0487,1.0384,1.0394,1.0384,1.0438,1.0558,1.0596,1.0645,1.0802,1.0889,1.0954,1.0965,1.1096,1.1204,1.121,1.1243,1.1243,1.1177,1.0849,1.0562,1.0488,1.01,0.9741,0.9574,0.8905,0.8399,0.8227,0.806,0.806,0.806,0.806,0.806,0.806,0.806,0.806,0.806,0.806,0.8052,0.8019,0.8027,0.8048,0.8011,0.797,0.7987,0.8003,0.7942,0.7577,2.6218,2.6218,2.5854,2.5513,2.5336,2.516,2.516,2.516,2.516,2.516,2.5336,2.5336,2.5313,2.5514,2.5478,2.5478,2.5675,2.5856,2.594,2.5953,2.6134,2.6218,2.6218,2.6303,2.6339,2.6375,2.6616,2.6749,2.6402,2.4161,2.2412,2.1481,1.8144,1.591,1.5167,1.3864,1.3116,1.2928,1.2361,1.2172,1.2172,1.2172,1.2129,1.2047,1.2004,1.1949,1.1868,1.1748,1.1667,1.1634,1.1552,1.1487,1.1455,1.0921,1.0743,1.0743,1.0921,1.0921,1.0921,1.1196,1.1324,1.1302,1.1128,1.102,1.1014,1.0987,1.0971,1.0944,1.0732,1.0601,1.0585,1.0579,1.0661,1.0813,1.0835,1.0916,1.1069,1.1123,1.1145,1.1161,1.1243,1.1302,1.1275,1.1237,1.1177,1.1063,1.0944,1.0846,1.0759,1.0409,1.0242,1.0075,0.9407,0.8733,0.8399,0.8227,0.806,0.806,0.806,0.806,0.806,0.806,0.806,0.806,0.806,0.806,0.8048,0.8056,0.806,0.8052,0.8019,0.7991,0.804,0.7999,0.8003,2.6218,2.623,2.623,2.6078,2.6054,2.5713,2.5701,2.6102,2.5713,2.5701,2.609,2.6078,2.6218,2.6182,2.583,2.5818,2.617,2.6182,2.6206,2.6206,2.6242,2.623,2.6242,2.6484,2.6616,2.6641,2.6858,2.6979,2.6991,2.6652,2.573,2.3871,2.1481,1.9445,1.7211,1.4986,1.3493,1.2928,1.255,1.2172,1.2172,1.2172,1.2167,1.2145,1.2053,1.1993,1.1971,1.1873,1.1759,1.1645,1.1629,1.1574,1.1476,1.1099,1.0743,1.0743,1.1094,1.1455,1.1455,1.1438,1.1433,1.1427,1.1313,1.1253,1.1237,1.1161,1.1112,1.1096,1.1074,1.1047,1.1041,1.0998,1.102,1.1058,1.1079,1.109,1.1112,1.1215,1.1259,1.1281,1.1351,1.1357,1.1275,1.1177,1.1069,1.0954,1.0829,1.0748,1.0742,1.0737,1.057,1.0237,0.9736,0.924,0.8738,0.8399,0.806,0.806,0.806,0.806,0.806,0.806,0.806,0.806,0.806,0.806,0.806,0.806,0.806,0.8056,0.8056,0.8056,0.806,0.806,0.8056,2.6737,2.6737,2.6737,2.6737,2.6737,2.6558,2.6558,2.6737,2.6558,2.6558,2.6737,2.6737,2.6737,2.6737,2.6558,2.6366,2.6254,2.6399,2.6484,2.6508,2.6653,2.6737,2.6749,2.6846,2.6882,2.6906,2.6991,2.7027,2.6845,2.573,2.4807,2.3881,2.2034,2.0001,1.7957,1.6277,1.4785,1.3493,1.255,1.2172,1.2172,1.2172,1.2172,1.2172,1.2129,1.2107,1.2107,1.1993,1.1906,1.1862,1.1721,1.1618,1.1569,1.132,1.1277,1.1271,1.1384,1.1373,1.1433,1.1384,1.1373,1.1444,1.1417,1.1384,1.1384,1.1351,1.1324,1.1324,1.1324,1.133,1.1297,1.1199,1.1134,1.1199,1.121,1.1243,1.1313,1.1362,1.1389,1.1384,1.1373,1.1291,1.1177,1.1058,1.0971,1.0916,1.0813,1.0748,1.0737,1.0737,1.057,1.0404,1.007,0.9741,0.924,0.8566,0.806,0.806,0.806,0.806,0.806,0.806,0.806,0.806,0.806,0.806,0.806,0.806,0.806,0.8227,0.8227,0.806,0.806,0.806,0.806,2.7027,2.7027,2.7027,2.7027,2.7027,2.7027,2.7027,2.7027,2.7027,2.7027,2.7027,2.7027,2.7027,2.7027,2.7027,2.6846,2.652,2.6677,2.6761,2.6773,2.6954,2.7027,2.7027,2.7027,2.7027,2.7027,2.7027,2.7027,2.6845,2.573,2.499,2.499,2.2954,2.1481,1.9992,1.8499,1.683,1.4979,1.3852,1.3104,1.2356,1.2172,1.2172,1.2172,1.2172,1.2172,1.2167,1.2091,1.2025,1.1971,1.183,1.1716,1.1634,1.152,1.1455,1.1444,1.134,1.1302,1.1373,1.1319,1.1308,1.1389,1.1433,1.1455,1.1455,1.1455,1.1455,1.1455,1.1455,1.1455,1.1427,1.1308,1.1248,1.1319,1.133,1.1362,1.1444,1.1455,1.1433,1.1373,1.1286,1.1177,1.1063,1.0976,1.0911,1.0867,1.078,1.0737,1.0737,1.0737,1.0737,1.0737,1.0404,1.0075,0.9574,0.8901,0.8232,0.8232,0.806,0.806,0.806,0.806,0.806,0.806,0.806,0.806,0.806,0.806,0.8227,0.8232,0.8232,0.806,0.806,0.8227,0.8227,2.7027,2.7027,2.7027,2.7027,2.7027,2.7027,2.7027,2.7027,2.7027,2.7027,2.7027,2.7027,2.7027,2.7027,2.7027,2.7003,2.6966,2.6979,2.6991,2.6991,2.7015,2.7027,2.7027,2.7027,2.7027,2.7027,2.7027,2.7027,2.7027,2.6845,2.6664,2.647,2.499,2.3881,2.3871,2.1277,1.9056,1.7196,1.6076,1.4772,1.2544,1.2544,1.2361,1.2172,1.2172,1.2172,1.2172,1.2167,1.2107,1.2015,1.1982,1.1873,1.1661,1.1531,1.146,1.1438,1.1335,1.1275,1.1275,1.1259,1.1237,1.1302,1.1384,1.1444,1.1455,1.1455,1.1449,1.1433,1.1438,1.1444,1.1427,1.1395,1.1395,1.1449,1.1411,1.1417,1.1422,1.1444,1.14,1.1275,1.1161,1.1058,1.096,1.0905,1.0857,1.078,1.0748,1.0737,1.0737,1.0737,1.0737,1.057,1.0404,1.0237,0.9741,0.9407,0.8733,0.8232,0.8227,0.806,0.806,0.806,0.806,0.806,0.8232,0.8232,0.8566,0.8566,0.8566,0.8566,0.8399,0.8399,0.8566,0.8566,0.8399,2.7027,2.7027,2.7027,2.7027,2.7027,2.7027,2.7027,2.7027,2.7027,2.7027,2.7027,2.7027,2.7027,2.7027,2.7027,2.7027,2.7027,2.7027,2.7027,2.7027,2.7027,2.7027,2.7027,2.7027,2.7027,2.7027,2.7027,2.7027,2.7027,2.7027,2.7027,2.6845,2.647,2.5354,2.4247,2.2943,2.1267,1.9427,1.8305,1.6823,1.4959,1.4409,1.367,1.2361,1.2172,1.2172,1.2172,1.2172,1.2156,1.2112,1.2031,1.1879,1.1683,1.1601,1.1542,1.1444,1.1264,1.1199,1.1243,1.1128,1.1112,1.1232,1.1308,1.1373,1.1444,1.1449,1.1411,1.1346,1.133,1.1302,1.1232,1.1215,1.1248,1.1324,1.133,1.1297,1.1243,1.1221,1.1156,1.1052,1.0998,1.0922,1.0829,1.0797,1.0786,1.0753,1.0737,1.0737,1.0742,1.0748,1.0737,1.0737,1.057,1.0435,1.0126,0.9805,0.9464,0.8941,0.8592,0.8399,0.8395,0.8227,0.8227,0.8232,0.8399,0.8566,0.8733,0.8901,0.8901,0.9072,0.9068,0.9068,0.9072,0.9068,0.8901,2.7027,2.7027,2.7027,2.7027,2.7027,2.7027,2.7027,2.7027,2.7027,2.7027,2.7027,2.7027,2.7027,2.7027,2.7027,2.7027,2.7027,2.7027,2.7027,2.7027,2.7027,2.7027,2.7027,2.7027,2.7027,2.7027,2.7027,2.7027,2.7027,2.7027,2.7027,2.7027,2.7027,2.647,2.5172,2.4785,2.3677,2.1646,2.0723,1.9233,1.7188,1.5903,1.4604,1.3481,1.2544,1.2172,1.2172,1.2172,1.2172,1.215,1.2053,1.1917,1.1775,1.1688,1.1601,1.1493,1.1281,1.1139,1.1177,1.1036,1.0971,1.1118,1.1183,1.1237,1.1308,1.1324,1.1281,1.1226,1.121,1.1177,1.1123,1.1107,1.1123,1.1134,1.1183,1.1172,1.1107,1.1058,1.1014,1.0938,1.0884,1.0819,1.0764,1.0737,1.0737,1.0737,1.0737,1.077,1.0786,1.0808,1.0819,1.0846,1.09,1.0742,1.0551,1.0377,1.0038,0.9671,0.9132,0.8923,0.8733,0.8733,0.8733,0.8733,0.8905,0.8901,0.9235,0.9235,0.924,0.9407,0.9574,0.9574,0.9402,0.9407,0.9235,2.7027,2.7027,2.7027,2.7027,2.7027,2.7027,2.7027,2.7027,2.7027,2.7027,2.7027,2.7027,2.7027,2.7027,2.7027,2.7027,2.7027,2.7027,2.7027,2.7027,2.7027,2.7027,2.7027,2.7027,2.7027,2.7027,2.7027,2.7027,2.7027,2.7027,2.7027,2.7027,2.7027,2.7027,2.6652,2.6845,2.5719,2.386,2.2954,2.1471,1.9242,1.6651,1.5348,1.4979,1.3299,1.2172,1.2172,1.2172,1.2172,1.2156,1.2069,1.1998,1.1944,1.1775,1.1677,1.1634,1.1308,1.1156,1.1096,1.0976,1.0916,1.0954,1.1041,1.1101,1.1128,1.115,1.1134,1.1096,1.109,1.1085,1.1069,1.1052,1.1014,1.0949,1.1003,1.1047,1.1069,1.0971,1.0905,1.0884,1.0808,1.0737,1.0742,1.0748,1.0759,1.0764,1.078,1.0846,1.09,1.0944,1.0987,1.1014,1.1031,1.102,1.0816,1.0646,1.047,1.0279,0.9904,0.9526,0.93,0.9291,0.9249,0.9412,0.9416,0.9412,0.9574,0.9741,0.9736,0.9903,0.9903,0.9903,0.9736,0.9736,0.9736,2.7027,2.7027,2.7027,2.7027,2.7027,2.7027,2.7027,2.7027,2.7027,2.7027,2.7027,2.7027,2.7027,2.7027,2.7027,2.7027,2.7027,2.7027,2.7027,2.7027,2.7027,2.7027,2.7027,2.7027,2.7027,2.7027,2.7027,2.7027,2.7027,2.7027,2.7027,2.7027,2.7027,2.7027,2.7027,2.7027,2.6664,2.6095,2.5183,2.3698,2.1471,1.8871,1.6651,1.5167,1.3293,1.2361,1.2172,1.2172,1.2172,1.2172,1.2145,1.2074,1.1998,1.1917,1.1846,1.1726,1.1449,1.1232,1.1177,1.096,1.0846,1.0911,1.0949,1.1003,1.1096,1.1101,1.1058,1.0998,1.0965,1.0933,1.0862,1.0846,1.0819,1.0797,1.084,1.0862,1.0846,1.0808,1.0786,1.078,1.0759,1.0753,1.0775,1.0824,1.0867,1.0884,1.0933,1.0998,1.1036,1.1058,1.1085,1.1079,1.109,1.1096,1.109,1.0918,1.0913,1.0902,1.0714,1.036,0.9958,0.9578,0.9666,0.9766,0.9943,0.9943,1.0252,1.0404,1.057,1.0404,1.0404,1.0237,1.0404,1.0404,1.0404,2.7027,2.7027,2.7027,2.7027,2.7027,2.7027,2.7027,2.7027,2.7027,2.7027,2.7027,2.7027,2.7027,2.7027,2.7027,2.7027,2.7027,2.7027,2.7027,2.7027,2.7027,2.7027,2.7027,2.7027,2.7027,2.7027,2.7027,2.7027,2.7027,2.7027,2.7027,2.7027,2.7027,2.7027,2.7027,2.7027,2.7027,2.6845,2.63,2.5183,2.3698,2.1102,1.8693,1.6464,1.4604,1.3104,1.2361,1.2172,1.2172,1.2172,1.2167,1.214,1.2074,1.2009,1.196,1.1879,1.1596,1.1411,1.1308,1.1063,1.0911,1.0905,1.0884,1.0878,1.0927,1.0949,1.0905,1.0857,1.0846,1.0808,1.0759,1.0737,1.0737,1.0748,1.078,1.0791,1.0748,1.0742,1.0764,1.0791,1.0813,1.084,1.0873,1.0954,1.0982,1.1003,1.1041,1.1107,1.1156,1.1166,1.1188,1.1204,1.1226,1.1248,1.1259,1.1259,1.1248,1.1226,1.121,1.0851,1.0605,1.0204,1.0304,1.0387,1.0346,1.0477,1.0645,1.0786,1.0737,1.057,1.0737,1.0737,1.0737,1.0737,1.0737,2.7027,2.7027,2.7027,2.7027,2.7027,2.7027,2.7027,2.7027,2.7027,2.7027,2.7027,2.7027,2.7027,2.7027,2.7027,2.7027,2.7027,2.7027,2.7027,2.7027,2.7027,2.7027,2.7027,2.7027,2.7027,2.7027,2.7027,2.7027,2.7027,2.7027,2.7027,2.7027,2.7027,2.7027,2.7027,2.7027,2.7027,2.6845,2.5924,2.556,2.4635,2.2412,1.9992,1.8507,1.591,1.4046,1.2733,1.2172,1.2172,1.2172,1.2172,1.2167,1.215,1.2058,1.202,1.1971,1.1781,1.1596,1.1487,1.1281,1.1085,1.0998,1.0889,1.0786,1.084,1.0857,1.084,1.0802,1.077,1.0813,1.0813,1.0791,1.0808,1.0829,1.0889,1.0873,1.0808,1.0775,1.0819,1.0916,1.0938,1.0992,1.1063,1.1112,1.1123,1.1123,1.1166,1.1237,1.1281,1.1291,1.133,1.1378,1.14,1.1427,1.1433,1.1433,1.1417,1.14,1.1378,1.1346,1.1057,1.0825,1.0956,1.1063,1.0811,1.0768,1.0938,1.0884,1.0813,1.0775,1.0802,1.0775,1.0742,1.0737,1.0737,2.7027,2.7027,2.7027,2.7027,2.7027,2.7027,2.7027,2.7027,2.7027,2.7027,2.7027,2.7027,2.7027,2.7027,2.7027,2.7027,2.7027,2.7027,2.7027,2.7027,2.7027,2.7027,2.7027,2.7027,2.7027,2.7027,2.7027,2.7027,2.7027,2.7027,2.7027,2.7027,2.7027,2.7027,2.7027,2.7027,2.7027,2.6664,2.5172,2.4807,2.4818,2.2402,2.0548,2.0001,1.7025,1.4228,1.2733,1.2172,1.2172,1.2172,1.2172,1.2172,1.2161,1.214,1.2123,1.2074,1.1917,1.177,1.1705,1.1514,1.1324,1.121,1.1145,1.1118,1.1031,1.1009,1.0971,1.0927,1.0965,1.0992,1.0992,1.1014,1.0998,1.1003,1.1031,1.1052,1.1031,1.1014,1.102,1.1052,1.1063,1.1074,1.1107,1.1204,1.1226,1.1243,1.1297,1.1373,1.1395,1.14,1.1422,1.1455,1.1455,1.1455,1.1455,1.1455,1.1455,1.1455,1.1455,1.1455,1.134,1.1281,1.1237,1.1166,1.1085,1.1063,1.1058,1.1031,1.0971,1.0927,1.0873,1.084,1.0808,1.0775,1.0737,2.7027,2.7027,2.7027,2.7027,2.7027,2.7027,2.7027,2.7027,2.7027,2.7027,2.7027,2.7027,2.7027,2.7027,2.7027,2.7027,2.7027,2.7027,2.7027,2.7027,2.7027,2.7027,2.7027,2.7027,2.7027,2.7027,2.7027,2.7027,2.7027,2.7027,2.7027,2.7027,2.7027,2.7027,2.7027,2.7027,2.7027,2.6845,2.573,2.499,2.4064,2.3331,2.1481,2.0557,1.7398,1.4604,1.3858,1.2544,1.2361,1.2172,1.2172,1.2172,1.2172,1.2172,1.2172,1.2145,1.2074,1.1949,1.1868,1.1732,1.1574,1.1449,1.1346,1.1253,1.1177,1.1139,1.1079,1.1036,1.1058,1.1101,1.1107,1.1101,1.1107,1.1118,1.1156,1.1177,1.1172,1.1139,1.1128,1.1161,1.1183,1.1221,1.127,1.1308,1.1335,1.1357,1.1357,1.1427,1.1427,1.1433,1.1438,1.1455,1.1455,1.1455,1.1455,1.1455,1.1455,1.1455,1.1455,1.1455,1.1411,1.1373,1.1346,1.1275,1.1215,1.1183,1.1172,1.1145,1.1112,1.1047,1.0982,1.0927,1.0884,1.0857,1.0797,2.7027,2.7027,2.7027,2.7027,2.7027,2.7027,2.7027,2.7027,2.7027,2.7027,2.7027,2.7027,2.7027,2.7027,2.7027,2.7027,2.7027,2.7027,2.7027,2.7027,2.7027,2.7027,2.7027,2.7027,2.7027,2.7027,2.7027,2.7027,2.7027,2.7027,2.7027,2.7027,2.7027,2.7027,2.7027,2.7027,2.7027,2.6845,2.6288,2.5548,2.443,2.4624,2.3515,2.1296,1.8135,1.5723,1.4792,1.3293,1.2172,1.2172,1.2172,1.2172,1.2172,1.2172,1.2172,1.2172,1.2145,1.2102,1.2025,1.1922,1.1819,1.1694,1.1525,1.14,1.1362,1.1291,1.1226,1.1172,1.1172,1.1161,1.1156,1.1188,1.1183,1.1188,1.1253,1.1291,1.1281,1.121,1.1232,1.1275,1.1302,1.133,1.1378,1.1422,1.1444,1.1455,1.1455,1.1455,1.1455,1.1455,1.1455,1.1455,1.1455,1.1455,1.1455,1.1455,1.1455,1.1455,1.1455,1.1455,1.1455,1.1433,1.14,1.1406,1.1362,1.1319,1.1286,1.127,1.1221,1.1156,1.1107,1.1063,1.1009,1.0938,1.0867,2.7027,2.7027,2.7027,2.7027,2.7027,2.7027,2.7027,2.7027,2.7027,2.7027,2.7027,2.7027,2.7027,2.7027,2.7027,2.7027,2.7027,2.7027,2.7027,2.7027,2.7027,2.7027,2.7027,2.7027,2.7027,2.7027,2.7027,2.7027,2.7027,2.7027,2.7027,2.7027,2.7027,2.7027,2.7027,2.7027,2.7027,2.6845,2.5913,2.5172,2.5183,2.4624,2.4064,2.2218,1.9613,1.739,1.5348,1.3481,1.2172,1.2172,1.2172,1.2172,1.2172,1.2172,1.2172,1.2172,1.2172,1.215,1.2118,1.2112,1.2042,1.1955,1.1846,1.1786,1.171,1.1601,1.1471,1.1378,1.1313,1.1286,1.1389,1.1362,1.1384,1.1395,1.1389,1.1411,1.1406,1.1389,1.1368,1.1395,1.1411,1.1417,1.1438,1.1455,1.1455,1.1455,1.1455,1.1455,1.1455,1.1455,1.1455,1.1455,1.1455,1.1455,1.1455,1.1455,1.1455,1.1455,1.1455,1.1455,1.1455,1.1455,1.1449,1.1438,1.1438,1.1411,1.1389,1.1373,1.133,1.1264,1.1232,1.1204,1.1123,1.1041,1.0971,2.7027,2.7027,2.7027,2.7027,2.7027,2.7027,2.7027,2.7027,2.7027,2.7027,2.7027,2.7027,2.7027,2.7027,2.7027,2.7027,2.7027,2.7027,2.7027,2.7027,2.7027,2.7027,2.7027,2.7027,2.7027,2.7027,2.7027,2.7027,2.7027,2.7027,2.7027,2.7027,2.7027,2.7027,2.7027,2.7027,2.7027,2.6664,2.6106,2.5354,2.5183,2.4247,2.3698,2.3515,2.1655,1.9436,1.7204,1.4979,1.3299,1.2544,1.2172,1.2172,1.2172,1.2172,1.2172,1.2172,1.2172,1.2172,1.2172,1.2172,1.2134,1.2091,1.2031,1.1971,1.1895,1.1786,1.1683,1.1574,1.1514,1.1455,1.1449,1.146,1.1455,1.1455,1.1455,1.1455,1.1455,1.1455,1.1455,1.1455,1.1444,1.1438,1.1444,1.1455,1.1455,1.1455,1.1455,1.1455,1.1455,1.1455,1.1455,1.1455,1.1455,1.1455,1.1455,1.1455,1.1455,1.1455,1.1455,1.1455,1.1455,1.1455,1.1455,1.1455,1.1455,1.1455,1.1449,1.1417,1.1395,1.1378,1.1357,1.1313,1.1226,1.1145,1.1074,2.7027,2.7027,2.7027,2.7027,2.7027,2.7027,2.7027,2.7027,2.7027,2.7027,2.7027,2.7027,2.7027,2.7027,2.7027,2.7027,2.7027,2.7027,2.7027,2.7027,2.7027,2.7027,2.7027,2.7027,2.7027,2.7027,2.7027,2.7027,2.7027,2.7027,2.7027,2.7027,2.7027,2.7027,2.7027,2.7027,2.7027,2.7027,2.7027,2.6095,2.499,2.443,2.4441,2.5366,2.3515,2.1287,1.9613,1.6644,1.4785,1.3475,1.2544,1.2172,1.2172,1.2172,1.2172,1.2172,1.2172,1.2172,1.2172,1.2172,1.2167,1.215,1.208,1.2036,1.1998,1.1917,1.1803,1.1705,1.1667,1.1612,1.1531,1.1498,1.1482,1.1455,1.1455,1.1455,1.1455,1.1455,1.1455,1.1455,1.1455,1.1455,1.1455,1.1455,1.1455,1.1455,1.1455,1.1455,1.1455,1.1455,1.1455,1.1455,1.1455,1.1455,1.1455,1.1455,1.1455,1.1455,1.1455,1.1455,1.1455,1.1455,1.1455,1.1455,1.1455,1.1455,1.1455,1.1455,1.1433,1.1427,1.1449,1.1417,1.1335,1.1259,1.1188,2.7027,2.7027,2.7027,2.7027,2.7027,2.7027,2.7027,2.7027,2.7027,2.7027,2.7027,2.7027,2.7027,2.7027,2.7027,2.7027,2.7027,2.7027,2.7027,2.7027,2.7027,2.7027,2.7027,2.7027,2.7027,2.7027,2.7027,2.7027,2.7027,2.7027,2.7027,2.7027,2.7027,2.7027,2.7027,2.7027,2.7027,2.7027,2.7027,2.6845,2.6482,2.6288,2.6288,2.573,2.443,2.2749,2.1461,1.8491,1.6076,1.5147,1.3287,1.2361,1.2172,1.2172,1.2172,1.2172,1.2172,1.2172,1.2172,1.2172,1.2172,1.2172,1.2145,1.215,1.2107,1.2031,1.1922,1.1813,1.1797,1.1743,1.1645,1.1618,1.1558,1.1509,1.1482,1.1471,1.146,1.1455,1.1455,1.1455,1.1455,1.1455,1.1455,1.1455,1.1455,1.1455,1.1455,1.1455,1.1455,1.1455,1.1455,1.1455,1.1455,1.1455,1.1455,1.1455,1.1455,1.1455,1.1455,1.1455,1.1455,1.1455,1.1455,1.1455,1.1455,1.1455,1.1455,1.1455,1.1455,1.1455,1.1455,1.1455,1.1444,1.1373,1.1291,2.7027,2.7027,2.7027,2.7027,2.7027,2.7027,2.7027,2.7027,2.7027,2.7027,2.7027,2.7027,2.7027,2.7027,2.7027,2.7027,2.7027,2.7027,2.7027,2.7027,2.7027,2.7027,2.7027,2.7027,2.7027,2.7027,2.7027,2.7027,2.7027,2.7027,2.7027,2.7027,2.7027,2.7027,2.7027,2.7027,2.7027,2.7027,2.7027,2.7027,2.7027,2.7027,2.6857,2.6664,2.5537,2.4419,2.2749,2.1277,1.8305,1.7009,1.4966,1.404,1.3299,1.3116,1.2928,1.255,1.255,1.255,1.2172,1.2172,1.2172,1.2172,1.2172,1.2167,1.2161,1.2123,1.2036,1.1928,1.1917,1.1857,1.177,1.1743,1.1667,1.1601,1.1737,1.1504,1.1482,1.146,1.1455,1.1455,1.1455,1.1455,1.1455,1.1455,1.1455,1.1455,1.1455,1.1455,1.1455,1.1455,1.1455,1.1455,1.1455,1.1455,1.1455,1.1455,1.1455,1.1455,1.1455,1.1455,1.1455,1.1455,1.1455,1.1455,1.1455,1.1455,1.1455,1.1455,1.1455,1.1455,1.1455,1.1455,1.1455,1.1449,1.1368,2.7027,2.7027,2.7027,2.7027,2.7027,2.7027,2.7027,2.7027,2.7027,2.7027,2.7027,2.7027,2.7027,2.7027,2.7027,2.7027,2.7027,2.7027,2.7027,2.7027,2.7027,2.7027,2.7027,2.7027,2.7027,2.7027,2.7027,2.7027,2.7027,2.7027,2.7027,2.7027,2.7027,2.7027,2.7027,2.7027,2.7027,2.7027,2.7027,2.7027,2.7027,2.7027,2.7027,2.6845,2.647,2.573,2.4419,2.2943,2.0714,1.9233,1.7561,1.6644,1.5723,1.4979,1.4416,1.4046,1.367,1.2899,1.2705,1.2328,1.2167,1.2172,1.2172,1.2172,1.2361,1.2356,1.2339,1.2415,1.241,1.2348,1.2264,1.223,1.2163,1.2096,1.204,1.1776,1.171,1.1688,1.1654,1.1455,1.1455,1.1455,1.1455,1.1455,1.1455,1.1455,1.1455,1.1455,1.1455,1.1455,1.1455,1.1455,1.1455,1.1455,1.1455,1.1455,1.1455,1.1455,1.1455,1.1455,1.1455,1.1455,1.1455,1.1455,1.1455,1.1455,1.1455,1.1455,1.1455,1.1455,1.1455,1.1455,1.1455,1.1455,1.1444,2.7027,2.7027,2.7027,2.7027,2.7027,2.7027,2.7027,2.7027,2.7027,2.7027,2.7027,2.7027,2.7027,2.7027,2.7027,2.7027,2.7027,2.7027,2.7027,2.7027,2.7027,2.7027,2.7027,2.7027,2.7027,2.7027,2.7027,2.7027,2.7027,2.7027,2.7027,2.7027,2.7027,2.7027,2.7027,2.7027,2.7027,2.7027,2.7027,2.7027,2.7027,2.7027,2.7027,2.7027,2.7027,2.6845,2.6652,2.4602,2.3116,2.2004,2.0529,1.9233,1.8313,1.739,1.6644,1.5716,1.4765,1.3977,1.356,1.287,1.2356,1.2172,1.2361,1.255,1.2739,1.2361,1.2722,1.3275,1.3063,1.3022,1.3132,1.327,1.2847,1.2724,1.246,1.2379,1.2136,1.2287,1.2067,1.1654,1.1455,1.1632,1.1455,1.1455,1.1455,1.1455,1.1455,1.1455,1.1455,1.1455,1.1455,1.1455,1.1455,1.1455,1.1455,1.1455,1.1455,1.1455,1.1455,1.1455,1.1455,1.1455,1.1455,1.1455,1.1455,1.1455,1.1455,1.1455,1.1455,1.1455,1.1455,1.1455,1.1455,1.1455,1.1455,2.7027,2.7027,2.7027,2.7027,2.7027,2.7027,2.7027,2.7027,2.7027,2.7027,2.7027,2.7027,2.7027,2.7027,2.7027,2.7027,2.7027,2.7027,2.7027,2.7027,2.7027,2.7027,2.7027,2.7027,2.7027,2.7027,2.7027,2.7027,2.7027,2.7027,2.7027,2.7027,2.7027,2.7027,2.7027,2.7027,2.7027,2.7027,2.7027,2.7027,2.7027,2.7027,2.7027,2.7027,2.7027,2.7027,2.6845,2.6095,2.4978,2.386,2.276,2.183,2.0908,1.9798,1.8685,1.7553,1.639,1.5739,1.4977,1.3952,1.311,1.3116,1.3116,1.3116,1.3299,1.3116,1.3305,1.3493,1.3493,1.3451,1.3627,1.359,1.3349,1.3174,1.3053,1.2975,1.2722,1.2675,1.2443,1.2011,1.181,1.181,1.1632,1.1455,1.1455,1.1455,1.1455,1.1455,1.1455,1.1455,1.1455,1.1455,1.1455,1.1455,1.1455,1.1455,1.1455,1.1455,1.1455,1.1455,1.1455,1.1455,1.1455,1.1455,1.1455,1.1455,1.1455,1.1455,1.1455,1.1455,1.1455,1.1455,1.1455,1.1455,1.1455,2.739,2.739,2.739,2.7208,2.7027,2.7027,2.7027,2.7027,2.7027,2.7027,2.7027,2.7027,2.7027,2.7027,2.7027,2.7027,2.7027,2.7027,2.7027,2.7027,2.7027,2.7027,2.7027,2.7027,2.7027,2.7027,2.7027,2.7027,2.7027,2.7027,2.7027,2.7027,2.7027,2.7027,2.7027,2.7027,2.7027,2.7027,2.7027,2.7027,2.7027,2.7027,2.7027,2.7027,2.7027,2.7027,2.7027,2.6652,2.6276,2.5537,2.4796,2.4247,2.3148,2.2218,2.1102,1.9736,1.8526,1.8034,1.711,1.5682,1.4319,1.359,1.3609,1.3633,1.3858,1.387,1.3682,1.4247,1.4059,1.3864,1.4052,1.4183,1.3927,1.3751,1.384,1.3751,1.3263,1.301,1.277,1.2532,1.2349,1.2165,1.181,1.1632,1.1455,1.1455,1.1455,1.1455,1.1455,1.1455,1.1455,1.1455,1.1455,1.1455,1.1455,1.1455,1.1455,1.1455,1.1455,1.1455,1.1455,1.1455,1.1455,1.1455,1.1455,1.1455,1.1455,1.1455,1.1455,1.1455,1.1455,1.1455,1.1455,1.1455,1.1455,2.8474,2.8474,2.8474,2.7933,2.7208,2.7027,2.7027,2.7208,2.7208,2.7208,2.7208,2.7027,2.7027,2.7027,2.7208,2.7208,2.7208,2.7208,2.7027,2.7208,2.7027,2.7027,2.7027,2.7027,2.7027,2.7027,2.7027,2.7027,2.7027,2.7027,2.7027,2.7027,2.7027,2.7027,2.7027,2.7027,2.7027,2.7027,2.7027,2.7027,2.7027,2.7027,2.7027,2.7027,2.7027,2.7027,2.7027,2.7027,2.6652,2.647,2.647,2.6106,2.5913,2.4624,2.3698,2.33,2.1423,2.0505,1.9977,1.7435,1.5701,1.419,1.3851,1.3889,1.4183,1.404,1.4034,1.4571,1.4584,1.4591,1.4752,1.4872,1.4593,1.4303,1.4375,1.4276,1.3771,1.3515,1.3274,1.3065,1.2881,1.2698,1.2165,1.181,1.1632,1.1455,1.1455,1.1455,1.1455,1.1455,1.1455,1.1455,1.1455,1.1455,1.1455,1.1455,1.1455,1.1455,1.1455,1.1455,1.1455,1.1455,1.1455,1.1455,1.1455,1.1455,1.1455,1.1455,1.1455,1.1455,1.1455,1.1455,1.1455,1.1455,1.1455,2.8474,2.8474,2.8474,2.8294,2.7933,2.7933,2.7933,2.7945,2.7933,2.7933,2.7933,2.7739,2.7752,2.7752,2.7571,2.7571,2.7933,2.7558,2.7377,2.7377,2.7208,2.7027,2.7027,2.7027,2.7027,2.7027,2.7027,2.7027,2.7027,2.7027,2.7027,2.7027,2.7027,2.7027,2.7027,2.7027,2.7027,2.7027,2.7027,2.7027,2.7027,2.7027,2.7027,2.7027,2.7027,2.7027,2.7027,2.7027,2.7027,2.7027,2.7027,2.7027,2.7027,2.5913,2.5354,2.4514,2.2806,2.167,2.1077,1.9396,1.8466,1.5963,1.4448,1.4467,1.452,1.4626,1.4839,1.4852,1.4852,1.4852,1.5018,1.4896,1.4604,1.4477,1.4376,1.4316,1.4037,1.4004,1.3965,1.3597,1.3413,1.2875,1.252,1.2165,1.181,1.1632,1.1632,1.1455,1.1455,1.1455,1.1455,1.1455,1.1455,1.1455,1.1455,1.1455,1.1455,1.1455,1.1455,1.1455,1.1455,1.1455,1.1455,1.1455,1.1455,1.1455,1.1455,1.1455,1.1455,1.1455,1.1455,1.1455,1.1455,1.1455,1.1455,2.9015,2.9015,2.9015,2.9015,2.9015,2.8655,2.8474,2.8474,2.8474,2.8474,2.8474,2.8113,2.8113,2.8294,2.8281,2.8113,2.8474,2.8101,2.792,2.792,2.7571,2.739,2.7208,2.7027,2.7027,2.7027,2.7027,2.7027,2.7027,2.7027,2.7027,2.7027,2.7027,2.7027,2.7027,2.7027,2.7027,2.7027,2.7027,2.7027,2.7027,2.7027,2.7027,2.7027,2.7027,2.7027,2.7027,2.7027,2.7027,2.7027,2.7027,2.7027,2.7027,2.6845,2.6241,2.5139,2.4397,2.3063,2.1905,2.1649,2.0053,1.7202,1.6227,1.5579,1.5447,1.5209,1.4875,1.4889,1.4889,1.4889,1.4869,1.4746,1.4631,1.4509,1.4441,1.438,1.4353,1.4319,1.4312,1.3945,1.3768,1.323,1.2698,1.2343,1.1988,1.181,1.1632,1.1632,1.1455,1.1455,1.1455,1.1455,1.1455,1.1455,1.1455,1.1455,1.1455,1.1455,1.1455,1.1455,1.1455,1.1455,1.1455,1.1455,1.1455,1.1455,1.1455,1.1455,1.1455,1.1455,1.1455,1.1455,1.1455,1.1455,1.1455,2.9913,2.9913,2.9913,2.9913,2.9734,2.9015,2.8655,2.8655,2.8655,2.8655,2.8655,2.8655,2.8655,2.8655,2.8474,2.8655,2.8655,2.8655,2.8474,2.8294,2.792,2.7739,2.7377,2.7208,2.7027,2.7027,2.7027,2.7027,2.7027,2.7027,2.7027,2.7027,2.7027,2.7027,2.7027,2.7027,2.7027,2.7027,2.7027,2.7027,2.7027,2.7027,2.7027,2.7027,2.7027,2.7027,2.7027,2.7027,2.7027,2.7027,2.7027,2.7027,2.7027,2.7027,2.687,2.639,2.5934,2.436,2.3237,2.3181,2.2492,2.0181,1.8681,1.7948,1.7158,1.631,1.5629,1.509,1.5097,1.4915,1.4713,1.4611,1.4509,1.4434,1.4373,1.4333,1.4312,1.4299,1.4299,1.4122,1.4122,1.3945,1.3407,1.2875,1.2526,1.1988,1.181,1.1632,1.1632,1.1455,1.1455,1.1455,1.1455,1.1455,1.1455,1.1455,1.1455,1.1455,1.1455,1.1455,1.1455,1.1455,1.1455,1.1455,1.1455,1.1455,1.1455,1.1455,1.1455,1.1455,1.1455,1.1455,1.1455,1.1455,1.1455,2.9913,2.9913,2.9913,2.9913,2.9913,2.9554,2.9554,2.9554,2.9554,2.9554,2.9554,2.9195,2.9195,2.9375,2.9195,2.9195,2.9195,2.9195,2.9015,2.8642,2.8281,2.792,2.7558,2.739,2.7027,2.7027,2.7027,2.7027,2.7027,2.7027,2.7027,2.7027,2.7027,2.7027,2.7027,2.7027,2.7027,2.7027,2.7027,2.7027,2.7027,2.7027,2.7027,2.7027,2.7027,2.7027,2.7027,2.7027,2.7027,2.7027,2.7027,2.7027,2.7027,2.7003,2.687,2.6363,2.5838,2.5366,2.4796,2.4566,2.4212,2.317,2.1863,2.0472,1.9184,1.7881,1.6713,1.6362,1.5471,1.5118,1.4917,1.4654,1.4586,1.4367,1.4326,1.4312,1.4299,1.4299,1.4299,1.4299,1.4299,1.4122,1.3761,1.3413,1.2881,1.2526,1.1988,1.181,1.1632,1.1632,1.1455,1.1455,1.1455,1.1455,1.1455,1.1455,1.1455,1.1455,1.1455,1.1455,1.1455,1.1455,1.1455,1.1455,1.1455,1.1455,1.1455,1.1455,1.1455,1.1455,1.1455,1.1455,1.1455,1.1455,1.1455,2.9913,2.9913,2.9913,2.9913,2.9913,2.9913,2.9913,2.9913,2.9913,2.9913,2.9913,2.9554,2.9554,2.9734,2.9554,2.9554,2.9734,2.9554,2.9554,2.9195,2.8642,2.8462,2.8101,2.7558,2.7377,2.7208,2.7027,2.7027,2.7027,2.7027,2.7027,2.7027,2.7027,2.7027,2.7027,2.7027,2.7027,2.7027,2.7027,2.7027,2.7027,2.7027,2.7027,2.7027,2.7027,2.7027,2.7027,2.7027,2.7027,2.7027,2.7027,2.6966,2.6846,2.6689,2.6592,2.6134,2.5844,2.5627,2.5287,2.5263,2.5263,2.5092,2.4395,2.3365,2.1659,2.0181,1.899,1.8126,1.6719,1.5476,1.5269,1.4886,1.4503,1.4299,1.4299,1.4299,1.4299,1.4299,1.4299,1.4299,1.4299,1.4122,1.3945,1.3768,1.3591,1.3053,1.252,1.2343,1.1988,1.1632,1.1632,1.1455,1.1455,1.1455,1.1455,1.1455,1.1455,1.1455,1.1455,1.1455,1.1455,1.1455,1.1455,1.1455,1.1455,1.1455,1.1455,1.1455,1.1455,1.1455,1.1455,1.1449,1.1455,1.1455,1.1455,2.9913,2.9913,2.9913,2.9913,2.9913,2.9913,2.9913,2.9913,2.9913,2.9913,2.9913,2.9913,2.9913,2.9913,2.9734,2.9734,2.9913,2.9734,2.9734,2.9913,2.9182,2.9002,2.8642,2.8269,2.7739,2.7558,2.7377,2.7208,2.7027,2.7027,2.7027,2.7027,2.7027,2.7027,2.7027,2.7027,2.7027,2.7027,2.7027,2.7027,2.7027,2.7027,2.7027,2.7027,2.7027,2.7027,2.7027,2.7027,2.7027,2.7027,2.7003,2.6906,2.6677,2.6363,2.623,2.6037,2.5796,2.559,2.547,2.5446,2.5433,2.5433,2.5433,2.4921,2.3548,2.1649,2.0463,1.959,1.8207,1.6808,1.608,1.5027,1.4483,1.4299,1.4299,1.4299,1.4299,1.4299,1.4299,1.4299,1.4299,1.4122,1.4122,1.3945,1.3768,1.3407,1.323,1.2698,1.2343,1.1988,1.1632,1.1632,1.1455,1.1455,1.1455,1.1455,1.1455,1.1455,1.1455,1.1455,1.1455,1.1455,1.1455,1.1455,1.1455,1.1455,1.1455,1.1455,1.1455,1.1455,1.1455,1.1449,1.1444,1.1433,1.1411,2.9913,2.9913,2.9913,2.9913,2.9913,2.9913,2.9913,2.9913,2.9913,2.9913,2.9913,2.9913,2.9913,2.9913,2.9913,2.9913,2.9913,2.9913,2.9913,2.9734,2.9362,2.9362,2.9182,2.8642,2.8101,2.7739,2.7558,2.739,2.7208,2.7027,2.7027,2.7027,2.7027,2.7027,2.7027,2.7027,2.7027,2.7027,2.7027,2.7027,2.7027,2.7027,2.7027,2.7027,2.7027,2.7027,2.7027,2.7027,2.7027,2.7027,2.7027,2.6991,2.6918,2.6592,2.6363,2.6194,2.588,2.5627,2.5482,2.5433,2.5433,2.5433,2.5433,2.5433,2.4566,2.2998,2.178,2.0915,1.9873,1.8305,1.6912,1.5697,1.4476,1.4476,1.4299,1.4299,1.4299,1.4299,1.4299,1.4299,1.4299,1.4299,1.4299,1.4122,1.3945,1.3768,1.3591,1.3236,1.2875,1.252,1.2165,1.1988,1.1632,1.1455,1.1455,1.1455,1.1455,1.1455,1.1455,1.1455,1.1455,1.1455,1.1455,1.1455,1.1455,1.1455,1.1455,1.1455,1.1455,1.1455,1.1449,1.1444,1.1378,1.1351,1.133,2.9913,2.9913,2.9913,2.9913,2.9913,2.9913,2.9913,2.9913,2.9913,2.9913,2.9913,2.9913,2.9913,2.9913,2.9913,2.9913,2.9913,2.9913,2.9913,2.9734,2.9734,2.9541,2.9375,2.9015,2.8822,2.8462,2.792,2.7558,2.7196,2.7027,2.7027,2.7027,2.7027,2.7027,2.7027,2.7027,2.7027,2.7027,2.7027,2.7027,2.7027,2.7027,2.7027,2.7027,2.7027,2.7027,2.7027,2.7027,2.7027,2.6918,2.6798,2.6882,2.6725,2.6339,2.617,2.6073,2.588,2.559,2.5482,2.5433,2.5433,2.5433,2.5433,2.5433,2.5433,2.3869,2.3869,2.317,2.178,2.0221,1.9351,1.813,1.6569,1.5873,1.4999,1.4299,1.4299,1.4299,1.4299,1.4299,1.4299,1.4299,1.4299,1.4299,1.4122,1.4122,1.3945,1.3768,1.3407,1.323,1.2698,1.2343,1.1988,1.1632,1.1455,1.1455,1.1455,1.1455,1.1632,1.1455,1.1455,1.1455,1.1455,1.1455,1.1455,1.1455,1.1455,1.1455,1.1455,1.1455,1.1449,1.1438,1.1362,1.1291,1.1281,2.9913,2.9913,2.9913,2.9913,2.9913,2.9913,2.9913,2.9913,2.9913,2.9913,2.9913,2.9913,2.9913,2.9913,2.9913,2.9913,2.9913,2.9913,2.9913,2.9913,2.9913,2.9734,2.9734,2.9554,2.9182,2.8822,2.8281,2.792,2.7558,2.7377,2.7208,2.7027,2.7027,2.7027,2.7027,2.7027,2.7027,2.7027,2.7027,2.7027,2.7027,2.7027,2.7027,2.7027,2.7027,2.7027,2.7027,2.7027,2.7027,2.6882,2.6653,2.6641,2.6556,2.6206,2.6061,2.5965,2.582,2.5578,2.5458,2.5433,2.5433,2.5433,2.5433,2.5433,2.5433,2.5263,2.5263,2.4566,2.317,2.2136,2.1262,2.0047,1.8479,1.6745,1.5521,1.4299,1.4299,1.4299,1.4299,1.4299,1.4299,1.4299,1.4299,1.4299,1.4299,1.4299,1.4299,1.3945,1.3768,1.3584,1.3407,1.3053,1.2698,1.2343,1.181,1.181,1.181,1.181,1.181,1.1632,1.1455,1.1455,1.1455,1.1455,1.1455,1.1455,1.1455,1.1455,1.1455,1.1455,1.1455,1.1438,1.1362,1.1297,1.1264,2.9913,2.9913,2.9913,2.9913,2.9913,2.9913,2.9913,2.9913,2.9913,2.9913,2.9913,2.9913,2.9913,2.9913,2.9913,2.9913,2.9913,2.9913,2.9913,2.9913,2.9913,2.9913,2.9913,2.9734,2.9554,2.9182,2.8642,2.8101,2.792,2.7739,2.7377,2.7027,2.7027,2.7027,2.7027,2.7027,2.7027,2.7027,2.7027,2.7027,2.7027,2.7027,2.7027,2.7027,2.7027,2.7027,2.7027,2.7027,2.7027,2.693,2.6713,2.652,2.6351,2.6146,2.5989,2.588,2.5723,2.559,2.5494,2.5446,2.5433,2.5433,2.5433,2.5433,2.5433,2.5433,2.5263,2.5092,2.4041,2.2998,2.2126,2.0742,1.9177,1.7263,1.5697,1.4822,1.4299,1.4299,1.4299,1.4299,1.4299,1.4299,1.4299,1.4299,1.4299,1.4299,1.4299,1.4122,1.4122,1.4122,1.3945,1.3591,1.3413,1.3053,1.2698,1.252,1.252,1.2165,1.1988,1.1988,1.181,1.1455,1.1455,1.1632,1.1632,1.1455,1.1455,1.1455,1.1455,1.1455,1.1455,1.1433,1.1362,1.1319,1.1302]}]]